<?xml version="1.0" encoding="UTF-8" standalone="no" ?>
<gpx xmlns="http://www.topografix.com/GPX/1/1" xmlns:xsi="http://www.w3.org/2001/XMLSchema-instance" xsi:schemaLocation="http://www.topografix.com/GPX/1/1 http://www.topografix.com/GPX/1/1/gpx.xsd" version="1.1" creator="VisuGPX - https://www.visugpx.com">
  <metadata>
    <name>Autour de st regis du coin le 23-09-2010</name>
    <desc><![CDATA[Autour de st regis du coin le 23-09-2010]]></desc>
  </metadata>
  <wpt lat="45.28344" lon="4.44457">
    <ele>1067</ele>
  </wpt>
  <wpt lat="45.28374" lon="4.44477">
    <ele>1067</ele>
  </wpt>
  <trk>
    <name><![CDATA[Autour de st regis du coin le 23-09-2010_1]]></name>
    <trkseg>
      <trkpt lat="45.28364" lon="4.44478">
        <ele>1067</ele>
        <time>2010-09-23T07:00:38Z</time>
      </trkpt>
      <trkpt lat="45.28366" lon="4.44491">
        <ele>1067</ele>
        <time>2010-09-23T07:00:58Z</time>
      </trkpt>
      <trkpt lat="45.28367" lon="4.44505">
        <ele>1067</ele>
        <time>2010-09-23T07:01:05Z</time>
      </trkpt>
      <trkpt lat="45.28363" lon="4.44517">
        <ele>1066</ele>
        <time>2010-09-23T07:01:16Z</time>
      </trkpt>
      <trkpt lat="45.28364" lon="4.4453">
        <ele>1066</ele>
        <time>2010-09-23T07:01:24Z</time>
      </trkpt>
      <trkpt lat="45.28366" lon="4.44544">
        <ele>1066</ele>
        <time>2010-09-23T07:01:32Z</time>
      </trkpt>
      <trkpt lat="45.28367" lon="4.44557">
        <ele>1066</ele>
        <time>2010-09-23T07:01:41Z</time>
      </trkpt>
      <trkpt lat="45.28367" lon="4.44572">
        <ele>1066</ele>
        <time>2010-09-23T07:01:49Z</time>
      </trkpt>
      <trkpt lat="45.28368" lon="4.44586">
        <ele>1065</ele>
        <time>2010-09-23T07:01:57Z</time>
      </trkpt>
      <trkpt lat="45.28367" lon="4.446">
        <ele>1065</ele>
        <time>2010-09-23T07:02:03Z</time>
      </trkpt>
      <trkpt lat="45.28367" lon="4.44613">
        <ele>1065</ele>
        <time>2010-09-23T07:02:10Z</time>
      </trkpt>
      <trkpt lat="45.28366" lon="4.44627">
        <ele>1065</ele>
        <time>2010-09-23T07:02:17Z</time>
      </trkpt>
      <trkpt lat="45.28366" lon="4.44641">
        <ele>1065</ele>
        <time>2010-09-23T07:02:25Z</time>
      </trkpt>
      <trkpt lat="45.28365" lon="4.44655">
        <ele>1065</ele>
        <time>2010-09-23T07:02:33Z</time>
      </trkpt>
      <trkpt lat="45.28364" lon="4.4467">
        <ele>1066</ele>
        <time>2010-09-23T07:02:40Z</time>
      </trkpt>
      <trkpt lat="45.28362" lon="4.44685">
        <ele>1066</ele>
        <time>2010-09-23T07:02:48Z</time>
      </trkpt>
      <trkpt lat="45.2836" lon="4.44698">
        <ele>1067</ele>
        <time>2010-09-23T07:02:56Z</time>
      </trkpt>
      <trkpt lat="45.28357" lon="4.44711">
        <ele>1067</ele>
        <time>2010-09-23T07:03:03Z</time>
      </trkpt>
      <trkpt lat="45.28353" lon="4.44724">
        <ele>1067</ele>
        <time>2010-09-23T07:03:10Z</time>
      </trkpt>
      <trkpt lat="45.28348" lon="4.44735">
        <ele>1067</ele>
        <time>2010-09-23T07:03:19Z</time>
      </trkpt>
      <trkpt lat="45.28346" lon="4.44748">
        <ele>1067</ele>
        <time>2010-09-23T07:03:31Z</time>
      </trkpt>
      <trkpt lat="45.28346" lon="4.44761">
        <ele>1070</ele>
        <time>2010-09-23T07:04:12Z</time>
      </trkpt>
      <trkpt lat="45.28345" lon="4.44775">
        <ele>1072</ele>
        <time>2010-09-23T07:04:33Z</time>
      </trkpt>
      <trkpt lat="45.28345" lon="4.44789">
        <ele>1074</ele>
        <time>2010-09-23T07:04:46Z</time>
      </trkpt>
      <trkpt lat="45.28345" lon="4.44803">
        <ele>1075</ele>
        <time>2010-09-23T07:05:00Z</time>
      </trkpt>
      <trkpt lat="45.28346" lon="4.44816">
        <ele>1076</ele>
        <time>2010-09-23T07:05:13Z</time>
      </trkpt>
      <trkpt lat="45.28348" lon="4.44831">
        <ele>1077</ele>
        <time>2010-09-23T07:05:27Z</time>
      </trkpt>
      <trkpt lat="45.2835" lon="4.44844">
        <ele>1082</ele>
        <time>2010-09-23T07:05:44Z</time>
      </trkpt>
      <trkpt lat="45.2835" lon="4.44857">
        <ele>1083</ele>
        <time>2010-09-23T07:05:59Z</time>
      </trkpt>
      <trkpt lat="45.28351" lon="4.44871">
        <ele>1084</ele>
        <time>2010-09-23T07:06:17Z</time>
      </trkpt>
      <trkpt lat="45.28352" lon="4.44884">
        <ele>1085</ele>
        <time>2010-09-23T07:06:43Z</time>
      </trkpt>
      <trkpt lat="45.28353" lon="4.44898">
        <ele>1086</ele>
        <time>2010-09-23T07:06:56Z</time>
      </trkpt>
      <trkpt lat="45.28353" lon="4.44911">
        <ele>1086</ele>
        <time>2010-09-23T07:07:11Z</time>
      </trkpt>
      <trkpt lat="45.28359" lon="4.44921">
        <ele>1092</ele>
        <time>2010-09-23T07:07:31Z</time>
      </trkpt>
      <trkpt lat="45.2836" lon="4.44935">
        <ele>1093</ele>
        <time>2010-09-23T07:07:49Z</time>
      </trkpt>
      <trkpt lat="45.28362" lon="4.44948">
        <ele>1094</ele>
        <time>2010-09-23T07:08:02Z</time>
      </trkpt>
      <trkpt lat="45.2836" lon="4.44962">
        <ele>1095</ele>
        <time>2010-09-23T07:08:18Z</time>
      </trkpt>
      <trkpt lat="45.28357" lon="4.44974">
        <ele>1096</ele>
        <time>2010-09-23T07:08:37Z</time>
      </trkpt>
      <trkpt lat="45.28355" lon="4.44989">
        <ele>1097</ele>
        <time>2010-09-23T07:08:52Z</time>
      </trkpt>
      <trkpt lat="45.28348" lon="4.45001">
        <ele>1104</ele>
        <time>2010-09-23T07:09:08Z</time>
      </trkpt>
      <trkpt lat="45.28344" lon="4.45013">
        <ele>1105</ele>
        <time>2010-09-23T07:09:18Z</time>
      </trkpt>
      <trkpt lat="45.28337" lon="4.45024">
        <ele>1106</ele>
        <time>2010-09-23T07:09:31Z</time>
      </trkpt>
      <trkpt lat="45.28334" lon="4.45036">
        <ele>1108</ele>
        <time>2010-09-23T07:09:42Z</time>
      </trkpt>
      <trkpt lat="45.2833" lon="4.45049">
        <ele>1103</ele>
        <time>2010-09-23T07:09:49Z</time>
      </trkpt>
      <trkpt lat="45.28327" lon="4.45062">
        <ele>1106</ele>
        <time>2010-09-23T07:09:56Z</time>
      </trkpt>
      <trkpt lat="45.28325" lon="4.45076">
        <ele>1109</ele>
        <time>2010-09-23T07:10:04Z</time>
      </trkpt>
      <trkpt lat="45.2832" lon="4.45087">
        <ele>1113</ele>
        <time>2010-09-23T07:10:13Z</time>
      </trkpt>
      <trkpt lat="45.28315" lon="4.45099">
        <ele>1113</ele>
        <time>2010-09-23T07:10:24Z</time>
      </trkpt>
      <trkpt lat="45.28313" lon="4.45113">
        <ele>1113</ele>
        <time>2010-09-23T07:10:32Z</time>
      </trkpt>
      <trkpt lat="45.28308" lon="4.45125">
        <ele>1114</ele>
        <time>2010-09-23T07:10:43Z</time>
      </trkpt>
      <trkpt lat="45.28307" lon="4.45139">
        <ele>1115</ele>
        <time>2010-09-23T07:10:53Z</time>
      </trkpt>
      <trkpt lat="45.283" lon="4.45149">
        <ele>1115</ele>
        <time>2010-09-23T07:11:00Z</time>
      </trkpt>
      <trkpt lat="45.28293" lon="4.4516">
        <ele>1115</ele>
        <time>2010-09-23T07:11:08Z</time>
      </trkpt>
      <trkpt lat="45.28291" lon="4.45175">
        <ele>1122</ele>
        <time>2010-09-23T07:11:25Z</time>
      </trkpt>
      <trkpt lat="45.28287" lon="4.45187">
        <ele>1122</ele>
        <time>2010-09-23T07:11:35Z</time>
      </trkpt>
      <trkpt lat="45.28281" lon="4.45197">
        <ele>1122</ele>
        <time>2010-09-23T07:11:45Z</time>
      </trkpt>
      <trkpt lat="45.28277" lon="4.4521">
        <ele>1122</ele>
        <time>2010-09-23T07:11:56Z</time>
      </trkpt>
      <trkpt lat="45.28276" lon="4.45225">
        <ele>1123</ele>
        <time>2010-09-23T07:12:02Z</time>
      </trkpt>
      <trkpt lat="45.28268" lon="4.45234">
        <ele>1122</ele>
        <time>2010-09-23T07:12:13Z</time>
      </trkpt>
      <trkpt lat="45.28262" lon="4.45245">
        <ele>1121</ele>
        <time>2010-09-23T07:12:22Z</time>
      </trkpt>
      <trkpt lat="45.28257" lon="4.45257">
        <ele>1125</ele>
        <time>2010-09-23T07:12:32Z</time>
      </trkpt>
      <trkpt lat="45.28251" lon="4.45269">
        <ele>1127</ele>
        <time>2010-09-23T07:12:41Z</time>
      </trkpt>
      <trkpt lat="45.28247" lon="4.45281">
        <ele>1123</ele>
        <time>2010-09-23T07:12:51Z</time>
      </trkpt>
      <trkpt lat="45.28243" lon="4.45295">
        <ele>1124</ele>
        <time>2010-09-23T07:12:57Z</time>
      </trkpt>
      <trkpt lat="45.28241" lon="4.45308">
        <ele>1125</ele>
        <time>2010-09-23T07:13:06Z</time>
      </trkpt>
      <trkpt lat="45.2824" lon="4.45322">
        <ele>1127</ele>
        <time>2010-09-23T07:13:11Z</time>
      </trkpt>
      <trkpt lat="45.28238" lon="4.45335">
        <ele>1130</ele>
        <time>2010-09-23T07:13:21Z</time>
      </trkpt>
      <trkpt lat="45.28234" lon="4.45348">
        <ele>1130</ele>
        <time>2010-09-23T07:13:33Z</time>
      </trkpt>
      <trkpt lat="45.2823" lon="4.45361">
        <ele>1131</ele>
        <time>2010-09-23T07:13:45Z</time>
      </trkpt>
      <trkpt lat="45.28227" lon="4.45374">
        <ele>1131</ele>
        <time>2010-09-23T07:13:55Z</time>
      </trkpt>
      <trkpt lat="45.28225" lon="4.45387">
        <ele>1132</ele>
        <time>2010-09-23T07:14:07Z</time>
      </trkpt>
      <trkpt lat="45.28224" lon="4.45401">
        <ele>1133</ele>
        <time>2010-09-23T07:14:15Z</time>
      </trkpt>
      <trkpt lat="45.28221" lon="4.45414">
        <ele>1133</ele>
        <time>2010-09-23T07:14:24Z</time>
      </trkpt>
      <trkpt lat="45.28218" lon="4.45428">
        <ele>1137</ele>
        <time>2010-09-23T07:14:33Z</time>
      </trkpt>
      <trkpt lat="45.28216" lon="4.45441">
        <ele>1137</ele>
        <time>2010-09-23T07:14:42Z</time>
      </trkpt>
      <trkpt lat="45.28215" lon="4.45456">
        <ele>1137</ele>
        <time>2010-09-23T07:14:53Z</time>
      </trkpt>
      <trkpt lat="45.28216" lon="4.45469">
        <ele>1138</ele>
        <time>2010-09-23T07:15:03Z</time>
      </trkpt>
      <trkpt lat="45.28217" lon="4.45483">
        <ele>1139</ele>
        <time>2010-09-23T07:15:18Z</time>
      </trkpt>
      <trkpt lat="45.2822" lon="4.45495">
        <ele>1139</ele>
        <time>2010-09-23T07:15:27Z</time>
      </trkpt>
      <trkpt lat="45.2822" lon="4.4551">
        <ele>1143</ele>
        <time>2010-09-23T07:15:42Z</time>
      </trkpt>
      <trkpt lat="45.28222" lon="4.45523">
        <ele>1144</ele>
        <time>2010-09-23T07:16:00Z</time>
      </trkpt>
      <trkpt lat="45.28222" lon="4.45537">
        <ele>1144</ele>
        <time>2010-09-23T07:16:16Z</time>
      </trkpt>
      <trkpt lat="45.2822" lon="4.45553">
        <ele>1145</ele>
        <time>2010-09-23T07:16:23Z</time>
      </trkpt>
      <trkpt lat="45.28218" lon="4.45566">
        <ele>1145</ele>
        <time>2010-09-23T07:16:32Z</time>
      </trkpt>
      <trkpt lat="45.28216" lon="4.45579">
        <ele>1146</ele>
        <time>2010-09-23T07:16:40Z</time>
      </trkpt>
      <trkpt lat="45.28213" lon="4.45592">
        <ele>1151</ele>
        <time>2010-09-23T07:16:50Z</time>
      </trkpt>
      <trkpt lat="45.28211" lon="4.45605">
        <ele>1151</ele>
        <time>2010-09-23T07:17:00Z</time>
      </trkpt>
      <trkpt lat="45.28206" lon="4.45617">
        <ele>1151</ele>
        <time>2010-09-23T07:17:13Z</time>
      </trkpt>
      <trkpt lat="45.28203" lon="4.45629">
        <ele>1152</ele>
        <time>2010-09-23T07:17:20Z</time>
      </trkpt>
      <trkpt lat="45.28194" lon="4.45634">
        <ele>1152</ele>
        <time>2010-09-23T07:17:31Z</time>
      </trkpt>
      <trkpt lat="45.28185" lon="4.4564">
        <ele>1153</ele>
        <time>2010-09-23T07:17:41Z</time>
      </trkpt>
      <trkpt lat="45.2818" lon="4.45652">
        <ele>1154</ele>
        <time>2010-09-23T07:17:54Z</time>
      </trkpt>
      <trkpt lat="45.28173" lon="4.45661">
        <ele>1155</ele>
        <time>2010-09-23T07:18:16Z</time>
      </trkpt>
      <trkpt lat="45.28175" lon="4.45674">
        <ele>1159</ele>
        <time>2010-09-23T07:18:26Z</time>
      </trkpt>
      <trkpt lat="45.28177" lon="4.45688">
        <ele>1160</ele>
        <time>2010-09-23T07:18:39Z</time>
      </trkpt>
      <trkpt lat="45.2818" lon="4.457">
        <ele>1162</ele>
        <time>2010-09-23T07:18:57Z</time>
      </trkpt>
      <trkpt lat="45.28183" lon="4.45713">
        <ele>1163</ele>
        <time>2010-09-23T07:19:11Z</time>
      </trkpt>
      <trkpt lat="45.28186" lon="4.45726">
        <ele>1164</ele>
        <time>2010-09-23T07:19:23Z</time>
      </trkpt>
      <trkpt lat="45.28194" lon="4.45733">
        <ele>1165</ele>
        <time>2010-09-23T07:19:35Z</time>
      </trkpt>
      <trkpt lat="45.28201" lon="4.45744">
        <ele>1165</ele>
        <time>2010-09-23T07:19:49Z</time>
      </trkpt>
      <trkpt lat="45.28204" lon="4.45758">
        <ele>1172</ele>
        <time>2010-09-23T07:20:02Z</time>
      </trkpt>
      <trkpt lat="45.28204" lon="4.45771">
        <ele>1173</ele>
        <time>2010-09-23T07:20:23Z</time>
      </trkpt>
      <trkpt lat="45.28203" lon="4.45785">
        <ele>1173</ele>
        <time>2010-09-23T07:20:40Z</time>
      </trkpt>
      <trkpt lat="45.282" lon="4.45797">
        <ele>1174</ele>
        <time>2010-09-23T07:20:54Z</time>
      </trkpt>
      <trkpt lat="45.28191" lon="4.45802">
        <ele>1174</ele>
        <time>2010-09-23T07:21:07Z</time>
      </trkpt>
      <trkpt lat="45.28181" lon="4.45805">
        <ele>1175</ele>
        <time>2010-09-23T07:21:19Z</time>
      </trkpt>
      <trkpt lat="45.28173" lon="4.45811">
        <ele>1175</ele>
        <time>2010-09-23T07:21:31Z</time>
      </trkpt>
      <trkpt lat="45.28164" lon="4.45816">
        <ele>1176</ele>
        <time>2010-09-23T07:21:38Z</time>
      </trkpt>
      <trkpt lat="45.28156" lon="4.45822">
        <ele>1176</ele>
        <time>2010-09-23T07:21:48Z</time>
      </trkpt>
      <trkpt lat="45.28147" lon="4.45829">
        <ele>1176</ele>
        <time>2010-09-23T07:21:56Z</time>
      </trkpt>
      <trkpt lat="45.28139" lon="4.45836">
        <ele>1182</ele>
        <time>2010-09-23T07:22:06Z</time>
      </trkpt>
      <trkpt lat="45.28131" lon="4.45845">
        <ele>1183</ele>
        <time>2010-09-23T07:22:16Z</time>
      </trkpt>
      <trkpt lat="45.28124" lon="4.45854">
        <ele>1184</ele>
        <time>2010-09-23T07:22:27Z</time>
      </trkpt>
      <trkpt lat="45.28116" lon="4.45862">
        <ele>1184</ele>
        <time>2010-09-23T07:22:37Z</time>
      </trkpt>
      <trkpt lat="45.28108" lon="4.4587">
        <ele>1185</ele>
        <time>2010-09-23T07:22:49Z</time>
      </trkpt>
      <trkpt lat="45.281" lon="4.45878">
        <ele>1185</ele>
        <time>2010-09-23T07:22:58Z</time>
      </trkpt>
      <trkpt lat="45.28091" lon="4.45883">
        <ele>1186</ele>
        <time>2010-09-23T07:23:05Z</time>
      </trkpt>
      <trkpt lat="45.28083" lon="4.45891">
        <ele>1187</ele>
        <time>2010-09-23T07:23:13Z</time>
      </trkpt>
      <trkpt lat="45.28074" lon="4.45896">
        <ele>1188</ele>
        <time>2010-09-23T07:23:22Z</time>
      </trkpt>
      <trkpt lat="45.28066" lon="4.45905">
        <ele>1188</ele>
        <time>2010-09-23T07:23:33Z</time>
      </trkpt>
      <trkpt lat="45.2806" lon="4.45916">
        <ele>1188</ele>
        <time>2010-09-23T07:23:43Z</time>
      </trkpt>
      <trkpt lat="45.28052" lon="4.45922">
        <ele>1193</ele>
        <time>2010-09-23T07:23:52Z</time>
      </trkpt>
      <trkpt lat="45.28045" lon="4.45931">
        <ele>1193</ele>
        <time>2010-09-23T07:24:02Z</time>
      </trkpt>
      <trkpt lat="45.28037" lon="4.4594">
        <ele>1194</ele>
        <time>2010-09-23T07:24:13Z</time>
      </trkpt>
      <trkpt lat="45.28029" lon="4.45948">
        <ele>1194</ele>
        <time>2010-09-23T07:24:21Z</time>
      </trkpt>
      <trkpt lat="45.28021" lon="4.45954">
        <ele>1194</ele>
        <time>2010-09-23T07:24:30Z</time>
      </trkpt>
      <trkpt lat="45.28012" lon="4.4596">
        <ele>1194</ele>
        <time>2010-09-23T07:24:40Z</time>
      </trkpt>
      <trkpt lat="45.28004" lon="4.45968">
        <ele>1195</ele>
        <time>2010-09-23T07:24:48Z</time>
      </trkpt>
      <trkpt lat="45.27995" lon="4.45976">
        <ele>1195</ele>
        <time>2010-09-23T07:24:58Z</time>
      </trkpt>
      <trkpt lat="45.27986" lon="4.45979">
        <ele>1195</ele>
        <time>2010-09-23T07:25:08Z</time>
      </trkpt>
      <trkpt lat="45.27977" lon="4.45988">
        <ele>1195</ele>
        <time>2010-09-23T07:25:18Z</time>
      </trkpt>
      <trkpt lat="45.27969" lon="4.45996">
        <ele>1195</ele>
        <time>2010-09-23T07:25:23Z</time>
      </trkpt>
      <trkpt lat="45.2796" lon="4.45996">
        <ele>1195</ele>
        <time>2010-09-23T07:25:30Z</time>
      </trkpt>
      <trkpt lat="45.27952" lon="4.46004">
        <ele>1198</ele>
        <time>2010-09-23T07:25:44Z</time>
      </trkpt>
      <trkpt lat="45.27946" lon="4.46016">
        <ele>1198</ele>
        <time>2010-09-23T07:25:55Z</time>
      </trkpt>
      <trkpt lat="45.27938" lon="4.46026">
        <ele>1198</ele>
        <time>2010-09-23T07:26:03Z</time>
      </trkpt>
      <trkpt lat="45.2793" lon="4.46035">
        <ele>1198</ele>
        <time>2010-09-23T07:26:11Z</time>
      </trkpt>
      <trkpt lat="45.27923" lon="4.46047">
        <ele>1198</ele>
        <time>2010-09-23T07:26:18Z</time>
      </trkpt>
      <trkpt lat="45.27917" lon="4.46058">
        <ele>1198</ele>
        <time>2010-09-23T07:26:27Z</time>
      </trkpt>
      <trkpt lat="45.27911" lon="4.46068">
        <ele>1197</ele>
        <time>2010-09-23T07:26:35Z</time>
      </trkpt>
      <trkpt lat="45.27904" lon="4.46077">
        <ele>1197</ele>
        <time>2010-09-23T07:26:44Z</time>
      </trkpt>
      <trkpt lat="45.27897" lon="4.46086">
        <ele>1200</ele>
        <time>2010-09-23T07:26:54Z</time>
      </trkpt>
      <trkpt lat="45.27889" lon="4.46094">
        <ele>1200</ele>
        <time>2010-09-23T07:27:05Z</time>
      </trkpt>
      <trkpt lat="45.27881" lon="4.46103">
        <ele>1200</ele>
        <time>2010-09-23T07:27:18Z</time>
      </trkpt>
      <trkpt lat="45.27871" lon="4.46109">
        <ele>1201</ele>
        <time>2010-09-23T07:27:28Z</time>
      </trkpt>
      <trkpt lat="45.27861" lon="4.46111">
        <ele>1201</ele>
        <time>2010-09-23T07:27:35Z</time>
      </trkpt>
      <trkpt lat="45.27852" lon="4.46114">
        <ele>1201</ele>
        <time>2010-09-23T07:27:41Z</time>
      </trkpt>
      <trkpt lat="45.27843" lon="4.46116">
        <ele>1201</ele>
        <time>2010-09-23T07:27:49Z</time>
      </trkpt>
      <trkpt lat="45.27833" lon="4.46119">
        <ele>1201</ele>
        <time>2010-09-23T07:27:57Z</time>
      </trkpt>
      <trkpt lat="45.27824" lon="4.46122">
        <ele>1201</ele>
        <time>2010-09-23T07:28:05Z</time>
      </trkpt>
      <trkpt lat="45.27815" lon="4.46128">
        <ele>1202</ele>
        <time>2010-09-23T07:28:19Z</time>
      </trkpt>
      <trkpt lat="45.27818" lon="4.46141">
        <ele>1203</ele>
        <time>2010-09-23T07:31:36Z</time>
      </trkpt>
      <trkpt lat="45.27827" lon="4.46146">
        <ele>1203</ele>
        <time>2010-09-23T07:31:45Z</time>
      </trkpt>
      <trkpt lat="45.27836" lon="4.46149">
        <ele>1204</ele>
        <time>2010-09-23T07:31:56Z</time>
      </trkpt>
      <trkpt lat="45.27846" lon="4.46151">
        <ele>1203</ele>
        <time>2010-09-23T07:32:09Z</time>
      </trkpt>
      <trkpt lat="45.27855" lon="4.46156">
        <ele>1203</ele>
        <time>2010-09-23T07:32:20Z</time>
      </trkpt>
      <trkpt lat="45.27863" lon="4.46163">
        <ele>1203</ele>
        <time>2010-09-23T07:32:30Z</time>
      </trkpt>
      <trkpt lat="45.27872" lon="4.46167">
        <ele>1209</ele>
        <time>2010-09-23T07:32:41Z</time>
      </trkpt>
      <trkpt lat="45.27881" lon="4.46173">
        <ele>1209</ele>
        <time>2010-09-23T07:32:52Z</time>
      </trkpt>
      <trkpt lat="45.27889" lon="4.4618">
        <ele>1209</ele>
        <time>2010-09-23T07:33:03Z</time>
      </trkpt>
      <trkpt lat="45.27897" lon="4.46186">
        <ele>1209</ele>
        <time>2010-09-23T07:33:13Z</time>
      </trkpt>
      <trkpt lat="45.27906" lon="4.46192">
        <ele>1209</ele>
        <time>2010-09-23T07:33:23Z</time>
      </trkpt>
      <trkpt lat="45.27915" lon="4.46196">
        <ele>1210</ele>
        <time>2010-09-23T07:33:32Z</time>
      </trkpt>
      <trkpt lat="45.27925" lon="4.46196">
        <ele>1213</ele>
        <time>2010-09-23T07:33:42Z</time>
      </trkpt>
      <trkpt lat="45.27934" lon="4.46192">
        <ele>1213</ele>
        <time>2010-09-23T07:33:54Z</time>
      </trkpt>
      <trkpt lat="45.27942" lon="4.46186">
        <ele>1213</ele>
        <time>2010-09-23T07:34:05Z</time>
      </trkpt>
      <trkpt lat="45.27951" lon="4.46179">
        <ele>1213</ele>
        <time>2010-09-23T07:34:17Z</time>
      </trkpt>
      <trkpt lat="45.2796" lon="4.46174">
        <ele>1214</ele>
        <time>2010-09-23T07:34:27Z</time>
      </trkpt>
      <trkpt lat="45.27969" lon="4.46167">
        <ele>1215</ele>
        <time>2010-09-23T07:34:37Z</time>
      </trkpt>
      <trkpt lat="45.27977" lon="4.46161">
        <ele>1210</ele>
        <time>2010-09-23T07:34:46Z</time>
      </trkpt>
      <trkpt lat="45.27986" lon="4.46155">
        <ele>1211</ele>
        <time>2010-09-23T07:34:56Z</time>
      </trkpt>
      <trkpt lat="45.27995" lon="4.46149">
        <ele>1211</ele>
        <time>2010-09-23T07:35:06Z</time>
      </trkpt>
      <trkpt lat="45.28004" lon="4.46145">
        <ele>1214</ele>
        <time>2010-09-23T07:35:16Z</time>
      </trkpt>
      <trkpt lat="45.28014" lon="4.46143">
        <ele>1214</ele>
        <time>2010-09-23T07:35:25Z</time>
      </trkpt>
      <trkpt lat="45.28023" lon="4.46138">
        <ele>1214</ele>
        <time>2010-09-23T07:35:34Z</time>
      </trkpt>
      <trkpt lat="45.28033" lon="4.46138">
        <ele>1214</ele>
        <time>2010-09-23T07:35:44Z</time>
      </trkpt>
      <trkpt lat="45.28043" lon="4.46139">
        <ele>1214</ele>
        <time>2010-09-23T07:35:55Z</time>
      </trkpt>
      <trkpt lat="45.28053" lon="4.46143">
        <ele>1215</ele>
        <time>2010-09-23T07:36:04Z</time>
      </trkpt>
      <trkpt lat="45.28063" lon="4.46143">
        <ele>1215</ele>
        <time>2010-09-23T07:36:16Z</time>
      </trkpt>
      <trkpt lat="45.28073" lon="4.46143">
        <ele>1216</ele>
        <time>2010-09-23T07:36:26Z</time>
      </trkpt>
      <trkpt lat="45.28081" lon="4.46147">
        <ele>1217</ele>
        <time>2010-09-23T07:36:36Z</time>
      </trkpt>
      <trkpt lat="45.28092" lon="4.4615">
        <ele>1219</ele>
        <time>2010-09-23T07:36:46Z</time>
      </trkpt>
      <trkpt lat="45.28102" lon="4.46153">
        <ele>1219</ele>
        <time>2010-09-23T07:36:55Z</time>
      </trkpt>
      <trkpt lat="45.28111" lon="4.46156">
        <ele>1219</ele>
        <time>2010-09-23T07:37:04Z</time>
      </trkpt>
      <trkpt lat="45.2812" lon="4.46159">
        <ele>1219</ele>
        <time>2010-09-23T07:37:14Z</time>
      </trkpt>
      <trkpt lat="45.2813" lon="4.46161">
        <ele>1219</ele>
        <time>2010-09-23T07:37:26Z</time>
      </trkpt>
      <trkpt lat="45.28139" lon="4.46164">
        <ele>1220</ele>
        <time>2010-09-23T07:37:38Z</time>
      </trkpt>
      <trkpt lat="45.28148" lon="4.46167">
        <ele>1224</ele>
        <time>2010-09-23T07:37:46Z</time>
      </trkpt>
      <trkpt lat="45.28157" lon="4.46173">
        <ele>1224</ele>
        <time>2010-09-23T07:37:56Z</time>
      </trkpt>
      <trkpt lat="45.28166" lon="4.46179">
        <ele>1224</ele>
        <time>2010-09-23T07:38:07Z</time>
      </trkpt>
      <trkpt lat="45.28174" lon="4.46185">
        <ele>1224</ele>
        <time>2010-09-23T07:38:18Z</time>
      </trkpt>
      <trkpt lat="45.28183" lon="4.46192">
        <ele>1225</ele>
        <time>2010-09-23T07:38:27Z</time>
      </trkpt>
      <trkpt lat="45.28192" lon="4.462">
        <ele>1225</ele>
        <time>2010-09-23T07:38:37Z</time>
      </trkpt>
      <trkpt lat="45.28199" lon="4.46209">
        <ele>1225</ele>
        <time>2010-09-23T07:38:49Z</time>
      </trkpt>
      <trkpt lat="45.28206" lon="4.46218">
        <ele>1225</ele>
        <time>2010-09-23T07:39:00Z</time>
      </trkpt>
      <trkpt lat="45.28213" lon="4.46228">
        <ele>1226</ele>
        <time>2010-09-23T07:39:11Z</time>
      </trkpt>
      <trkpt lat="45.28218" lon="4.4624">
        <ele>1226</ele>
        <time>2010-09-23T07:39:22Z</time>
      </trkpt>
      <trkpt lat="45.28225" lon="4.46251">
        <ele>1230</ele>
        <time>2010-09-23T07:39:33Z</time>
      </trkpt>
      <trkpt lat="45.28232" lon="4.46261">
        <ele>1230</ele>
        <time>2010-09-23T07:39:43Z</time>
      </trkpt>
      <trkpt lat="45.28238" lon="4.46271">
        <ele>1231</ele>
        <time>2010-09-23T07:39:54Z</time>
      </trkpt>
      <trkpt lat="45.28245" lon="4.46282">
        <ele>1231</ele>
        <time>2010-09-23T07:40:05Z</time>
      </trkpt>
      <trkpt lat="45.28251" lon="4.46294">
        <ele>1231</ele>
        <time>2010-09-23T07:40:15Z</time>
      </trkpt>
      <trkpt lat="45.28256" lon="4.46306">
        <ele>1232</ele>
        <time>2010-09-23T07:40:25Z</time>
      </trkpt>
      <trkpt lat="45.28261" lon="4.46318">
        <ele>1233</ele>
        <time>2010-09-23T07:40:35Z</time>
      </trkpt>
      <trkpt lat="45.28265" lon="4.46331">
        <ele>1233</ele>
        <time>2010-09-23T07:40:45Z</time>
      </trkpt>
      <trkpt lat="45.28268" lon="4.46343">
        <ele>1236</ele>
        <time>2010-09-23T07:40:54Z</time>
      </trkpt>
      <trkpt lat="45.28272" lon="4.46357">
        <ele>1236</ele>
        <time>2010-09-23T07:41:04Z</time>
      </trkpt>
      <trkpt lat="45.28275" lon="4.4637">
        <ele>1237</ele>
        <time>2010-09-23T07:41:13Z</time>
      </trkpt>
      <trkpt lat="45.28278" lon="4.46383">
        <ele>1237</ele>
        <time>2010-09-23T07:41:23Z</time>
      </trkpt>
      <trkpt lat="45.28281" lon="4.46395">
        <ele>1238</ele>
        <time>2010-09-23T07:41:32Z</time>
      </trkpt>
      <trkpt lat="45.28284" lon="4.46411">
        <ele>1238</ele>
        <time>2010-09-23T07:41:42Z</time>
      </trkpt>
      <trkpt lat="45.28284" lon="4.46425">
        <ele>1240</ele>
        <time>2010-09-23T07:41:51Z</time>
      </trkpt>
      <trkpt lat="45.28282" lon="4.46439">
        <ele>1240</ele>
        <time>2010-09-23T07:42:01Z</time>
      </trkpt>
      <trkpt lat="45.2828" lon="4.46454">
        <ele>1241</ele>
        <time>2010-09-23T07:42:11Z</time>
      </trkpt>
      <trkpt lat="45.2828" lon="4.46467">
        <ele>1241</ele>
        <time>2010-09-23T07:42:22Z</time>
      </trkpt>
      <trkpt lat="45.28287" lon="4.46476">
        <ele>1241</ele>
        <time>2010-09-23T07:42:31Z</time>
      </trkpt>
      <trkpt lat="45.28296" lon="4.46482">
        <ele>1241</ele>
        <time>2010-09-23T07:42:40Z</time>
      </trkpt>
      <trkpt lat="45.28305" lon="4.46483">
        <ele>1241</ele>
        <time>2010-09-23T07:42:49Z</time>
      </trkpt>
      <trkpt lat="45.28315" lon="4.46483">
        <ele>1242</ele>
        <time>2010-09-23T07:42:58Z</time>
      </trkpt>
      <trkpt lat="45.28326" lon="4.46482">
        <ele>1242</ele>
        <time>2010-09-23T07:43:09Z</time>
      </trkpt>
      <trkpt lat="45.28335" lon="4.46478">
        <ele>1243</ele>
        <time>2010-09-23T07:43:20Z</time>
      </trkpt>
      <trkpt lat="45.28345" lon="4.46476">
        <ele>1244</ele>
        <time>2010-09-23T07:43:33Z</time>
      </trkpt>
      <trkpt lat="45.28355" lon="4.46475">
        <ele>1244</ele>
        <time>2010-09-23T07:43:44Z</time>
      </trkpt>
      <trkpt lat="45.28365" lon="4.46474">
        <ele>1244</ele>
        <time>2010-09-23T07:43:55Z</time>
      </trkpt>
      <trkpt lat="45.28374" lon="4.46477">
        <ele>1245</ele>
        <time>2010-09-23T07:44:07Z</time>
      </trkpt>
      <trkpt lat="45.28384" lon="4.46477">
        <ele>1245</ele>
        <time>2010-09-23T07:44:17Z</time>
      </trkpt>
      <trkpt lat="45.28393" lon="4.46478">
        <ele>1246</ele>
        <time>2010-09-23T07:44:29Z</time>
      </trkpt>
      <trkpt lat="45.28403" lon="4.46479">
        <ele>1246</ele>
        <time>2010-09-23T07:44:40Z</time>
      </trkpt>
      <trkpt lat="45.28412" lon="4.46477">
        <ele>1247</ele>
        <time>2010-09-23T07:44:50Z</time>
      </trkpt>
      <trkpt lat="45.28423" lon="4.46476">
        <ele>1249</ele>
        <time>2010-09-23T07:45:01Z</time>
      </trkpt>
      <trkpt lat="45.28432" lon="4.46475">
        <ele>1249</ele>
        <time>2010-09-23T07:45:12Z</time>
      </trkpt>
      <trkpt lat="45.28442" lon="4.46475">
        <ele>1249</ele>
        <time>2010-09-23T07:45:23Z</time>
      </trkpt>
      <trkpt lat="45.28451" lon="4.46477">
        <ele>1249</ele>
        <time>2010-09-23T07:45:32Z</time>
      </trkpt>
      <trkpt lat="45.28461" lon="4.46478">
        <ele>1249</ele>
        <time>2010-09-23T07:45:41Z</time>
      </trkpt>
      <trkpt lat="45.28471" lon="4.4648">
        <ele>1249</ele>
        <time>2010-09-23T07:45:50Z</time>
      </trkpt>
      <trkpt lat="45.2848" lon="4.46482">
        <ele>1249</ele>
        <time>2010-09-23T07:45:58Z</time>
      </trkpt>
      <trkpt lat="45.2849" lon="4.46484">
        <ele>1250</ele>
        <time>2010-09-23T07:46:07Z</time>
      </trkpt>
      <trkpt lat="45.28499" lon="4.46488">
        <ele>1250</ele>
        <time>2010-09-23T07:46:15Z</time>
      </trkpt>
      <trkpt lat="45.28508" lon="4.46494">
        <ele>1250</ele>
        <time>2010-09-23T07:47:49Z</time>
      </trkpt>
      <trkpt lat="45.28515" lon="4.46504">
        <ele>1252</ele>
        <time>2010-09-23T07:48:04Z</time>
      </trkpt>
      <trkpt lat="45.28519" lon="4.46516">
        <ele>1253</ele>
        <time>2010-09-23T07:48:19Z</time>
      </trkpt>
      <trkpt lat="45.28523" lon="4.46528">
        <ele>1254</ele>
        <time>2010-09-23T07:48:30Z</time>
      </trkpt>
      <trkpt lat="45.28526" lon="4.46541">
        <ele>1254</ele>
        <time>2010-09-23T07:48:39Z</time>
      </trkpt>
      <trkpt lat="45.28527" lon="4.46554">
        <ele>1254</ele>
        <time>2010-09-23T07:48:53Z</time>
      </trkpt>
      <trkpt lat="45.28528" lon="4.46568">
        <ele>1255</ele>
        <time>2010-09-23T07:49:03Z</time>
      </trkpt>
      <trkpt lat="45.28526" lon="4.4658">
        <ele>1255</ele>
        <time>2010-09-23T07:49:11Z</time>
      </trkpt>
      <trkpt lat="45.28527" lon="4.46594">
        <ele>1258</ele>
        <time>2010-09-23T07:49:22Z</time>
      </trkpt>
      <trkpt lat="45.2853" lon="4.46606">
        <ele>1259</ele>
        <time>2010-09-23T07:49:29Z</time>
      </trkpt>
      <trkpt lat="45.28527" lon="4.46621">
        <ele>1259</ele>
        <time>2010-09-23T07:49:36Z</time>
      </trkpt>
      <trkpt lat="45.28524" lon="4.46634">
        <ele>1259</ele>
        <time>2010-09-23T07:49:45Z</time>
      </trkpt>
      <trkpt lat="45.28523" lon="4.46648">
        <ele>1260</ele>
        <time>2010-09-23T07:49:54Z</time>
      </trkpt>
      <trkpt lat="45.28522" lon="4.46662">
        <ele>1260</ele>
        <time>2010-09-23T07:50:04Z</time>
      </trkpt>
      <trkpt lat="45.28523" lon="4.46677">
        <ele>1263</ele>
        <time>2010-09-23T07:50:12Z</time>
      </trkpt>
      <trkpt lat="45.28521" lon="4.46689">
        <ele>1263</ele>
        <time>2010-09-23T07:50:21Z</time>
      </trkpt>
      <trkpt lat="45.2852" lon="4.46703">
        <ele>1263</ele>
        <time>2010-09-23T07:50:29Z</time>
      </trkpt>
      <trkpt lat="45.28516" lon="4.46716">
        <ele>1263</ele>
        <time>2010-09-23T07:50:37Z</time>
      </trkpt>
      <trkpt lat="45.28518" lon="4.4673">
        <ele>1264</ele>
        <time>2010-09-23T07:50:46Z</time>
      </trkpt>
      <trkpt lat="45.28518" lon="4.46744">
        <ele>1264</ele>
        <time>2010-09-23T07:50:54Z</time>
      </trkpt>
      <trkpt lat="45.28516" lon="4.46758">
        <ele>1266</ele>
        <time>2010-09-23T07:51:05Z</time>
      </trkpt>
      <trkpt lat="45.28513" lon="4.46771">
        <ele>1266</ele>
        <time>2010-09-23T07:51:12Z</time>
      </trkpt>
      <trkpt lat="45.28513" lon="4.46784">
        <ele>1267</ele>
        <time>2010-09-23T07:51:21Z</time>
      </trkpt>
      <trkpt lat="45.28512" lon="4.46799">
        <ele>1267</ele>
        <time>2010-09-23T07:51:30Z</time>
      </trkpt>
      <trkpt lat="45.28509" lon="4.46811">
        <ele>1268</ele>
        <time>2010-09-23T07:51:38Z</time>
      </trkpt>
      <trkpt lat="45.28509" lon="4.46825">
        <ele>1268</ele>
        <time>2010-09-23T07:51:45Z</time>
      </trkpt>
      <trkpt lat="45.28508" lon="4.46839">
        <ele>1268</ele>
        <time>2010-09-23T07:51:55Z</time>
      </trkpt>
      <trkpt lat="45.28507" lon="4.46853">
        <ele>1269</ele>
        <time>2010-09-23T07:52:03Z</time>
      </trkpt>
      <trkpt lat="45.28508" lon="4.46867">
        <ele>1269</ele>
        <time>2010-09-23T07:52:14Z</time>
      </trkpt>
      <trkpt lat="45.28509" lon="4.4688">
        <ele>1269</ele>
        <time>2010-09-23T07:52:20Z</time>
      </trkpt>
      <trkpt lat="45.28509" lon="4.46895">
        <ele>1269</ele>
        <time>2010-09-23T07:52:26Z</time>
      </trkpt>
      <trkpt lat="45.28508" lon="4.4691">
        <ele>1268</ele>
        <time>2010-09-23T07:52:36Z</time>
      </trkpt>
      <trkpt lat="45.2851" lon="4.46923">
        <ele>1267</ele>
        <time>2010-09-23T07:52:44Z</time>
      </trkpt>
      <trkpt lat="45.28513" lon="4.46935">
        <ele>1268</ele>
        <time>2010-09-23T07:52:52Z</time>
      </trkpt>
      <trkpt lat="45.28515" lon="4.46949">
        <ele>1268</ele>
        <time>2010-09-23T07:53:00Z</time>
      </trkpt>
      <trkpt lat="45.28518" lon="4.46961">
        <ele>1268</ele>
        <time>2010-09-23T07:53:09Z</time>
      </trkpt>
      <trkpt lat="45.28523" lon="4.46973">
        <ele>1268</ele>
        <time>2010-09-23T07:53:18Z</time>
      </trkpt>
      <trkpt lat="45.28528" lon="4.46986">
        <ele>1268</ele>
        <time>2010-09-23T07:53:28Z</time>
      </trkpt>
      <trkpt lat="45.28532" lon="4.46999">
        <ele>1268</ele>
        <time>2010-09-23T07:53:37Z</time>
      </trkpt>
      <trkpt lat="45.28535" lon="4.47013">
        <ele>1266</ele>
        <time>2010-09-23T07:53:46Z</time>
      </trkpt>
      <trkpt lat="45.2854" lon="4.47025">
        <ele>1266</ele>
        <time>2010-09-23T07:53:56Z</time>
      </trkpt>
      <trkpt lat="45.28544" lon="4.47037">
        <ele>1266</ele>
        <time>2010-09-23T07:54:05Z</time>
      </trkpt>
      <trkpt lat="45.28548" lon="4.4705">
        <ele>1266</ele>
        <time>2010-09-23T07:54:15Z</time>
      </trkpt>
      <trkpt lat="45.28552" lon="4.47062">
        <ele>1267</ele>
        <time>2010-09-23T07:54:24Z</time>
      </trkpt>
      <trkpt lat="45.28557" lon="4.47075">
        <ele>1267</ele>
        <time>2010-09-23T07:54:35Z</time>
      </trkpt>
      <trkpt lat="45.28561" lon="4.47089">
        <ele>1266</ele>
        <time>2010-09-23T07:54:46Z</time>
      </trkpt>
      <trkpt lat="45.28567" lon="4.47101">
        <ele>1266</ele>
        <time>2010-09-23T07:54:56Z</time>
      </trkpt>
      <trkpt lat="45.28571" lon="4.47112">
        <ele>1265</ele>
        <time>2010-09-23T07:55:06Z</time>
      </trkpt>
      <trkpt lat="45.28575" lon="4.47125">
        <ele>1265</ele>
        <time>2010-09-23T07:55:17Z</time>
      </trkpt>
      <trkpt lat="45.28581" lon="4.47137">
        <ele>1265</ele>
        <time>2010-09-23T07:55:26Z</time>
      </trkpt>
      <trkpt lat="45.28586" lon="4.47149">
        <ele>1272</ele>
        <time>2010-09-23T07:55:33Z</time>
      </trkpt>
      <trkpt lat="45.28591" lon="4.47161">
        <ele>1271</ele>
        <time>2010-09-23T07:55:41Z</time>
      </trkpt>
      <trkpt lat="45.28597" lon="4.47171">
        <ele>1270</ele>
        <time>2010-09-23T07:55:49Z</time>
      </trkpt>
      <trkpt lat="45.286" lon="4.47184">
        <ele>1270</ele>
        <time>2010-09-23T07:55:59Z</time>
      </trkpt>
      <trkpt lat="45.28605" lon="4.47197">
        <ele>1270</ele>
        <time>2010-09-23T07:56:07Z</time>
      </trkpt>
      <trkpt lat="45.2861" lon="4.47209">
        <ele>1270</ele>
        <time>2010-09-23T07:56:16Z</time>
      </trkpt>
      <trkpt lat="45.28617" lon="4.47218">
        <ele>1270</ele>
        <time>2010-09-23T07:56:25Z</time>
      </trkpt>
      <trkpt lat="45.28624" lon="4.47229">
        <ele>1270</ele>
        <time>2010-09-23T07:56:34Z</time>
      </trkpt>
      <trkpt lat="45.2863" lon="4.47239">
        <ele>1270</ele>
        <time>2010-09-23T07:56:43Z</time>
      </trkpt>
      <trkpt lat="45.28636" lon="4.4725">
        <ele>1270</ele>
        <time>2010-09-23T07:56:51Z</time>
      </trkpt>
      <trkpt lat="45.28643" lon="4.47259">
        <ele>1266</ele>
        <time>2010-09-23T07:56:58Z</time>
      </trkpt>
      <trkpt lat="45.28651" lon="4.47269">
        <ele>1266</ele>
        <time>2010-09-23T07:57:07Z</time>
      </trkpt>
      <trkpt lat="45.28657" lon="4.47278">
        <ele>1265</ele>
        <time>2010-09-23T07:57:15Z</time>
      </trkpt>
      <trkpt lat="45.28665" lon="4.47287">
        <ele>1265</ele>
        <time>2010-09-23T07:57:25Z</time>
      </trkpt>
      <trkpt lat="45.28673" lon="4.47296">
        <ele>1268</ele>
        <time>2010-09-23T07:57:34Z</time>
      </trkpt>
      <trkpt lat="45.28681" lon="4.47303">
        <ele>1268</ele>
        <time>2010-09-23T07:57:43Z</time>
      </trkpt>
      <trkpt lat="45.2869" lon="4.4731">
        <ele>1267</ele>
        <time>2010-09-23T07:57:52Z</time>
      </trkpt>
      <trkpt lat="45.28698" lon="4.47317">
        <ele>1267</ele>
        <time>2010-09-23T07:58:03Z</time>
      </trkpt>
      <trkpt lat="45.28707" lon="4.47323">
        <ele>1267</ele>
        <time>2010-09-23T07:58:14Z</time>
      </trkpt>
      <trkpt lat="45.28715" lon="4.47331">
        <ele>1267</ele>
        <time>2010-09-23T07:58:25Z</time>
      </trkpt>
      <trkpt lat="45.28724" lon="4.47338">
        <ele>1262</ele>
        <time>2010-09-23T07:58:34Z</time>
      </trkpt>
      <trkpt lat="45.28733" lon="4.47342">
        <ele>1263</ele>
        <time>2010-09-23T07:58:47Z</time>
      </trkpt>
      <trkpt lat="45.28742" lon="4.47348">
        <ele>1263</ele>
        <time>2010-09-23T07:59:01Z</time>
      </trkpt>
      <trkpt lat="45.28752" lon="4.47352">
        <ele>1263</ele>
        <time>2010-09-23T07:59:32Z</time>
      </trkpt>
      <trkpt lat="45.28762" lon="4.47356">
        <ele>1263</ele>
        <time>2010-09-23T07:59:46Z</time>
      </trkpt>
      <trkpt lat="45.28771" lon="4.4736">
        <ele>1262</ele>
        <time>2010-09-23T07:59:56Z</time>
      </trkpt>
      <trkpt lat="45.2878" lon="4.47363">
        <ele>1262</ele>
        <time>2010-09-23T08:00:07Z</time>
      </trkpt>
      <trkpt lat="45.2879" lon="4.47367">
        <ele>1262</ele>
        <time>2010-09-23T08:00:15Z</time>
      </trkpt>
      <trkpt lat="45.28799" lon="4.47371">
        <ele>1262</ele>
        <time>2010-09-23T08:00:22Z</time>
      </trkpt>
      <trkpt lat="45.28809" lon="4.47373">
        <ele>1261</ele>
        <time>2010-09-23T08:00:30Z</time>
      </trkpt>
      <trkpt lat="45.28819" lon="4.47375">
        <ele>1261</ele>
        <time>2010-09-23T08:00:39Z</time>
      </trkpt>
      <trkpt lat="45.28828" lon="4.47381">
        <ele>1261</ele>
        <time>2010-09-23T08:00:48Z</time>
      </trkpt>
      <trkpt lat="45.28836" lon="4.4739">
        <ele>1261</ele>
        <time>2010-09-23T08:00:56Z</time>
      </trkpt>
      <trkpt lat="45.28844" lon="4.47399">
        <ele>1261</ele>
        <time>2010-09-23T08:01:06Z</time>
      </trkpt>
      <trkpt lat="45.28851" lon="4.47408">
        <ele>1260</ele>
        <time>2010-09-23T08:01:17Z</time>
      </trkpt>
      <trkpt lat="45.28858" lon="4.47419">
        <ele>1257</ele>
        <time>2010-09-23T08:01:26Z</time>
      </trkpt>
      <trkpt lat="45.28862" lon="4.47431">
        <ele>1257</ele>
        <time>2010-09-23T08:01:36Z</time>
      </trkpt>
      <trkpt lat="45.28868" lon="4.47443">
        <ele>1257</ele>
        <time>2010-09-23T08:01:45Z</time>
      </trkpt>
      <trkpt lat="45.28874" lon="4.47454">
        <ele>1257</ele>
        <time>2010-09-23T08:01:54Z</time>
      </trkpt>
      <trkpt lat="45.2888" lon="4.47465">
        <ele>1256</ele>
        <time>2010-09-23T08:02:04Z</time>
      </trkpt>
      <trkpt lat="45.28885" lon="4.47477">
        <ele>1256</ele>
        <time>2010-09-23T08:02:13Z</time>
      </trkpt>
      <trkpt lat="45.28891" lon="4.4749">
        <ele>1257</ele>
        <time>2010-09-23T08:02:23Z</time>
      </trkpt>
      <trkpt lat="45.28896" lon="4.47501">
        <ele>1255</ele>
        <time>2010-09-23T08:02:32Z</time>
      </trkpt>
      <trkpt lat="45.28901" lon="4.47513">
        <ele>1255</ele>
        <time>2010-09-23T08:02:42Z</time>
      </trkpt>
      <trkpt lat="45.28906" lon="4.47525">
        <ele>1254</ele>
        <time>2010-09-23T08:02:51Z</time>
      </trkpt>
      <trkpt lat="45.2891" lon="4.47536">
        <ele>1254</ele>
        <time>2010-09-23T08:03:00Z</time>
      </trkpt>
      <trkpt lat="45.28915" lon="4.47548">
        <ele>1253</ele>
        <time>2010-09-23T08:03:10Z</time>
      </trkpt>
      <trkpt lat="45.28921" lon="4.4756">
        <ele>1256</ele>
        <time>2010-09-23T08:03:19Z</time>
      </trkpt>
      <trkpt lat="45.28927" lon="4.47571">
        <ele>1255</ele>
        <time>2010-09-23T08:03:29Z</time>
      </trkpt>
      <trkpt lat="45.28933" lon="4.47582">
        <ele>1255</ele>
        <time>2010-09-23T08:03:37Z</time>
      </trkpt>
      <trkpt lat="45.28939" lon="4.47593">
        <ele>1254</ele>
        <time>2010-09-23T08:03:45Z</time>
      </trkpt>
      <trkpt lat="45.28944" lon="4.47604">
        <ele>1254</ele>
        <time>2010-09-23T08:03:54Z</time>
      </trkpt>
      <trkpt lat="45.28948" lon="4.47616">
        <ele>1254</ele>
        <time>2010-09-23T08:04:05Z</time>
      </trkpt>
      <trkpt lat="45.2895" lon="4.4763">
        <ele>1253</ele>
        <time>2010-09-23T08:04:15Z</time>
      </trkpt>
      <trkpt lat="45.28951" lon="4.47643">
        <ele>1253</ele>
        <time>2010-09-23T08:04:26Z</time>
      </trkpt>
      <trkpt lat="45.28957" lon="4.47655">
        <ele>1253</ele>
        <time>2010-09-23T08:04:34Z</time>
      </trkpt>
      <trkpt lat="45.28965" lon="4.47663">
        <ele>1253</ele>
        <time>2010-09-23T08:04:42Z</time>
      </trkpt>
      <trkpt lat="45.28974" lon="4.4767">
        <ele>1251</ele>
        <time>2010-09-23T08:04:50Z</time>
      </trkpt>
      <trkpt lat="45.28983" lon="4.47676">
        <ele>1251</ele>
        <time>2010-09-23T08:04:59Z</time>
      </trkpt>
      <trkpt lat="45.28992" lon="4.47684">
        <ele>1251</ele>
        <time>2010-09-23T08:05:09Z</time>
      </trkpt>
      <trkpt lat="45.29" lon="4.47693">
        <ele>1251</ele>
        <time>2010-09-23T08:05:19Z</time>
      </trkpt>
      <trkpt lat="45.29008" lon="4.47702">
        <ele>1251</ele>
        <time>2010-09-23T08:05:28Z</time>
      </trkpt>
      <trkpt lat="45.29015" lon="4.47711">
        <ele>1250</ele>
        <time>2010-09-23T08:05:37Z</time>
      </trkpt>
      <trkpt lat="45.29022" lon="4.47722">
        <ele>1250</ele>
        <time>2010-09-23T08:05:47Z</time>
      </trkpt>
      <trkpt lat="45.29028" lon="4.47733">
        <ele>1250</ele>
        <time>2010-09-23T08:05:55Z</time>
      </trkpt>
      <trkpt lat="45.29035" lon="4.47744">
        <ele>1249</ele>
        <time>2010-09-23T08:06:03Z</time>
      </trkpt>
      <trkpt lat="45.29043" lon="4.47754">
        <ele>1247</ele>
        <time>2010-09-23T08:06:12Z</time>
      </trkpt>
      <trkpt lat="45.2905" lon="4.47764">
        <ele>1247</ele>
        <time>2010-09-23T08:06:21Z</time>
      </trkpt>
      <trkpt lat="45.29057" lon="4.47772">
        <ele>1247</ele>
        <time>2010-09-23T08:06:29Z</time>
      </trkpt>
      <trkpt lat="45.29064" lon="4.47783">
        <ele>1247</ele>
        <time>2010-09-23T08:06:37Z</time>
      </trkpt>
      <trkpt lat="45.2907" lon="4.47793">
        <ele>1246</ele>
        <time>2010-09-23T08:06:45Z</time>
      </trkpt>
      <trkpt lat="45.29077" lon="4.47802">
        <ele>1246</ele>
        <time>2010-09-23T08:06:53Z</time>
      </trkpt>
      <trkpt lat="45.29085" lon="4.47811">
        <ele>1247</ele>
        <time>2010-09-23T08:07:03Z</time>
      </trkpt>
      <trkpt lat="45.29093" lon="4.47818">
        <ele>1247</ele>
        <time>2010-09-23T08:08:16Z</time>
      </trkpt>
      <trkpt lat="45.29088" lon="4.4783">
        <ele>1247</ele>
        <time>2010-09-23T08:08:34Z</time>
      </trkpt>
      <trkpt lat="45.29088" lon="4.47843">
        <ele>1246</ele>
        <time>2010-09-23T08:08:48Z</time>
      </trkpt>
      <trkpt lat="45.29092" lon="4.47855">
        <ele>1245</ele>
        <time>2010-09-23T08:09:00Z</time>
      </trkpt>
      <trkpt lat="45.29093" lon="4.47869">
        <ele>1245</ele>
        <time>2010-09-23T08:09:14Z</time>
      </trkpt>
      <trkpt lat="45.29092" lon="4.47882">
        <ele>1244</ele>
        <time>2010-09-23T08:09:29Z</time>
      </trkpt>
      <trkpt lat="45.29091" lon="4.47896">
        <ele>1243</ele>
        <time>2010-09-23T08:09:40Z</time>
      </trkpt>
      <trkpt lat="45.2909" lon="4.47909">
        <ele>1242</ele>
        <time>2010-09-23T08:09:53Z</time>
      </trkpt>
      <trkpt lat="45.29087" lon="4.47922">
        <ele>1240</ele>
        <time>2010-09-23T08:10:06Z</time>
      </trkpt>
      <trkpt lat="45.29083" lon="4.47935">
        <ele>1238</ele>
        <time>2010-09-23T08:10:18Z</time>
      </trkpt>
      <trkpt lat="45.29079" lon="4.47948">
        <ele>1237</ele>
        <time>2010-09-23T08:10:29Z</time>
      </trkpt>
      <trkpt lat="45.29083" lon="4.4796">
        <ele>1237</ele>
        <time>2010-09-23T08:10:39Z</time>
      </trkpt>
      <trkpt lat="45.29089" lon="4.47971">
        <ele>1238</ele>
        <time>2010-09-23T08:10:49Z</time>
      </trkpt>
      <trkpt lat="45.29096" lon="4.47982">
        <ele>1238</ele>
        <time>2010-09-23T08:10:58Z</time>
      </trkpt>
      <trkpt lat="45.29104" lon="4.4799">
        <ele>1238</ele>
        <time>2010-09-23T08:11:08Z</time>
      </trkpt>
      <trkpt lat="45.29114" lon="4.47993">
        <ele>1238</ele>
        <time>2010-09-23T08:11:18Z</time>
      </trkpt>
      <trkpt lat="45.29124" lon="4.47994">
        <ele>1238</ele>
        <time>2010-09-23T08:11:30Z</time>
      </trkpt>
      <trkpt lat="45.29134" lon="4.47995">
        <ele>1238</ele>
        <time>2010-09-23T08:11:41Z</time>
      </trkpt>
      <trkpt lat="45.29144" lon="4.47995">
        <ele>1238</ele>
        <time>2010-09-23T08:11:49Z</time>
      </trkpt>
      <trkpt lat="45.29153" lon="4.47996">
        <ele>1238</ele>
        <time>2010-09-23T08:11:58Z</time>
      </trkpt>
      <trkpt lat="45.29163" lon="4.47993">
        <ele>1238</ele>
        <time>2010-09-23T08:12:07Z</time>
      </trkpt>
      <trkpt lat="45.29172" lon="4.47993">
        <ele>1238</ele>
        <time>2010-09-23T08:12:16Z</time>
      </trkpt>
      <trkpt lat="45.29182" lon="4.47993">
        <ele>1238</ele>
        <time>2010-09-23T08:12:25Z</time>
      </trkpt>
      <trkpt lat="45.29192" lon="4.47993">
        <ele>1238</ele>
        <time>2010-09-23T08:12:33Z</time>
      </trkpt>
      <trkpt lat="45.29202" lon="4.47994">
        <ele>1238</ele>
        <time>2010-09-23T08:12:42Z</time>
      </trkpt>
      <trkpt lat="45.29211" lon="4.47998">
        <ele>1237</ele>
        <time>2010-09-23T08:12:52Z</time>
      </trkpt>
      <trkpt lat="45.2922" lon="4.48002">
        <ele>1231</ele>
        <time>2010-09-23T08:13:03Z</time>
      </trkpt>
      <trkpt lat="45.29229" lon="4.48005">
        <ele>1231</ele>
        <time>2010-09-23T08:13:12Z</time>
      </trkpt>
      <trkpt lat="45.29239" lon="4.4801">
        <ele>1231</ele>
        <time>2010-09-23T08:13:19Z</time>
      </trkpt>
      <trkpt lat="45.29249" lon="4.4801">
        <ele>1232</ele>
        <time>2010-09-23T08:13:28Z</time>
      </trkpt>
      <trkpt lat="45.29258" lon="4.4801">
        <ele>1229</ele>
        <time>2010-09-23T08:13:42Z</time>
      </trkpt>
      <trkpt lat="45.29268" lon="4.48008">
        <ele>1227</ele>
        <time>2010-09-23T08:13:55Z</time>
      </trkpt>
      <trkpt lat="45.29277" lon="4.48011">
        <ele>1225</ele>
        <time>2010-09-23T08:14:02Z</time>
      </trkpt>
      <trkpt lat="45.29287" lon="4.48011">
        <ele>1224</ele>
        <time>2010-09-23T08:14:15Z</time>
      </trkpt>
      <trkpt lat="45.29296" lon="4.48009">
        <ele>1223</ele>
        <time>2010-09-23T08:14:25Z</time>
      </trkpt>
      <trkpt lat="45.29307" lon="4.4801">
        <ele>1222</ele>
        <time>2010-09-23T08:14:35Z</time>
      </trkpt>
      <trkpt lat="45.29309" lon="4.48023">
        <ele>1222</ele>
        <time>2010-09-23T08:14:51Z</time>
      </trkpt>
      <trkpt lat="45.29308" lon="4.48037">
        <ele>1221</ele>
        <time>2010-09-23T08:15:02Z</time>
      </trkpt>
      <trkpt lat="45.29308" lon="4.48052">
        <ele>1220</ele>
        <time>2010-09-23T08:15:14Z</time>
      </trkpt>
      <trkpt lat="45.29307" lon="4.48066">
        <ele>1219</ele>
        <time>2010-09-23T08:15:23Z</time>
      </trkpt>
      <trkpt lat="45.29307" lon="4.4808">
        <ele>1218</ele>
        <time>2010-09-23T08:15:33Z</time>
      </trkpt>
      <trkpt lat="45.29308" lon="4.48093">
        <ele>1211</ele>
        <time>2010-09-23T08:15:42Z</time>
      </trkpt>
      <trkpt lat="45.29308" lon="4.48107">
        <ele>1211</ele>
        <time>2010-09-23T08:15:52Z</time>
      </trkpt>
      <trkpt lat="45.29313" lon="4.48117">
        <ele>1210</ele>
        <time>2010-09-23T08:16:03Z</time>
      </trkpt>
      <trkpt lat="45.2932" lon="4.48128">
        <ele>1209</ele>
        <time>2010-09-23T08:16:12Z</time>
      </trkpt>
      <trkpt lat="45.29329" lon="4.48134">
        <ele>1208</ele>
        <time>2010-09-23T08:16:26Z</time>
      </trkpt>
      <trkpt lat="45.29339" lon="4.48133">
        <ele>1203</ele>
        <time>2010-09-23T08:16:41Z</time>
      </trkpt>
      <trkpt lat="45.29348" lon="4.48134">
        <ele>1203</ele>
        <time>2010-09-23T08:17:00Z</time>
      </trkpt>
      <trkpt lat="45.29357" lon="4.48127">
        <ele>1203</ele>
        <time>2010-09-23T08:17:29Z</time>
      </trkpt>
      <trkpt lat="45.29352" lon="4.48116">
        <ele>1204</ele>
        <time>2010-09-23T08:33:34Z</time>
      </trkpt>
      <trkpt lat="45.29357" lon="4.48104">
        <ele>1205</ele>
        <time>2010-09-23T08:33:46Z</time>
      </trkpt>
      <trkpt lat="45.29361" lon="4.48092">
        <ele>1205</ele>
        <time>2010-09-23T08:33:58Z</time>
      </trkpt>
      <trkpt lat="45.29365" lon="4.4808">
        <ele>1210</ele>
        <time>2010-09-23T08:34:10Z</time>
      </trkpt>
      <trkpt lat="45.29369" lon="4.48067">
        <ele>1210</ele>
        <time>2010-09-23T08:34:24Z</time>
      </trkpt>
      <trkpt lat="45.29375" lon="4.48055">
        <ele>1210</ele>
        <time>2010-09-23T08:34:36Z</time>
      </trkpt>
      <trkpt lat="45.2938" lon="4.48044">
        <ele>1210</ele>
        <time>2010-09-23T08:34:47Z</time>
      </trkpt>
      <trkpt lat="45.29389" lon="4.48038">
        <ele>1209</ele>
        <time>2010-09-23T08:35:19Z</time>
      </trkpt>
      <trkpt lat="45.29397" lon="4.48029">
        <ele>1209</ele>
        <time>2010-09-23T08:35:35Z</time>
      </trkpt>
      <trkpt lat="45.29403" lon="4.48019">
        <ele>1209</ele>
        <time>2010-09-23T08:35:50Z</time>
      </trkpt>
      <trkpt lat="45.29407" lon="4.48006">
        <ele>1208</ele>
        <time>2010-09-23T08:36:00Z</time>
      </trkpt>
      <trkpt lat="45.29412" lon="4.47993">
        <ele>1210</ele>
        <time>2010-09-23T08:36:11Z</time>
      </trkpt>
      <trkpt lat="45.29418" lon="4.47983">
        <ele>1209</ele>
        <time>2010-09-23T08:36:21Z</time>
      </trkpt>
      <trkpt lat="45.2942" lon="4.47969">
        <ele>1210</ele>
        <time>2010-09-23T08:36:33Z</time>
      </trkpt>
      <trkpt lat="45.29422" lon="4.47956">
        <ele>1211</ele>
        <time>2010-09-23T08:36:44Z</time>
      </trkpt>
      <trkpt lat="45.29426" lon="4.47944">
        <ele>1212</ele>
        <time>2010-09-23T08:37:51Z</time>
      </trkpt>
      <trkpt lat="45.29431" lon="4.47932">
        <ele>1212</ele>
        <time>2010-09-23T08:38:07Z</time>
      </trkpt>
      <trkpt lat="45.29437" lon="4.47923">
        <ele>1213</ele>
        <time>2010-09-23T08:38:18Z</time>
      </trkpt>
      <trkpt lat="45.29443" lon="4.47912">
        <ele>1218</ele>
        <time>2010-09-23T08:38:31Z</time>
      </trkpt>
      <trkpt lat="45.29452" lon="4.47915">
        <ele>1218</ele>
        <time>2010-09-23T08:38:44Z</time>
      </trkpt>
      <trkpt lat="45.29461" lon="4.4792">
        <ele>1211</ele>
        <time>2010-09-23T08:38:55Z</time>
      </trkpt>
      <trkpt lat="45.29471" lon="4.47928">
        <ele>1211</ele>
        <time>2010-09-23T08:39:05Z</time>
      </trkpt>
      <trkpt lat="45.29479" lon="4.47935">
        <ele>1211</ele>
        <time>2010-09-23T08:39:13Z</time>
      </trkpt>
      <trkpt lat="45.29488" lon="4.4794">
        <ele>1211</ele>
        <time>2010-09-23T08:39:21Z</time>
      </trkpt>
      <trkpt lat="45.29497" lon="4.47944">
        <ele>1210</ele>
        <time>2010-09-23T08:39:30Z</time>
      </trkpt>
      <trkpt lat="45.29505" lon="4.4795">
        <ele>1207</ele>
        <time>2010-09-23T08:39:41Z</time>
      </trkpt>
      <trkpt lat="45.29514" lon="4.47949">
        <ele>1207</ele>
        <time>2010-09-23T08:40:18Z</time>
      </trkpt>
      <trkpt lat="45.29516" lon="4.47963">
        <ele>1206</ele>
        <time>2010-09-23T08:41:12Z</time>
      </trkpt>
      <trkpt lat="45.29526" lon="4.47964">
        <ele>1206</ele>
        <time>2010-09-23T08:41:23Z</time>
      </trkpt>
      <trkpt lat="45.29535" lon="4.47968">
        <ele>1205</ele>
        <time>2010-09-23T08:41:34Z</time>
      </trkpt>
      <trkpt lat="45.29545" lon="4.4797">
        <ele>1205</ele>
        <time>2010-09-23T08:41:43Z</time>
      </trkpt>
      <trkpt lat="45.29554" lon="4.47963">
        <ele>1205</ele>
        <time>2010-09-23T08:41:53Z</time>
      </trkpt>
      <trkpt lat="45.29563" lon="4.47967">
        <ele>1204</ele>
        <time>2010-09-23T08:42:02Z</time>
      </trkpt>
      <trkpt lat="45.29572" lon="4.4797">
        <ele>1204</ele>
        <time>2010-09-23T08:42:15Z</time>
      </trkpt>
      <trkpt lat="45.2958" lon="4.47976">
        <ele>1203</ele>
        <time>2010-09-23T08:42:39Z</time>
      </trkpt>
      <trkpt lat="45.29589" lon="4.47986">
        <ele>1201</ele>
        <time>2010-09-23T08:42:50Z</time>
      </trkpt>
      <trkpt lat="45.29594" lon="4.47998">
        <ele>1201</ele>
        <time>2010-09-23T08:43:01Z</time>
      </trkpt>
      <trkpt lat="45.29596" lon="4.48011">
        <ele>1200</ele>
        <time>2010-09-23T08:43:14Z</time>
      </trkpt>
      <trkpt lat="45.29596" lon="4.48025">
        <ele>1200</ele>
        <time>2010-09-23T08:43:23Z</time>
      </trkpt>
      <trkpt lat="45.29593" lon="4.48038">
        <ele>1200</ele>
        <time>2010-09-23T08:43:32Z</time>
      </trkpt>
      <trkpt lat="45.29591" lon="4.48051">
        <ele>1200</ele>
        <time>2010-09-23T08:43:50Z</time>
      </trkpt>
      <trkpt lat="45.29582" lon="4.48058">
        <ele>1200</ele>
        <time>2010-09-23T08:44:01Z</time>
      </trkpt>
      <trkpt lat="45.29577" lon="4.48071">
        <ele>1200</ele>
        <time>2010-09-23T08:44:10Z</time>
      </trkpt>
      <trkpt lat="45.29571" lon="4.48082">
        <ele>1200</ele>
        <time>2010-09-23T08:44:21Z</time>
      </trkpt>
      <trkpt lat="45.29563" lon="4.48089">
        <ele>1200</ele>
        <time>2010-09-23T08:44:34Z</time>
      </trkpt>
      <trkpt lat="45.29554" lon="4.48095">
        <ele>1200</ele>
        <time>2010-09-23T08:45:45Z</time>
      </trkpt>
      <trkpt lat="45.29546" lon="4.48104">
        <ele>1200</ele>
        <time>2010-09-23T08:46:11Z</time>
      </trkpt>
      <trkpt lat="45.29539" lon="4.48113">
        <ele>1200</ele>
        <time>2010-09-23T08:46:21Z</time>
      </trkpt>
      <trkpt lat="45.29534" lon="4.48125">
        <ele>1200</ele>
        <time>2010-09-23T08:46:30Z</time>
      </trkpt>
      <trkpt lat="45.29524" lon="4.48127">
        <ele>1201</ele>
        <time>2010-09-23T08:46:42Z</time>
      </trkpt>
      <trkpt lat="45.29516" lon="4.48135">
        <ele>1201</ele>
        <time>2010-09-23T08:46:54Z</time>
      </trkpt>
      <trkpt lat="45.29507" lon="4.4814">
        <ele>1201</ele>
        <time>2010-09-23T08:47:06Z</time>
      </trkpt>
      <trkpt lat="45.29497" lon="4.48142">
        <ele>1200</ele>
        <time>2010-09-23T08:47:18Z</time>
      </trkpt>
      <trkpt lat="45.2949" lon="4.48132">
        <ele>1200</ele>
        <time>2010-09-23T08:47:40Z</time>
      </trkpt>
      <trkpt lat="45.29483" lon="4.48123">
        <ele>1200</ele>
        <time>2010-09-23T08:47:49Z</time>
      </trkpt>
      <trkpt lat="45.29476" lon="4.48113">
        <ele>1200</ele>
        <time>2010-09-23T08:47:58Z</time>
      </trkpt>
      <trkpt lat="45.29471" lon="4.48102">
        <ele>1200</ele>
        <time>2010-09-23T08:48:09Z</time>
      </trkpt>
      <trkpt lat="45.29464" lon="4.48092">
        <ele>1200</ele>
        <time>2010-09-23T08:48:20Z</time>
      </trkpt>
      <trkpt lat="45.29456" lon="4.48083">
        <ele>1202</ele>
        <time>2010-09-23T08:48:32Z</time>
      </trkpt>
      <trkpt lat="45.29446" lon="4.48084">
        <ele>1201</ele>
        <time>2010-09-23T08:48:43Z</time>
      </trkpt>
      <trkpt lat="45.29436" lon="4.48085">
        <ele>1201</ele>
        <time>2010-09-23T08:48:52Z</time>
      </trkpt>
      <trkpt lat="45.29427" lon="4.48084">
        <ele>1201</ele>
        <time>2010-09-23T08:49:02Z</time>
      </trkpt>
      <trkpt lat="45.29417" lon="4.48084">
        <ele>1202</ele>
        <time>2010-09-23T08:49:13Z</time>
      </trkpt>
      <trkpt lat="45.29407" lon="4.48082">
        <ele>1205</ele>
        <time>2010-09-23T08:49:23Z</time>
      </trkpt>
      <trkpt lat="45.29401" lon="4.48073">
        <ele>1206</ele>
        <time>2010-09-23T08:49:31Z</time>
      </trkpt>
      <trkpt lat="45.29397" lon="4.48061">
        <ele>1208</ele>
        <time>2010-09-23T08:49:40Z</time>
      </trkpt>
      <trkpt lat="45.29393" lon="4.48048">
        <ele>1209</ele>
        <time>2010-09-23T08:49:51Z</time>
      </trkpt>
      <trkpt lat="45.29385" lon="4.48042">
        <ele>1210</ele>
        <time>2010-09-23T08:50:33Z</time>
      </trkpt>
      <trkpt lat="45.29385" lon="4.48029">
        <ele>1210</ele>
        <time>2010-09-23T08:54:18Z</time>
      </trkpt>
      <trkpt lat="45.29391" lon="4.4802">
        <ele>1210</ele>
        <time>2010-09-23T08:54:30Z</time>
      </trkpt>
      <trkpt lat="45.29397" lon="4.48009">
        <ele>1209</ele>
        <time>2010-09-23T08:54:44Z</time>
      </trkpt>
      <trkpt lat="45.29402" lon="4.47997">
        <ele>1212</ele>
        <time>2010-09-23T08:54:55Z</time>
      </trkpt>
      <trkpt lat="45.29405" lon="4.47984">
        <ele>1213</ele>
        <time>2010-09-23T08:55:03Z</time>
      </trkpt>
      <trkpt lat="45.29407" lon="4.4797">
        <ele>1215</ele>
        <time>2010-09-23T08:55:12Z</time>
      </trkpt>
      <trkpt lat="45.29409" lon="4.47957">
        <ele>1216</ele>
        <time>2010-09-23T08:55:20Z</time>
      </trkpt>
      <trkpt lat="45.29413" lon="4.47944">
        <ele>1217</ele>
        <time>2010-09-23T08:55:30Z</time>
      </trkpt>
      <trkpt lat="45.29416" lon="4.47931">
        <ele>1217</ele>
        <time>2010-09-23T08:55:40Z</time>
      </trkpt>
      <trkpt lat="45.29418" lon="4.47918">
        <ele>1216</ele>
        <time>2010-09-23T08:55:50Z</time>
      </trkpt>
      <trkpt lat="45.29423" lon="4.47905">
        <ele>1217</ele>
        <time>2010-09-23T08:56:01Z</time>
      </trkpt>
      <trkpt lat="45.29427" lon="4.47894">
        <ele>1218</ele>
        <time>2010-09-23T08:56:12Z</time>
      </trkpt>
      <trkpt lat="45.29428" lon="4.4788">
        <ele>1220</ele>
        <time>2010-09-23T08:56:23Z</time>
      </trkpt>
      <trkpt lat="45.29429" lon="4.47867">
        <ele>1221</ele>
        <time>2010-09-23T08:56:34Z</time>
      </trkpt>
      <trkpt lat="45.29431" lon="4.47852">
        <ele>1222</ele>
        <time>2010-09-23T08:56:45Z</time>
      </trkpt>
      <trkpt lat="45.29437" lon="4.47838">
        <ele>1223</ele>
        <time>2010-09-23T08:56:57Z</time>
      </trkpt>
      <trkpt lat="45.29445" lon="4.4783">
        <ele>1227</ele>
        <time>2010-09-23T08:57:06Z</time>
      </trkpt>
      <trkpt lat="45.29452" lon="4.4782">
        <ele>1227</ele>
        <time>2010-09-23T08:57:14Z</time>
      </trkpt>
      <trkpt lat="45.29459" lon="4.47812">
        <ele>1227</ele>
        <time>2010-09-23T08:57:22Z</time>
      </trkpt>
      <trkpt lat="45.29461" lon="4.47799">
        <ele>1228</ele>
        <time>2010-09-23T08:57:33Z</time>
      </trkpt>
      <trkpt lat="45.29466" lon="4.47786">
        <ele>1228</ele>
        <time>2010-09-23T08:57:44Z</time>
      </trkpt>
      <trkpt lat="45.29466" lon="4.47772">
        <ele>1229</ele>
        <time>2010-09-23T08:57:54Z</time>
      </trkpt>
      <trkpt lat="45.29469" lon="4.47759">
        <ele>1229</ele>
        <time>2010-09-23T08:58:03Z</time>
      </trkpt>
      <trkpt lat="45.29476" lon="4.47748">
        <ele>1232</ele>
        <time>2010-09-23T08:58:12Z</time>
      </trkpt>
      <trkpt lat="45.29483" lon="4.47739">
        <ele>1232</ele>
        <time>2010-09-23T08:58:21Z</time>
      </trkpt>
      <trkpt lat="45.29487" lon="4.47727">
        <ele>1232</ele>
        <time>2010-09-23T08:58:31Z</time>
      </trkpt>
      <trkpt lat="45.29492" lon="4.47715">
        <ele>1233</ele>
        <time>2010-09-23T08:58:40Z</time>
      </trkpt>
      <trkpt lat="45.29499" lon="4.47704">
        <ele>1233</ele>
        <time>2010-09-23T08:58:53Z</time>
      </trkpt>
      <trkpt lat="45.295" lon="4.4769">
        <ele>1234</ele>
        <time>2010-09-23T08:59:03Z</time>
      </trkpt>
      <trkpt lat="45.29506" lon="4.47679">
        <ele>1233</ele>
        <time>2010-09-23T08:59:13Z</time>
      </trkpt>
      <trkpt lat="45.29514" lon="4.47672">
        <ele>1233</ele>
        <time>2010-09-23T08:59:19Z</time>
      </trkpt>
      <trkpt lat="45.29523" lon="4.47665">
        <ele>1235</ele>
        <time>2010-09-23T08:59:26Z</time>
      </trkpt>
      <trkpt lat="45.29526" lon="4.47652">
        <ele>1235</ele>
        <time>2010-09-23T08:59:35Z</time>
      </trkpt>
      <trkpt lat="45.2953" lon="4.47639">
        <ele>1235</ele>
        <time>2010-09-23T08:59:49Z</time>
      </trkpt>
      <trkpt lat="45.29535" lon="4.47626">
        <ele>1235</ele>
        <time>2010-09-23T08:59:56Z</time>
      </trkpt>
      <trkpt lat="45.29542" lon="4.47617">
        <ele>1235</ele>
        <time>2010-09-23T09:00:04Z</time>
      </trkpt>
      <trkpt lat="45.29547" lon="4.47605">
        <ele>1235</ele>
        <time>2010-09-23T09:00:13Z</time>
      </trkpt>
      <trkpt lat="45.29547" lon="4.47591">
        <ele>1236</ele>
        <time>2010-09-23T09:00:20Z</time>
      </trkpt>
      <trkpt lat="45.29549" lon="4.47578">
        <ele>1238</ele>
        <time>2010-09-23T09:00:31Z</time>
      </trkpt>
      <trkpt lat="45.29552" lon="4.47564">
        <ele>1238</ele>
        <time>2010-09-23T09:00:39Z</time>
      </trkpt>
      <trkpt lat="45.29552" lon="4.47551">
        <ele>1238</ele>
        <time>2010-09-23T09:00:49Z</time>
      </trkpt>
      <trkpt lat="45.29556" lon="4.47537">
        <ele>1239</ele>
        <time>2010-09-23T09:00:57Z</time>
      </trkpt>
      <trkpt lat="45.29561" lon="4.47525">
        <ele>1239</ele>
        <time>2010-09-23T09:01:06Z</time>
      </trkpt>
      <trkpt lat="45.29568" lon="4.47517">
        <ele>1239</ele>
        <time>2010-09-23T09:01:13Z</time>
      </trkpt>
      <trkpt lat="45.29576" lon="4.47507">
        <ele>1240</ele>
        <time>2010-09-23T09:01:19Z</time>
      </trkpt>
      <trkpt lat="45.29582" lon="4.47498">
        <ele>1240</ele>
        <time>2010-09-23T09:01:27Z</time>
      </trkpt>
      <trkpt lat="45.29589" lon="4.47487">
        <ele>1239</ele>
        <time>2010-09-23T09:01:35Z</time>
      </trkpt>
      <trkpt lat="45.29595" lon="4.47476">
        <ele>1239</ele>
        <time>2010-09-23T09:01:43Z</time>
      </trkpt>
      <trkpt lat="45.29604" lon="4.47469">
        <ele>1239</ele>
        <time>2010-09-23T09:01:51Z</time>
      </trkpt>
      <trkpt lat="45.29611" lon="4.47459">
        <ele>1239</ele>
        <time>2010-09-23T09:01:59Z</time>
      </trkpt>
      <trkpt lat="45.2962" lon="4.47452">
        <ele>1238</ele>
        <time>2010-09-23T09:02:08Z</time>
      </trkpt>
      <trkpt lat="45.29627" lon="4.47443">
        <ele>1238</ele>
        <time>2010-09-23T09:02:14Z</time>
      </trkpt>
      <trkpt lat="45.29637" lon="4.47437">
        <ele>1238</ele>
        <time>2010-09-23T09:02:22Z</time>
      </trkpt>
      <trkpt lat="45.29637" lon="4.47423">
        <ele>1238</ele>
        <time>2010-09-23T09:02:33Z</time>
      </trkpt>
      <trkpt lat="45.29627" lon="4.4742">
        <ele>1238</ele>
        <time>2010-09-23T09:02:52Z</time>
      </trkpt>
      <trkpt lat="45.29635" lon="4.4741">
        <ele>1240</ele>
        <time>2010-09-23T09:03:29Z</time>
      </trkpt>
      <trkpt lat="45.29628" lon="4.47401">
        <ele>1240</ele>
        <time>2010-09-23T09:03:41Z</time>
      </trkpt>
      <trkpt lat="45.29618" lon="4.47399">
        <ele>1241</ele>
        <time>2010-09-23T09:03:50Z</time>
      </trkpt>
      <trkpt lat="45.29608" lon="4.47396">
        <ele>1241</ele>
        <time>2010-09-23T09:04:06Z</time>
      </trkpt>
      <trkpt lat="45.29598" lon="4.47393">
        <ele>1242</ele>
        <time>2010-09-23T09:04:18Z</time>
      </trkpt>
      <trkpt lat="45.29589" lon="4.47389">
        <ele>1242</ele>
        <time>2010-09-23T09:04:33Z</time>
      </trkpt>
      <trkpt lat="45.29579" lon="4.47385">
        <ele>1246</ele>
        <time>2010-09-23T09:04:44Z</time>
      </trkpt>
      <trkpt lat="45.2957" lon="4.47379">
        <ele>1246</ele>
        <time>2010-09-23T09:04:51Z</time>
      </trkpt>
      <trkpt lat="45.29561" lon="4.47377">
        <ele>1247</ele>
        <time>2010-09-23T09:05:01Z</time>
      </trkpt>
      <trkpt lat="45.29552" lon="4.47369">
        <ele>1247</ele>
        <time>2010-09-23T09:05:11Z</time>
      </trkpt>
      <trkpt lat="45.29542" lon="4.47366">
        <ele>1248</ele>
        <time>2010-09-23T09:05:20Z</time>
      </trkpt>
      <trkpt lat="45.29534" lon="4.4736">
        <ele>1248</ele>
        <time>2010-09-23T09:05:33Z</time>
      </trkpt>
      <trkpt lat="45.29525" lon="4.47354">
        <ele>1249</ele>
        <time>2010-09-23T09:05:41Z</time>
      </trkpt>
      <trkpt lat="45.29516" lon="4.47348">
        <ele>1250</ele>
        <time>2010-09-23T09:05:49Z</time>
      </trkpt>
      <trkpt lat="45.29508" lon="4.47344">
        <ele>1251</ele>
        <time>2010-09-23T09:06:00Z</time>
      </trkpt>
      <trkpt lat="45.29499" lon="4.4734">
        <ele>1253</ele>
        <time>2010-09-23T09:06:12Z</time>
      </trkpt>
      <trkpt lat="45.29489" lon="4.47333">
        <ele>1256</ele>
        <time>2010-09-23T09:06:25Z</time>
      </trkpt>
      <trkpt lat="45.2948" lon="4.47331">
        <ele>1257</ele>
        <time>2010-09-23T09:06:34Z</time>
      </trkpt>
      <trkpt lat="45.2947" lon="4.47332">
        <ele>1258</ele>
        <time>2010-09-23T09:06:42Z</time>
      </trkpt>
      <trkpt lat="45.2946" lon="4.47333">
        <ele>1259</ele>
        <time>2010-09-23T09:06:50Z</time>
      </trkpt>
      <trkpt lat="45.2945" lon="4.47334">
        <ele>1256</ele>
        <time>2010-09-23T09:07:01Z</time>
      </trkpt>
      <trkpt lat="45.29441" lon="4.47338">
        <ele>1257</ele>
        <time>2010-09-23T09:07:12Z</time>
      </trkpt>
      <trkpt lat="45.29433" lon="4.47346">
        <ele>1258</ele>
        <time>2010-09-23T09:07:22Z</time>
      </trkpt>
      <trkpt lat="45.29425" lon="4.47355">
        <ele>1258</ele>
        <time>2010-09-23T09:07:30Z</time>
      </trkpt>
      <trkpt lat="45.29417" lon="4.47364">
        <ele>1257</ele>
        <time>2010-09-23T09:07:40Z</time>
      </trkpt>
      <trkpt lat="45.29411" lon="4.47374">
        <ele>1262</ele>
        <time>2010-09-23T09:07:49Z</time>
      </trkpt>
      <trkpt lat="45.29404" lon="4.47384">
        <ele>1262</ele>
        <time>2010-09-23T09:07:58Z</time>
      </trkpt>
      <trkpt lat="45.294" lon="4.47396">
        <ele>1261</ele>
        <time>2010-09-23T09:08:07Z</time>
      </trkpt>
      <trkpt lat="45.29394" lon="4.47407">
        <ele>1261</ele>
        <time>2010-09-23T09:08:17Z</time>
      </trkpt>
      <trkpt lat="45.29388" lon="4.47419">
        <ele>1258</ele>
        <time>2010-09-23T09:08:28Z</time>
      </trkpt>
      <trkpt lat="45.29383" lon="4.47432">
        <ele>1258</ele>
        <time>2010-09-23T09:08:37Z</time>
      </trkpt>
      <trkpt lat="45.29378" lon="4.47444">
        <ele>1258</ele>
        <time>2010-09-23T09:08:47Z</time>
      </trkpt>
      <trkpt lat="45.29373" lon="4.47455">
        <ele>1258</ele>
        <time>2010-09-23T09:08:55Z</time>
      </trkpt>
      <trkpt lat="45.29366" lon="4.47464">
        <ele>1258</ele>
        <time>2010-09-23T09:09:03Z</time>
      </trkpt>
      <trkpt lat="45.2936" lon="4.47475">
        <ele>1258</ele>
        <time>2010-09-23T09:09:11Z</time>
      </trkpt>
      <trkpt lat="45.29353" lon="4.47485">
        <ele>1258</ele>
        <time>2010-09-23T09:09:19Z</time>
      </trkpt>
      <trkpt lat="45.29346" lon="4.47493">
        <ele>1258</ele>
        <time>2010-09-23T09:09:26Z</time>
      </trkpt>
      <trkpt lat="45.2934" lon="4.47504">
        <ele>1255</ele>
        <time>2010-09-23T09:09:37Z</time>
      </trkpt>
      <trkpt lat="45.29334" lon="4.47516">
        <ele>1253</ele>
        <time>2010-09-23T09:09:46Z</time>
      </trkpt>
      <trkpt lat="45.29326" lon="4.47524">
        <ele>1256</ele>
        <time>2010-09-23T09:09:53Z</time>
      </trkpt>
      <trkpt lat="45.29319" lon="4.47534">
        <ele>1255</ele>
        <time>2010-09-23T09:10:00Z</time>
      </trkpt>
      <trkpt lat="45.29313" lon="4.47544">
        <ele>1254</ele>
        <time>2010-09-23T09:10:08Z</time>
      </trkpt>
      <trkpt lat="45.29306" lon="4.47554">
        <ele>1253</ele>
        <time>2010-09-23T09:10:17Z</time>
      </trkpt>
      <trkpt lat="45.29299" lon="4.47566">
        <ele>1253</ele>
        <time>2010-09-23T09:10:25Z</time>
      </trkpt>
      <trkpt lat="45.29293" lon="4.47577">
        <ele>1253</ele>
        <time>2010-09-23T09:10:34Z</time>
      </trkpt>
      <trkpt lat="45.29287" lon="4.47589">
        <ele>1248</ele>
        <time>2010-09-23T09:10:44Z</time>
      </trkpt>
      <trkpt lat="45.29281" lon="4.47599">
        <ele>1248</ele>
        <time>2010-09-23T09:10:52Z</time>
      </trkpt>
      <trkpt lat="45.29275" lon="4.4761">
        <ele>1248</ele>
        <time>2010-09-23T09:11:02Z</time>
      </trkpt>
      <trkpt lat="45.29267" lon="4.47616">
        <ele>1248</ele>
        <time>2010-09-23T09:11:11Z</time>
      </trkpt>
      <trkpt lat="45.29258" lon="4.47624">
        <ele>1247</ele>
        <time>2010-09-23T09:11:22Z</time>
      </trkpt>
      <trkpt lat="45.2925" lon="4.47632">
        <ele>1250</ele>
        <time>2010-09-23T09:11:32Z</time>
      </trkpt>
      <trkpt lat="45.29242" lon="4.4764">
        <ele>1249</ele>
        <time>2010-09-23T09:11:42Z</time>
      </trkpt>
      <trkpt lat="45.29234" lon="4.47649">
        <ele>1249</ele>
        <time>2010-09-23T09:11:51Z</time>
      </trkpt>
      <trkpt lat="45.29226" lon="4.47657">
        <ele>1249</ele>
        <time>2010-09-23T09:12:00Z</time>
      </trkpt>
      <trkpt lat="45.29218" lon="4.47666">
        <ele>1249</ele>
        <time>2010-09-23T09:12:09Z</time>
      </trkpt>
      <trkpt lat="45.29211" lon="4.47674">
        <ele>1248</ele>
        <time>2010-09-23T09:12:18Z</time>
      </trkpt>
      <trkpt lat="45.29204" lon="4.47683">
        <ele>1249</ele>
        <time>2010-09-23T09:12:26Z</time>
      </trkpt>
      <trkpt lat="45.29196" lon="4.47691">
        <ele>1249</ele>
        <time>2010-09-23T09:12:35Z</time>
      </trkpt>
      <trkpt lat="45.29189" lon="4.477">
        <ele>1249</ele>
        <time>2010-09-23T09:12:44Z</time>
      </trkpt>
      <trkpt lat="45.29181" lon="4.47709">
        <ele>1249</ele>
        <time>2010-09-23T09:12:52Z</time>
      </trkpt>
      <trkpt lat="45.29175" lon="4.47719">
        <ele>1249</ele>
        <time>2010-09-23T09:13:01Z</time>
      </trkpt>
      <trkpt lat="45.29167" lon="4.47728">
        <ele>1249</ele>
        <time>2010-09-23T09:13:09Z</time>
      </trkpt>
      <trkpt lat="45.29159" lon="4.47737">
        <ele>1250</ele>
        <time>2010-09-23T09:13:18Z</time>
      </trkpt>
      <trkpt lat="45.29152" lon="4.47747">
        <ele>1250</ele>
        <time>2010-09-23T09:13:26Z</time>
      </trkpt>
      <trkpt lat="45.29145" lon="4.47756">
        <ele>1249</ele>
        <time>2010-09-23T09:13:35Z</time>
      </trkpt>
      <trkpt lat="45.29137" lon="4.47766">
        <ele>1249</ele>
        <time>2010-09-23T09:13:45Z</time>
      </trkpt>
      <trkpt lat="45.2913" lon="4.47776">
        <ele>1249</ele>
        <time>2010-09-23T09:13:54Z</time>
      </trkpt>
      <trkpt lat="45.29125" lon="4.47787">
        <ele>1249</ele>
        <time>2010-09-23T09:14:04Z</time>
      </trkpt>
      <trkpt lat="45.2912" lon="4.47799">
        <ele>1248</ele>
        <time>2010-09-23T09:14:15Z</time>
      </trkpt>
      <trkpt lat="45.29115" lon="4.47812">
        <ele>1248</ele>
        <time>2010-09-23T09:14:24Z</time>
      </trkpt>
      <trkpt lat="45.29106" lon="4.47818">
        <ele>1248</ele>
        <time>2010-09-23T09:14:34Z</time>
      </trkpt>
      <trkpt lat="45.29097" lon="4.47816">
        <ele>1248</ele>
        <time>2010-09-23T09:14:43Z</time>
      </trkpt>
      <trkpt lat="45.29088" lon="4.47808">
        <ele>1248</ele>
        <time>2010-09-23T09:14:53Z</time>
      </trkpt>
      <trkpt lat="45.2908" lon="4.47799">
        <ele>1246</ele>
        <time>2010-09-23T09:15:03Z</time>
      </trkpt>
      <trkpt lat="45.29073" lon="4.4779">
        <ele>1247</ele>
        <time>2010-09-23T09:15:11Z</time>
      </trkpt>
      <trkpt lat="45.29066" lon="4.47781">
        <ele>1247</ele>
        <time>2010-09-23T09:15:20Z</time>
      </trkpt>
      <trkpt lat="45.29059" lon="4.4777">
        <ele>1247</ele>
        <time>2010-09-23T09:15:30Z</time>
      </trkpt>
      <trkpt lat="45.29052" lon="4.4776">
        <ele>1247</ele>
        <time>2010-09-23T09:15:38Z</time>
      </trkpt>
      <trkpt lat="45.29045" lon="4.47751">
        <ele>1247</ele>
        <time>2010-09-23T09:15:48Z</time>
      </trkpt>
      <trkpt lat="45.29038" lon="4.47742">
        <ele>1249</ele>
        <time>2010-09-23T09:15:56Z</time>
      </trkpt>
      <trkpt lat="45.29031" lon="4.47731">
        <ele>1250</ele>
        <time>2010-09-23T09:16:05Z</time>
      </trkpt>
      <trkpt lat="45.29025" lon="4.4772">
        <ele>1250</ele>
        <time>2010-09-23T09:16:16Z</time>
      </trkpt>
      <trkpt lat="45.29019" lon="4.47711">
        <ele>1250</ele>
        <time>2010-09-23T09:16:25Z</time>
      </trkpt>
      <trkpt lat="45.29012" lon="4.47701">
        <ele>1251</ele>
        <time>2010-09-23T09:16:34Z</time>
      </trkpt>
      <trkpt lat="45.29005" lon="4.47693">
        <ele>1251</ele>
        <time>2010-09-23T09:16:43Z</time>
      </trkpt>
      <trkpt lat="45.28996" lon="4.47686">
        <ele>1251</ele>
        <time>2010-09-23T09:16:52Z</time>
      </trkpt>
      <trkpt lat="45.28988" lon="4.47679">
        <ele>1252</ele>
        <time>2010-09-23T09:17:01Z</time>
      </trkpt>
      <trkpt lat="45.28979" lon="4.47673">
        <ele>1251</ele>
        <time>2010-09-23T09:17:11Z</time>
      </trkpt>
      <trkpt lat="45.2897" lon="4.47668">
        <ele>1251</ele>
        <time>2010-09-23T09:17:20Z</time>
      </trkpt>
      <trkpt lat="45.28963" lon="4.4766">
        <ele>1253</ele>
        <time>2010-09-23T09:17:30Z</time>
      </trkpt>
      <trkpt lat="45.28956" lon="4.47649">
        <ele>1253</ele>
        <time>2010-09-23T09:17:41Z</time>
      </trkpt>
      <trkpt lat="45.28951" lon="4.47637">
        <ele>1253</ele>
        <time>2010-09-23T09:17:50Z</time>
      </trkpt>
      <trkpt lat="45.2895" lon="4.47622">
        <ele>1253</ele>
        <time>2010-09-23T09:18:00Z</time>
      </trkpt>
      <trkpt lat="45.28947" lon="4.47609">
        <ele>1254</ele>
        <time>2010-09-23T09:18:08Z</time>
      </trkpt>
      <trkpt lat="45.28942" lon="4.47596">
        <ele>1254</ele>
        <time>2010-09-23T09:18:17Z</time>
      </trkpt>
      <trkpt lat="45.28936" lon="4.47585">
        <ele>1254</ele>
        <time>2010-09-23T09:18:26Z</time>
      </trkpt>
      <trkpt lat="45.28931" lon="4.47573">
        <ele>1255</ele>
        <time>2010-09-23T09:18:35Z</time>
      </trkpt>
      <trkpt lat="45.28926" lon="4.47561">
        <ele>1256</ele>
        <time>2010-09-23T09:18:44Z</time>
      </trkpt>
      <trkpt lat="45.2892" lon="4.47551">
        <ele>1256</ele>
        <time>2010-09-23T09:18:52Z</time>
      </trkpt>
      <trkpt lat="45.28913" lon="4.4754">
        <ele>1254</ele>
        <time>2010-09-23T09:19:00Z</time>
      </trkpt>
      <trkpt lat="45.28909" lon="4.47528">
        <ele>1254</ele>
        <time>2010-09-23T09:19:08Z</time>
      </trkpt>
      <trkpt lat="45.28904" lon="4.47516">
        <ele>1255</ele>
        <time>2010-09-23T09:19:17Z</time>
      </trkpt>
      <trkpt lat="45.28899" lon="4.47504">
        <ele>1255</ele>
        <time>2010-09-23T09:19:26Z</time>
      </trkpt>
      <trkpt lat="45.28894" lon="4.47492">
        <ele>1257</ele>
        <time>2010-09-23T09:19:35Z</time>
      </trkpt>
      <trkpt lat="45.28889" lon="4.47481">
        <ele>1257</ele>
        <time>2010-09-23T09:19:43Z</time>
      </trkpt>
      <trkpt lat="45.28884" lon="4.4747">
        <ele>1257</ele>
        <time>2010-09-23T09:19:52Z</time>
      </trkpt>
      <trkpt lat="45.28879" lon="4.47458">
        <ele>1257</ele>
        <time>2010-09-23T09:20:00Z</time>
      </trkpt>
      <trkpt lat="45.28874" lon="4.47446">
        <ele>1257</ele>
        <time>2010-09-23T09:20:10Z</time>
      </trkpt>
      <trkpt lat="45.28868" lon="4.47433">
        <ele>1257</ele>
        <time>2010-09-23T09:20:20Z</time>
      </trkpt>
      <trkpt lat="45.28862" lon="4.47422">
        <ele>1257</ele>
        <time>2010-09-23T09:20:29Z</time>
      </trkpt>
      <trkpt lat="45.28856" lon="4.47411">
        <ele>1261</ele>
        <time>2010-09-23T09:20:40Z</time>
      </trkpt>
      <trkpt lat="45.28849" lon="4.47401">
        <ele>1261</ele>
        <time>2010-09-23T09:20:51Z</time>
      </trkpt>
      <trkpt lat="45.28841" lon="4.47393">
        <ele>1261</ele>
        <time>2010-09-23T09:21:01Z</time>
      </trkpt>
      <trkpt lat="45.28833" lon="4.47384">
        <ele>1260</ele>
        <time>2010-09-23T09:21:10Z</time>
      </trkpt>
      <trkpt lat="45.28824" lon="4.47379">
        <ele>1261</ele>
        <time>2010-09-23T09:21:18Z</time>
      </trkpt>
      <trkpt lat="45.28815" lon="4.47375">
        <ele>1261</ele>
        <time>2010-09-23T09:21:26Z</time>
      </trkpt>
      <trkpt lat="45.28806" lon="4.47374">
        <ele>1261</ele>
        <time>2010-09-23T09:21:35Z</time>
      </trkpt>
      <trkpt lat="45.28796" lon="4.4737">
        <ele>1262</ele>
        <time>2010-09-23T09:21:44Z</time>
      </trkpt>
      <trkpt lat="45.28787" lon="4.47367">
        <ele>1262</ele>
        <time>2010-09-23T09:21:54Z</time>
      </trkpt>
      <trkpt lat="45.28778" lon="4.47363">
        <ele>1262</ele>
        <time>2010-09-23T09:22:03Z</time>
      </trkpt>
      <trkpt lat="45.28769" lon="4.47359">
        <ele>1262</ele>
        <time>2010-09-23T09:22:13Z</time>
      </trkpt>
      <trkpt lat="45.2876" lon="4.47355">
        <ele>1263</ele>
        <time>2010-09-23T09:22:23Z</time>
      </trkpt>
      <trkpt lat="45.2875" lon="4.4735">
        <ele>1264</ele>
        <time>2010-09-23T09:22:33Z</time>
      </trkpt>
      <trkpt lat="45.28741" lon="4.47345">
        <ele>1263</ele>
        <time>2010-09-23T09:22:43Z</time>
      </trkpt>
      <trkpt lat="45.28731" lon="4.4734">
        <ele>1263</ele>
        <time>2010-09-23T09:22:53Z</time>
      </trkpt>
      <trkpt lat="45.28723" lon="4.47333">
        <ele>1267</ele>
        <time>2010-09-23T09:23:03Z</time>
      </trkpt>
      <trkpt lat="45.28714" lon="4.47326">
        <ele>1268</ele>
        <time>2010-09-23T09:23:13Z</time>
      </trkpt>
      <trkpt lat="45.28705" lon="4.47319">
        <ele>1268</ele>
        <time>2010-09-23T09:23:24Z</time>
      </trkpt>
      <trkpt lat="45.28697" lon="4.47312">
        <ele>1268</ele>
        <time>2010-09-23T09:23:34Z</time>
      </trkpt>
      <trkpt lat="45.28688" lon="4.47304">
        <ele>1268</ele>
        <time>2010-09-23T09:23:44Z</time>
      </trkpt>
      <trkpt lat="45.28679" lon="4.47296">
        <ele>1268</ele>
        <time>2010-09-23T09:23:54Z</time>
      </trkpt>
      <trkpt lat="45.28672" lon="4.47288">
        <ele>1269</ele>
        <time>2010-09-23T09:24:07Z</time>
      </trkpt>
      <trkpt lat="45.28663" lon="4.4728">
        <ele>1265</ele>
        <time>2010-09-23T09:24:17Z</time>
      </trkpt>
      <trkpt lat="45.28655" lon="4.47271">
        <ele>1266</ele>
        <time>2010-09-23T09:24:27Z</time>
      </trkpt>
      <trkpt lat="45.28648" lon="4.47261">
        <ele>1266</ele>
        <time>2010-09-23T09:24:38Z</time>
      </trkpt>
      <trkpt lat="45.28642" lon="4.4725">
        <ele>1271</ele>
        <time>2010-09-23T09:24:48Z</time>
      </trkpt>
      <trkpt lat="45.28634" lon="4.47241">
        <ele>1270</ele>
        <time>2010-09-23T09:24:56Z</time>
      </trkpt>
      <trkpt lat="45.28627" lon="4.47229">
        <ele>1270</ele>
        <time>2010-09-23T09:25:07Z</time>
      </trkpt>
      <trkpt lat="45.28621" lon="4.47218">
        <ele>1270</ele>
        <time>2010-09-23T09:25:17Z</time>
      </trkpt>
      <trkpt lat="45.28615" lon="4.47207">
        <ele>1270</ele>
        <time>2010-09-23T09:25:27Z</time>
      </trkpt>
      <trkpt lat="45.2861" lon="4.47194">
        <ele>1270</ele>
        <time>2010-09-23T09:25:38Z</time>
      </trkpt>
      <trkpt lat="45.28606" lon="4.47182">
        <ele>1270</ele>
        <time>2010-09-23T09:25:45Z</time>
      </trkpt>
      <trkpt lat="45.28603" lon="4.4717">
        <ele>1270</ele>
        <time>2010-09-23T09:25:55Z</time>
      </trkpt>
      <trkpt lat="45.28597" lon="4.47159">
        <ele>1272</ele>
        <time>2010-09-23T09:26:02Z</time>
      </trkpt>
      <trkpt lat="45.28591" lon="4.47148">
        <ele>1272</ele>
        <time>2010-09-23T09:26:10Z</time>
      </trkpt>
      <trkpt lat="45.28587" lon="4.47136">
        <ele>1273</ele>
        <time>2010-09-23T09:26:19Z</time>
      </trkpt>
      <trkpt lat="45.2858" lon="4.47127">
        <ele>1265</ele>
        <time>2010-09-23T09:26:26Z</time>
      </trkpt>
      <trkpt lat="45.28577" lon="4.47114">
        <ele>1266</ele>
        <time>2010-09-23T09:26:36Z</time>
      </trkpt>
      <trkpt lat="45.28571" lon="4.47102">
        <ele>1266</ele>
        <time>2010-09-23T09:26:44Z</time>
      </trkpt>
      <trkpt lat="45.28566" lon="4.47091">
        <ele>1267</ele>
        <time>2010-09-23T09:26:54Z</time>
      </trkpt>
      <trkpt lat="45.28563" lon="4.47077">
        <ele>1268</ele>
        <time>2010-09-23T09:27:05Z</time>
      </trkpt>
      <trkpt lat="45.28559" lon="4.47065">
        <ele>1267</ele>
        <time>2010-09-23T09:27:14Z</time>
      </trkpt>
      <trkpt lat="45.28554" lon="4.47053">
        <ele>1267</ele>
        <time>2010-09-23T09:27:21Z</time>
      </trkpt>
      <trkpt lat="45.28548" lon="4.47042">
        <ele>1267</ele>
        <time>2010-09-23T09:27:28Z</time>
      </trkpt>
      <trkpt lat="45.28543" lon="4.4703">
        <ele>1266</ele>
        <time>2010-09-23T09:27:35Z</time>
      </trkpt>
      <trkpt lat="45.28539" lon="4.47018">
        <ele>1266</ele>
        <time>2010-09-23T09:27:43Z</time>
      </trkpt>
      <trkpt lat="45.28535" lon="4.47004">
        <ele>1266</ele>
        <time>2010-09-23T09:27:53Z</time>
      </trkpt>
      <trkpt lat="45.2853" lon="4.46993">
        <ele>1268</ele>
        <time>2010-09-23T09:28:00Z</time>
      </trkpt>
      <trkpt lat="45.2853" lon="4.46979">
        <ele>1268</ele>
        <time>2010-09-23T09:28:11Z</time>
      </trkpt>
      <trkpt lat="45.28524" lon="4.46968">
        <ele>1268</ele>
        <time>2010-09-23T09:28:19Z</time>
      </trkpt>
      <trkpt lat="45.2852" lon="4.46956">
        <ele>1268</ele>
        <time>2010-09-23T09:28:27Z</time>
      </trkpt>
      <trkpt lat="45.28516" lon="4.46942">
        <ele>1268</ele>
        <time>2010-09-23T09:28:36Z</time>
      </trkpt>
      <trkpt lat="45.28512" lon="4.4693">
        <ele>1268</ele>
        <time>2010-09-23T09:28:46Z</time>
      </trkpt>
      <trkpt lat="45.28512" lon="4.46915">
        <ele>1268</ele>
        <time>2010-09-23T09:28:53Z</time>
      </trkpt>
      <trkpt lat="45.28513" lon="4.46901">
        <ele>1269</ele>
        <time>2010-09-23T09:29:02Z</time>
      </trkpt>
      <trkpt lat="45.28518" lon="4.46889">
        <ele>1269</ele>
        <time>2010-09-23T09:29:10Z</time>
      </trkpt>
      <trkpt lat="45.28521" lon="4.46877">
        <ele>1270</ele>
        <time>2010-09-23T09:29:18Z</time>
      </trkpt>
      <trkpt lat="45.28523" lon="4.46863">
        <ele>1270</ele>
        <time>2010-09-23T09:29:26Z</time>
      </trkpt>
      <trkpt lat="45.28519" lon="4.46851">
        <ele>1269</ele>
        <time>2010-09-23T09:29:33Z</time>
      </trkpt>
      <trkpt lat="45.28521" lon="4.46837">
        <ele>1269</ele>
        <time>2010-09-23T09:29:45Z</time>
      </trkpt>
      <trkpt lat="45.28523" lon="4.46824">
        <ele>1268</ele>
        <time>2010-09-23T09:29:52Z</time>
      </trkpt>
      <trkpt lat="45.28521" lon="4.4681">
        <ele>1268</ele>
        <time>2010-09-23T09:30:01Z</time>
      </trkpt>
      <trkpt lat="45.28523" lon="4.46798">
        <ele>1268</ele>
        <time>2010-09-23T09:30:09Z</time>
      </trkpt>
      <trkpt lat="45.28523" lon="4.46783">
        <ele>1267</ele>
        <time>2010-09-23T09:30:18Z</time>
      </trkpt>
      <trkpt lat="45.28526" lon="4.4677">
        <ele>1267</ele>
        <time>2010-09-23T09:30:27Z</time>
      </trkpt>
      <trkpt lat="45.28526" lon="4.46756">
        <ele>1266</ele>
        <time>2010-09-23T09:30:34Z</time>
      </trkpt>
      <trkpt lat="45.28524" lon="4.46742">
        <ele>1264</ele>
        <time>2010-09-23T09:30:42Z</time>
      </trkpt>
      <trkpt lat="45.28525" lon="4.46729">
        <ele>1264</ele>
        <time>2010-09-23T09:30:51Z</time>
      </trkpt>
      <trkpt lat="45.28528" lon="4.46716">
        <ele>1264</ele>
        <time>2010-09-23T09:31:00Z</time>
      </trkpt>
      <trkpt lat="45.28531" lon="4.46703">
        <ele>1264</ele>
        <time>2010-09-23T09:31:08Z</time>
      </trkpt>
      <trkpt lat="45.28534" lon="4.46691">
        <ele>1263</ele>
        <time>2010-09-23T09:31:16Z</time>
      </trkpt>
      <trkpt lat="45.28538" lon="4.46678">
        <ele>1263</ele>
        <time>2010-09-23T09:31:26Z</time>
      </trkpt>
      <trkpt lat="45.28541" lon="4.46666">
        <ele>1260</ele>
        <time>2010-09-23T09:31:35Z</time>
      </trkpt>
      <trkpt lat="45.28541" lon="4.46651">
        <ele>1260</ele>
        <time>2010-09-23T09:31:44Z</time>
      </trkpt>
      <trkpt lat="45.28539" lon="4.46638">
        <ele>1260</ele>
        <time>2010-09-23T09:31:52Z</time>
      </trkpt>
      <trkpt lat="45.28537" lon="4.46624">
        <ele>1259</ele>
        <time>2010-09-23T09:31:58Z</time>
      </trkpt>
      <trkpt lat="45.28536" lon="4.46609">
        <ele>1259</ele>
        <time>2010-09-23T09:32:06Z</time>
      </trkpt>
      <trkpt lat="45.28539" lon="4.46597">
        <ele>1259</ele>
        <time>2010-09-23T09:32:15Z</time>
      </trkpt>
      <trkpt lat="45.28536" lon="4.46583">
        <ele>1255</ele>
        <time>2010-09-23T09:32:23Z</time>
      </trkpt>
      <trkpt lat="45.28535" lon="4.46569">
        <ele>1255</ele>
        <time>2010-09-23T09:32:32Z</time>
      </trkpt>
      <trkpt lat="45.28533" lon="4.46554">
        <ele>1254</ele>
        <time>2010-09-23T09:32:41Z</time>
      </trkpt>
      <trkpt lat="45.28527" lon="4.46543">
        <ele>1254</ele>
        <time>2010-09-23T09:32:47Z</time>
      </trkpt>
      <trkpt lat="45.28522" lon="4.46529">
        <ele>1254</ele>
        <time>2010-09-23T09:32:56Z</time>
      </trkpt>
      <trkpt lat="45.2852" lon="4.46514">
        <ele>1253</ele>
        <time>2010-09-23T09:33:05Z</time>
      </trkpt>
      <trkpt lat="45.28516" lon="4.46501">
        <ele>1252</ele>
        <time>2010-09-23T09:33:12Z</time>
      </trkpt>
      <trkpt lat="45.28508" lon="4.46494">
        <ele>1250</ele>
        <time>2010-09-23T09:33:20Z</time>
      </trkpt>
      <trkpt lat="45.28499" lon="4.4649">
        <ele>1250</ele>
        <time>2010-09-23T09:33:27Z</time>
      </trkpt>
      <trkpt lat="45.28489" lon="4.46486">
        <ele>1250</ele>
        <time>2010-09-23T09:33:34Z</time>
      </trkpt>
      <trkpt lat="45.2848" lon="4.46484">
        <ele>1249</ele>
        <time>2010-09-23T09:33:42Z</time>
      </trkpt>
      <trkpt lat="45.2847" lon="4.46483">
        <ele>1249</ele>
        <time>2010-09-23T09:33:50Z</time>
      </trkpt>
      <trkpt lat="45.2846" lon="4.46482">
        <ele>1249</ele>
        <time>2010-09-23T09:33:58Z</time>
      </trkpt>
      <trkpt lat="45.2845" lon="4.46478">
        <ele>1249</ele>
        <time>2010-09-23T09:34:08Z</time>
      </trkpt>
      <trkpt lat="45.2844" lon="4.46478">
        <ele>1249</ele>
        <time>2010-09-23T09:34:17Z</time>
      </trkpt>
      <trkpt lat="45.28431" lon="4.46479">
        <ele>1249</ele>
        <time>2010-09-23T09:34:27Z</time>
      </trkpt>
      <trkpt lat="45.28421" lon="4.46477">
        <ele>1249</ele>
        <time>2010-09-23T09:34:35Z</time>
      </trkpt>
      <trkpt lat="45.2841" lon="4.4648">
        <ele>1247</ele>
        <time>2010-09-23T09:34:45Z</time>
      </trkpt>
      <trkpt lat="45.284" lon="4.46479">
        <ele>1246</ele>
        <time>2010-09-23T09:34:54Z</time>
      </trkpt>
      <trkpt lat="45.28389" lon="4.46479">
        <ele>1246</ele>
        <time>2010-09-23T09:35:02Z</time>
      </trkpt>
      <trkpt lat="45.28379" lon="4.46478">
        <ele>1245</ele>
        <time>2010-09-23T09:35:14Z</time>
      </trkpt>
      <trkpt lat="45.2837" lon="4.46477">
        <ele>1244</ele>
        <time>2010-09-23T09:35:24Z</time>
      </trkpt>
      <trkpt lat="45.2836" lon="4.46478">
        <ele>1244</ele>
        <time>2010-09-23T09:35:34Z</time>
      </trkpt>
      <trkpt lat="45.2835" lon="4.4648">
        <ele>1244</ele>
        <time>2010-09-23T09:35:42Z</time>
      </trkpt>
      <trkpt lat="45.2834" lon="4.46481">
        <ele>1244</ele>
        <time>2010-09-23T09:35:51Z</time>
      </trkpt>
      <trkpt lat="45.2833" lon="4.46482">
        <ele>1242</ele>
        <time>2010-09-23T09:36:00Z</time>
      </trkpt>
      <trkpt lat="45.2832" lon="4.46483">
        <ele>1242</ele>
        <time>2010-09-23T09:36:14Z</time>
      </trkpt>
      <trkpt lat="45.28311" lon="4.46489">
        <ele>1242</ele>
        <time>2010-09-23T09:36:53Z</time>
      </trkpt>
      <trkpt lat="45.28301" lon="4.46485">
        <ele>1241</ele>
        <time>2010-09-23T09:37:00Z</time>
      </trkpt>
      <trkpt lat="45.28292" lon="4.46482">
        <ele>1241</ele>
        <time>2010-09-23T09:37:08Z</time>
      </trkpt>
      <trkpt lat="45.28285" lon="4.46472">
        <ele>1241</ele>
        <time>2010-09-23T09:37:18Z</time>
      </trkpt>
      <trkpt lat="45.28285" lon="4.46457">
        <ele>1241</ele>
        <time>2010-09-23T09:37:28Z</time>
      </trkpt>
      <trkpt lat="45.28286" lon="4.46443">
        <ele>1241</ele>
        <time>2010-09-23T09:37:37Z</time>
      </trkpt>
      <trkpt lat="45.28287" lon="4.46429">
        <ele>1240</ele>
        <time>2010-09-23T09:37:47Z</time>
      </trkpt>
      <trkpt lat="45.28287" lon="4.46415">
        <ele>1238</ele>
        <time>2010-09-23T09:37:55Z</time>
      </trkpt>
      <trkpt lat="45.28284" lon="4.46403">
        <ele>1238</ele>
        <time>2010-09-23T09:38:03Z</time>
      </trkpt>
      <trkpt lat="45.28282" lon="4.46389">
        <ele>1237</ele>
        <time>2010-09-23T09:38:13Z</time>
      </trkpt>
      <trkpt lat="45.28278" lon="4.46377">
        <ele>1237</ele>
        <time>2010-09-23T09:38:22Z</time>
      </trkpt>
      <trkpt lat="45.28275" lon="4.46364">
        <ele>1237</ele>
        <time>2010-09-23T09:38:29Z</time>
      </trkpt>
      <trkpt lat="45.28274" lon="4.4635">
        <ele>1236</ele>
        <time>2010-09-23T09:38:38Z</time>
      </trkpt>
      <trkpt lat="45.28271" lon="4.46338">
        <ele>1236</ele>
        <time>2010-09-23T09:38:48Z</time>
      </trkpt>
      <trkpt lat="45.28268" lon="4.46325">
        <ele>1233</ele>
        <time>2010-09-23T09:38:56Z</time>
      </trkpt>
      <trkpt lat="45.28263" lon="4.46314">
        <ele>1232</ele>
        <time>2010-09-23T09:39:04Z</time>
      </trkpt>
      <trkpt lat="45.28258" lon="4.463">
        <ele>1231</ele>
        <time>2010-09-23T09:39:14Z</time>
      </trkpt>
      <trkpt lat="45.28251" lon="4.46289">
        <ele>1231</ele>
        <time>2010-09-23T09:39:23Z</time>
      </trkpt>
      <trkpt lat="45.28245" lon="4.46279">
        <ele>1231</ele>
        <time>2010-09-23T09:39:32Z</time>
      </trkpt>
      <trkpt lat="45.28238" lon="4.4627">
        <ele>1230</ele>
        <time>2010-09-23T09:39:40Z</time>
      </trkpt>
      <trkpt lat="45.28232" lon="4.46259">
        <ele>1230</ele>
        <time>2010-09-23T09:39:50Z</time>
      </trkpt>
      <trkpt lat="45.28225" lon="4.46247">
        <ele>1226</ele>
        <time>2010-09-23T09:40:00Z</time>
      </trkpt>
      <trkpt lat="45.2822" lon="4.46235">
        <ele>1226</ele>
        <time>2010-09-23T09:40:11Z</time>
      </trkpt>
      <trkpt lat="45.28214" lon="4.46226">
        <ele>1226</ele>
        <time>2010-09-23T09:40:19Z</time>
      </trkpt>
      <trkpt lat="45.28207" lon="4.46216">
        <ele>1225</ele>
        <time>2010-09-23T09:40:27Z</time>
      </trkpt>
      <trkpt lat="45.28199" lon="4.46206">
        <ele>1225</ele>
        <time>2010-09-23T09:40:35Z</time>
      </trkpt>
      <trkpt lat="45.28191" lon="4.46198">
        <ele>1225</ele>
        <time>2010-09-23T09:40:44Z</time>
      </trkpt>
      <trkpt lat="45.28182" lon="4.46191">
        <ele>1225</ele>
        <time>2010-09-23T09:40:53Z</time>
      </trkpt>
      <trkpt lat="45.28173" lon="4.46185">
        <ele>1224</ele>
        <time>2010-09-23T09:41:01Z</time>
      </trkpt>
      <trkpt lat="45.28165" lon="4.46178">
        <ele>1224</ele>
        <time>2010-09-23T09:41:10Z</time>
      </trkpt>
      <trkpt lat="45.28156" lon="4.46173">
        <ele>1224</ele>
        <time>2010-09-23T09:41:18Z</time>
      </trkpt>
      <trkpt lat="45.28147" lon="4.46168">
        <ele>1224</ele>
        <time>2010-09-23T09:41:27Z</time>
      </trkpt>
      <trkpt lat="45.28138" lon="4.46165">
        <ele>1219</ele>
        <time>2010-09-23T09:41:35Z</time>
      </trkpt>
      <trkpt lat="45.28128" lon="4.46163">
        <ele>1219</ele>
        <time>2010-09-23T09:41:44Z</time>
      </trkpt>
      <trkpt lat="45.28118" lon="4.46162">
        <ele>1219</ele>
        <time>2010-09-23T09:41:53Z</time>
      </trkpt>
      <trkpt lat="45.28109" lon="4.46158">
        <ele>1219</ele>
        <time>2010-09-23T09:42:02Z</time>
      </trkpt>
      <trkpt lat="45.281" lon="4.46156">
        <ele>1219</ele>
        <time>2010-09-23T09:42:10Z</time>
      </trkpt>
      <trkpt lat="45.2809" lon="4.46153">
        <ele>1219</ele>
        <time>2010-09-23T09:42:19Z</time>
      </trkpt>
      <trkpt lat="45.28079" lon="4.46149">
        <ele>1217</ele>
        <time>2010-09-23T09:42:30Z</time>
      </trkpt>
      <trkpt lat="45.28069" lon="4.46147">
        <ele>1216</ele>
        <time>2010-09-23T09:42:39Z</time>
      </trkpt>
      <trkpt lat="45.2806" lon="4.46145">
        <ele>1215</ele>
        <time>2010-09-23T09:42:47Z</time>
      </trkpt>
      <trkpt lat="45.2805" lon="4.46142">
        <ele>1215</ele>
        <time>2010-09-23T09:42:55Z</time>
      </trkpt>
      <trkpt lat="45.2804" lon="4.46139">
        <ele>1214</ele>
        <time>2010-09-23T09:43:04Z</time>
      </trkpt>
      <trkpt lat="45.28029" lon="4.46138">
        <ele>1214</ele>
        <time>2010-09-23T09:43:12Z</time>
      </trkpt>
      <trkpt lat="45.28019" lon="4.46142">
        <ele>1214</ele>
        <time>2010-09-23T09:43:22Z</time>
      </trkpt>
      <trkpt lat="45.28009" lon="4.46146">
        <ele>1214</ele>
        <time>2010-09-23T09:43:31Z</time>
      </trkpt>
      <trkpt lat="45.28" lon="4.46149">
        <ele>1211</ele>
        <time>2010-09-23T09:43:40Z</time>
      </trkpt>
      <trkpt lat="45.2799" lon="4.46153">
        <ele>1211</ele>
        <time>2010-09-23T09:43:47Z</time>
      </trkpt>
      <trkpt lat="45.27981" lon="4.46161">
        <ele>1211</ele>
        <time>2010-09-23T09:44:01Z</time>
      </trkpt>
      <trkpt lat="45.27973" lon="4.46167">
        <ele>1215</ele>
        <time>2010-09-23T09:44:09Z</time>
      </trkpt>
      <trkpt lat="45.27964" lon="4.46172">
        <ele>1214</ele>
        <time>2010-09-23T09:44:15Z</time>
      </trkpt>
      <trkpt lat="45.27955" lon="4.46176">
        <ele>1214</ele>
        <time>2010-09-23T09:44:21Z</time>
      </trkpt>
      <trkpt lat="45.27947" lon="4.46184">
        <ele>1213</ele>
        <time>2010-09-23T09:44:30Z</time>
      </trkpt>
      <trkpt lat="45.27938" lon="4.4619">
        <ele>1213</ele>
        <time>2010-09-23T09:44:37Z</time>
      </trkpt>
      <trkpt lat="45.27929" lon="4.46195">
        <ele>1213</ele>
        <time>2010-09-23T09:44:49Z</time>
      </trkpt>
      <trkpt lat="45.2792" lon="4.46195">
        <ele>1212</ele>
        <time>2010-09-23T09:44:56Z</time>
      </trkpt>
      <trkpt lat="45.27909" lon="4.46191">
        <ele>1209</ele>
        <time>2010-09-23T09:45:03Z</time>
      </trkpt>
      <trkpt lat="45.279" lon="4.46187">
        <ele>1209</ele>
        <time>2010-09-23T09:45:10Z</time>
      </trkpt>
      <trkpt lat="45.27891" lon="4.46181">
        <ele>1209</ele>
        <time>2010-09-23T09:45:18Z</time>
      </trkpt>
      <trkpt lat="45.27882" lon="4.46173">
        <ele>1209</ele>
        <time>2010-09-23T09:45:27Z</time>
      </trkpt>
      <trkpt lat="45.27873" lon="4.46169">
        <ele>1209</ele>
        <time>2010-09-23T09:45:35Z</time>
      </trkpt>
      <trkpt lat="45.27864" lon="4.46164">
        <ele>1203</ele>
        <time>2010-09-23T09:45:43Z</time>
      </trkpt>
      <trkpt lat="45.27856" lon="4.46157">
        <ele>1203</ele>
        <time>2010-09-23T09:45:52Z</time>
      </trkpt>
      <trkpt lat="45.27847" lon="4.46152">
        <ele>1203</ele>
        <time>2010-09-23T09:46:01Z</time>
      </trkpt>
      <trkpt lat="45.27838" lon="4.46148">
        <ele>1203</ele>
        <time>2010-09-23T09:46:10Z</time>
      </trkpt>
      <trkpt lat="45.27829" lon="4.46145">
        <ele>1203</ele>
        <time>2010-09-23T09:46:19Z</time>
      </trkpt>
      <trkpt lat="45.27819" lon="4.46142">
        <ele>1203</ele>
        <time>2010-09-23T09:46:27Z</time>
      </trkpt>
      <trkpt lat="45.27811" lon="4.46146">
        <ele>1203</ele>
        <time>2010-09-23T09:47:22Z</time>
      </trkpt>
      <trkpt lat="45.27816" lon="4.46134">
        <ele>1202</ele>
        <time>2010-09-23T09:49:12Z</time>
      </trkpt>
      <trkpt lat="45.27824" lon="4.46128">
        <ele>1202</ele>
        <time>2010-09-23T09:49:22Z</time>
      </trkpt>
      <trkpt lat="45.27833" lon="4.46124">
        <ele>1202</ele>
        <time>2010-09-23T09:49:32Z</time>
      </trkpt>
      <trkpt lat="45.27842" lon="4.4612">
        <ele>1201</ele>
        <time>2010-09-23T09:49:41Z</time>
      </trkpt>
      <trkpt lat="45.27852" lon="4.46116">
        <ele>1201</ele>
        <time>2010-09-23T09:49:51Z</time>
      </trkpt>
      <trkpt lat="45.27862" lon="4.46113">
        <ele>1201</ele>
        <time>2010-09-23T09:50:01Z</time>
      </trkpt>
      <trkpt lat="45.27871" lon="4.46109">
        <ele>1201</ele>
        <time>2010-09-23T09:50:10Z</time>
      </trkpt>
      <trkpt lat="45.2788" lon="4.46102">
        <ele>1200</ele>
        <time>2010-09-23T09:50:19Z</time>
      </trkpt>
      <trkpt lat="45.27889" lon="4.46094">
        <ele>1200</ele>
        <time>2010-09-23T09:50:29Z</time>
      </trkpt>
      <trkpt lat="45.27897" lon="4.46085">
        <ele>1200</ele>
        <time>2010-09-23T09:50:39Z</time>
      </trkpt>
      <trkpt lat="45.27905" lon="4.46078">
        <ele>1197</ele>
        <time>2010-09-23T09:50:48Z</time>
      </trkpt>
      <trkpt lat="45.27913" lon="4.46069">
        <ele>1197</ele>
        <time>2010-09-23T09:50:57Z</time>
      </trkpt>
      <trkpt lat="45.2792" lon="4.4606">
        <ele>1198</ele>
        <time>2010-09-23T09:51:07Z</time>
      </trkpt>
      <trkpt lat="45.27926" lon="4.4605">
        <ele>1199</ele>
        <time>2010-09-23T09:51:16Z</time>
      </trkpt>
      <trkpt lat="45.27932" lon="4.4604">
        <ele>1198</ele>
        <time>2010-09-23T09:51:25Z</time>
      </trkpt>
      <trkpt lat="45.27939" lon="4.4603">
        <ele>1198</ele>
        <time>2010-09-23T09:51:35Z</time>
      </trkpt>
      <trkpt lat="45.27945" lon="4.46018">
        <ele>1198</ele>
        <time>2010-09-23T09:51:46Z</time>
      </trkpt>
      <trkpt lat="45.27953" lon="4.46009">
        <ele>1198</ele>
        <time>2010-09-23T09:51:55Z</time>
      </trkpt>
      <trkpt lat="45.27962" lon="4.46001">
        <ele>1198</ele>
        <time>2010-09-23T09:52:04Z</time>
      </trkpt>
      <trkpt lat="45.2797" lon="4.45994">
        <ele>1195</ele>
        <time>2010-09-23T09:52:12Z</time>
      </trkpt>
      <trkpt lat="45.27978" lon="4.45987">
        <ele>1195</ele>
        <time>2010-09-23T09:52:19Z</time>
      </trkpt>
      <trkpt lat="45.27988" lon="4.45984">
        <ele>1195</ele>
        <time>2010-09-23T09:52:30Z</time>
      </trkpt>
      <trkpt lat="45.27995" lon="4.45975">
        <ele>1195</ele>
        <time>2010-09-23T09:52:42Z</time>
      </trkpt>
      <trkpt lat="45.28005" lon="4.45971">
        <ele>1195</ele>
        <time>2010-09-23T09:52:50Z</time>
      </trkpt>
      <trkpt lat="45.28014" lon="4.45964">
        <ele>1195</ele>
        <time>2010-09-23T09:52:56Z</time>
      </trkpt>
      <trkpt lat="45.28022" lon="4.45957">
        <ele>1194</ele>
        <time>2010-09-23T09:53:06Z</time>
      </trkpt>
      <trkpt lat="45.2803" lon="4.45949">
        <ele>1194</ele>
        <time>2010-09-23T09:53:15Z</time>
      </trkpt>
      <trkpt lat="45.28038" lon="4.45941">
        <ele>1194</ele>
        <time>2010-09-23T09:53:25Z</time>
      </trkpt>
      <trkpt lat="45.28046" lon="4.45933">
        <ele>1193</ele>
        <time>2010-09-23T09:53:33Z</time>
      </trkpt>
      <trkpt lat="45.28053" lon="4.45925">
        <ele>1193</ele>
        <time>2010-09-23T09:53:43Z</time>
      </trkpt>
      <trkpt lat="45.28062" lon="4.45917">
        <ele>1188</ele>
        <time>2010-09-23T09:53:51Z</time>
      </trkpt>
      <trkpt lat="45.28069" lon="4.45907">
        <ele>1188</ele>
        <time>2010-09-23T09:54:00Z</time>
      </trkpt>
      <trkpt lat="45.28077" lon="4.45898">
        <ele>1188</ele>
        <time>2010-09-23T09:54:08Z</time>
      </trkpt>
      <trkpt lat="45.28086" lon="4.45891">
        <ele>1187</ele>
        <time>2010-09-23T09:54:17Z</time>
      </trkpt>
      <trkpt lat="45.28095" lon="4.45885">
        <ele>1186</ele>
        <time>2010-09-23T09:54:24Z</time>
      </trkpt>
      <trkpt lat="45.28103" lon="4.45877">
        <ele>1185</ele>
        <time>2010-09-23T09:54:33Z</time>
      </trkpt>
      <trkpt lat="45.28111" lon="4.45869">
        <ele>1185</ele>
        <time>2010-09-23T09:54:45Z</time>
      </trkpt>
      <trkpt lat="45.28119" lon="4.45861">
        <ele>1184</ele>
        <time>2010-09-23T09:54:55Z</time>
      </trkpt>
      <trkpt lat="45.28128" lon="4.45853">
        <ele>1184</ele>
        <time>2010-09-23T09:55:04Z</time>
      </trkpt>
      <trkpt lat="45.28134" lon="4.45842">
        <ele>1183</ele>
        <time>2010-09-23T09:55:14Z</time>
      </trkpt>
      <trkpt lat="45.28141" lon="4.45833">
        <ele>1176</ele>
        <time>2010-09-23T09:55:23Z</time>
      </trkpt>
      <trkpt lat="45.28151" lon="4.45827">
        <ele>1176</ele>
        <time>2010-09-23T09:55:31Z</time>
      </trkpt>
      <trkpt lat="45.28161" lon="4.45822">
        <ele>1177</ele>
        <time>2010-09-23T09:55:39Z</time>
      </trkpt>
      <trkpt lat="45.28169" lon="4.45815">
        <ele>1176</ele>
        <time>2010-09-23T09:55:49Z</time>
      </trkpt>
      <trkpt lat="45.28178" lon="4.4581">
        <ele>1175</ele>
        <time>2010-09-23T09:55:59Z</time>
      </trkpt>
      <trkpt lat="45.28187" lon="4.45806">
        <ele>1175</ele>
        <time>2010-09-23T09:56:07Z</time>
      </trkpt>
      <trkpt lat="45.28196" lon="4.45804">
        <ele>1174</ele>
        <time>2010-09-23T09:56:16Z</time>
      </trkpt>
      <trkpt lat="45.28205" lon="4.45798">
        <ele>1174</ele>
        <time>2010-09-23T09:56:26Z</time>
      </trkpt>
      <trkpt lat="45.28214" lon="4.45793">
        <ele>1174</ele>
        <time>2010-09-23T09:56:36Z</time>
      </trkpt>
      <trkpt lat="45.28223" lon="4.45787">
        <ele>1174</ele>
        <time>2010-09-23T09:56:45Z</time>
      </trkpt>
      <trkpt lat="45.28232" lon="4.45785">
        <ele>1173</ele>
        <time>2010-09-23T09:56:53Z</time>
      </trkpt>
      <trkpt lat="45.28242" lon="4.45783">
        <ele>1173</ele>
        <time>2010-09-23T09:57:03Z</time>
      </trkpt>
      <trkpt lat="45.28252" lon="4.45785">
        <ele>1176</ele>
        <time>2010-09-23T09:57:12Z</time>
      </trkpt>
      <trkpt lat="45.28261" lon="4.45785">
        <ele>1176</ele>
        <time>2010-09-23T09:57:21Z</time>
      </trkpt>
      <trkpt lat="45.2827" lon="4.45779">
        <ele>1176</ele>
        <time>2010-09-23T09:57:29Z</time>
      </trkpt>
      <trkpt lat="45.28276" lon="4.45767">
        <ele>1176</ele>
        <time>2010-09-23T09:57:41Z</time>
      </trkpt>
      <trkpt lat="45.28281" lon="4.45755">
        <ele>1176</ele>
        <time>2010-09-23T09:57:48Z</time>
      </trkpt>
      <trkpt lat="45.28287" lon="4.45743">
        <ele>1171</ele>
        <time>2010-09-23T09:57:56Z</time>
      </trkpt>
      <trkpt lat="45.2829" lon="4.45731">
        <ele>1171</ele>
        <time>2010-09-23T09:58:05Z</time>
      </trkpt>
      <trkpt lat="45.28289" lon="4.45716">
        <ele>1170</ele>
        <time>2010-09-23T09:58:14Z</time>
      </trkpt>
      <trkpt lat="45.28289" lon="4.45703">
        <ele>1170</ele>
        <time>2010-09-23T09:58:22Z</time>
      </trkpt>
      <trkpt lat="45.28288" lon="4.45689">
        <ele>1169</ele>
        <time>2010-09-23T09:58:30Z</time>
      </trkpt>
      <trkpt lat="45.28285" lon="4.45677">
        <ele>1168</ele>
        <time>2010-09-23T09:58:40Z</time>
      </trkpt>
      <trkpt lat="45.28284" lon="4.45662">
        <ele>1164</ele>
        <time>2010-09-23T09:58:49Z</time>
      </trkpt>
      <trkpt lat="45.28282" lon="4.45648">
        <ele>1164</ele>
        <time>2010-09-23T09:58:57Z</time>
      </trkpt>
      <trkpt lat="45.28282" lon="4.45634">
        <ele>1164</ele>
        <time>2010-09-23T09:59:06Z</time>
      </trkpt>
      <trkpt lat="45.28282" lon="4.4562">
        <ele>1163</ele>
        <time>2010-09-23T09:59:16Z</time>
      </trkpt>
      <trkpt lat="45.28279" lon="4.45608">
        <ele>1162</ele>
        <time>2010-09-23T09:59:25Z</time>
      </trkpt>
      <trkpt lat="45.2827" lon="4.45604">
        <ele>1161</ele>
        <time>2010-09-23T09:59:34Z</time>
      </trkpt>
      <trkpt lat="45.28261" lon="4.4561">
        <ele>1160</ele>
        <time>2010-09-23T09:59:45Z</time>
      </trkpt>
      <trkpt lat="45.28252" lon="4.45617">
        <ele>1160</ele>
        <time>2010-09-23T09:59:55Z</time>
      </trkpt>
      <trkpt lat="45.28242" lon="4.4562">
        <ele>1153</ele>
        <time>2010-09-23T10:00:04Z</time>
      </trkpt>
      <trkpt lat="45.28233" lon="4.45623">
        <ele>1153</ele>
        <time>2010-09-23T10:00:11Z</time>
      </trkpt>
      <trkpt lat="45.28224" lon="4.45626">
        <ele>1153</ele>
        <time>2010-09-23T10:00:21Z</time>
      </trkpt>
      <trkpt lat="45.28214" lon="4.45629">
        <ele>1152</ele>
        <time>2010-09-23T10:00:32Z</time>
      </trkpt>
      <trkpt lat="45.28213" lon="4.45616">
        <ele>1152</ele>
        <time>2010-09-23T10:00:50Z</time>
      </trkpt>
      <trkpt lat="45.28216" lon="4.45602">
        <ele>1151</ele>
        <time>2010-09-23T10:01:01Z</time>
      </trkpt>
      <trkpt lat="45.28218" lon="4.45589">
        <ele>1151</ele>
        <time>2010-09-23T10:01:10Z</time>
      </trkpt>
      <trkpt lat="45.28222" lon="4.45576">
        <ele>1146</ele>
        <time>2010-09-23T10:01:18Z</time>
      </trkpt>
      <trkpt lat="45.28225" lon="4.45564">
        <ele>1146</ele>
        <time>2010-09-23T10:01:26Z</time>
      </trkpt>
      <trkpt lat="45.28228" lon="4.45551">
        <ele>1145</ele>
        <time>2010-09-23T10:01:35Z</time>
      </trkpt>
      <trkpt lat="45.28229" lon="4.45537">
        <ele>1145</ele>
        <time>2010-09-23T10:01:45Z</time>
      </trkpt>
      <trkpt lat="45.28226" lon="4.45525">
        <ele>1144</ele>
        <time>2010-09-23T10:01:53Z</time>
      </trkpt>
      <trkpt lat="45.28225" lon="4.45511">
        <ele>1144</ele>
        <time>2010-09-23T10:02:02Z</time>
      </trkpt>
      <trkpt lat="45.28222" lon="4.45498">
        <ele>1140</ele>
        <time>2010-09-23T10:02:12Z</time>
      </trkpt>
      <trkpt lat="45.28218" lon="4.45486">
        <ele>1139</ele>
        <time>2010-09-23T10:02:21Z</time>
      </trkpt>
      <trkpt lat="45.28215" lon="4.45473">
        <ele>1138</ele>
        <time>2010-09-23T10:02:30Z</time>
      </trkpt>
      <trkpt lat="45.28216" lon="4.45459">
        <ele>1138</ele>
        <time>2010-09-23T10:02:39Z</time>
      </trkpt>
      <trkpt lat="45.28219" lon="4.45446">
        <ele>1137</ele>
        <time>2010-09-23T10:02:47Z</time>
      </trkpt>
      <trkpt lat="45.28222" lon="4.45432">
        <ele>1137</ele>
        <time>2010-09-23T10:02:55Z</time>
      </trkpt>
      <trkpt lat="45.28225" lon="4.45419">
        <ele>1137</ele>
        <time>2010-09-23T10:03:04Z</time>
      </trkpt>
      <trkpt lat="45.28227" lon="4.45404">
        <ele>1133</ele>
        <time>2010-09-23T10:03:13Z</time>
      </trkpt>
      <trkpt lat="45.28228" lon="4.45389">
        <ele>1132</ele>
        <time>2010-09-23T10:03:22Z</time>
      </trkpt>
      <trkpt lat="45.2823" lon="4.45375">
        <ele>1132</ele>
        <time>2010-09-23T10:03:30Z</time>
      </trkpt>
      <trkpt lat="45.28232" lon="4.45361">
        <ele>1131</ele>
        <time>2010-09-23T10:03:40Z</time>
      </trkpt>
      <trkpt lat="45.28233" lon="4.45346">
        <ele>1130</ele>
        <time>2010-09-23T10:03:52Z</time>
      </trkpt>
      <trkpt lat="45.28237" lon="4.45334">
        <ele>1130</ele>
        <time>2010-09-23T10:04:01Z</time>
      </trkpt>
      <trkpt lat="45.28242" lon="4.45321">
        <ele>1127</ele>
        <time>2010-09-23T10:04:10Z</time>
      </trkpt>
      <trkpt lat="45.28246" lon="4.45308">
        <ele>1126</ele>
        <time>2010-09-23T10:04:21Z</time>
      </trkpt>
      <trkpt lat="45.28251" lon="4.45296">
        <ele>1132</ele>
        <time>2010-09-23T10:04:30Z</time>
      </trkpt>
      <trkpt lat="45.28256" lon="4.45283">
        <ele>1131</ele>
        <time>2010-09-23T10:04:40Z</time>
      </trkpt>
      <trkpt lat="45.28263" lon="4.45274">
        <ele>1130</ele>
        <time>2010-09-23T10:04:48Z</time>
      </trkpt>
      <trkpt lat="45.28268" lon="4.45261">
        <ele>1129</ele>
        <time>2010-09-23T10:04:57Z</time>
      </trkpt>
      <trkpt lat="45.28273" lon="4.45249">
        <ele>1123</ele>
        <time>2010-09-23T10:05:06Z</time>
      </trkpt>
      <trkpt lat="45.28283" lon="4.45245">
        <ele>1124</ele>
        <time>2010-09-23T10:05:12Z</time>
      </trkpt>
      <trkpt lat="45.2828" lon="4.45231">
        <ele>1124</ele>
        <time>2010-09-23T10:05:20Z</time>
      </trkpt>
      <trkpt lat="45.28285" lon="4.45219">
        <ele>1124</ele>
        <time>2010-09-23T10:05:30Z</time>
      </trkpt>
      <trkpt lat="45.28292" lon="4.45209">
        <ele>1124</ele>
        <time>2010-09-23T10:05:38Z</time>
      </trkpt>
      <trkpt lat="45.28298" lon="4.45196">
        <ele>1124</ele>
        <time>2010-09-23T10:05:45Z</time>
      </trkpt>
      <trkpt lat="45.28301" lon="4.45184">
        <ele>1124</ele>
        <time>2010-09-23T10:05:53Z</time>
      </trkpt>
      <trkpt lat="45.28302" lon="4.4517">
        <ele>1123</ele>
        <time>2010-09-23T10:06:00Z</time>
      </trkpt>
      <trkpt lat="45.28311" lon="4.45161">
        <ele>1118</ele>
        <time>2010-09-23T10:06:08Z</time>
      </trkpt>
      <trkpt lat="45.28319" lon="4.45152">
        <ele>1119</ele>
        <time>2010-09-23T10:06:17Z</time>
      </trkpt>
      <trkpt lat="45.28318" lon="4.45137">
        <ele>1116</ele>
        <time>2010-09-23T10:06:26Z</time>
      </trkpt>
      <trkpt lat="45.28323" lon="4.45125">
        <ele>1115</ele>
        <time>2010-09-23T10:06:33Z</time>
      </trkpt>
      <trkpt lat="45.28323" lon="4.45112">
        <ele>1114</ele>
        <time>2010-09-23T10:06:44Z</time>
      </trkpt>
      <trkpt lat="45.28327" lon="4.45098">
        <ele>1113</ele>
        <time>2010-09-23T10:06:52Z</time>
      </trkpt>
      <trkpt lat="45.28329" lon="4.45086">
        <ele>1114</ele>
        <time>2010-09-23T10:07:00Z</time>
      </trkpt>
      <trkpt lat="45.28333" lon="4.45072">
        <ele>1109</ele>
        <time>2010-09-23T10:07:08Z</time>
      </trkpt>
      <trkpt lat="45.28339" lon="4.4506">
        <ele>1111</ele>
        <time>2010-09-23T10:07:16Z</time>
      </trkpt>
      <trkpt lat="45.28345" lon="4.4505">
        <ele>1110</ele>
        <time>2010-09-23T10:07:24Z</time>
      </trkpt>
      <trkpt lat="45.28341" lon="4.45035">
        <ele>1108</ele>
        <time>2010-09-23T10:07:34Z</time>
      </trkpt>
      <trkpt lat="45.28347" lon="4.45025">
        <ele>1107</ele>
        <time>2010-09-23T10:07:41Z</time>
      </trkpt>
      <trkpt lat="45.28352" lon="4.45012">
        <ele>1106</ele>
        <time>2010-09-23T10:07:52Z</time>
      </trkpt>
      <trkpt lat="45.28356" lon="4.44999">
        <ele>1098</ele>
        <time>2010-09-23T10:08:00Z</time>
      </trkpt>
      <trkpt lat="45.2836" lon="4.44988">
        <ele>1097</ele>
        <time>2010-09-23T10:08:09Z</time>
      </trkpt>
      <trkpt lat="45.28362" lon="4.44974">
        <ele>1096</ele>
        <time>2010-09-23T10:08:20Z</time>
      </trkpt>
      <trkpt lat="45.28363" lon="4.44961">
        <ele>1095</ele>
        <time>2010-09-23T10:08:30Z</time>
      </trkpt>
      <trkpt lat="45.28365" lon="4.44947">
        <ele>1094</ele>
        <time>2010-09-23T10:08:41Z</time>
      </trkpt>
      <trkpt lat="45.28364" lon="4.44934">
        <ele>1093</ele>
        <time>2010-09-23T10:08:51Z</time>
      </trkpt>
      <trkpt lat="45.28357" lon="4.44923">
        <ele>1092</ele>
        <time>2010-09-23T10:09:02Z</time>
      </trkpt>
      <trkpt lat="45.28356" lon="4.4491">
        <ele>1086</ele>
        <time>2010-09-23T10:09:13Z</time>
      </trkpt>
      <trkpt lat="45.28353" lon="4.44897">
        <ele>1086</ele>
        <time>2010-09-23T10:09:26Z</time>
      </trkpt>
      <trkpt lat="45.28355" lon="4.44884">
        <ele>1085</ele>
        <time>2010-09-23T10:09:38Z</time>
      </trkpt>
      <trkpt lat="45.28353" lon="4.44869">
        <ele>1084</ele>
        <time>2010-09-23T10:09:50Z</time>
      </trkpt>
      <trkpt lat="45.28351" lon="4.44855">
        <ele>1083</ele>
        <time>2010-09-23T10:10:01Z</time>
      </trkpt>
      <trkpt lat="45.2835" lon="4.44841">
        <ele>1082</ele>
        <time>2010-09-23T10:10:12Z</time>
      </trkpt>
      <trkpt lat="45.28351" lon="4.44828">
        <ele>1077</ele>
        <time>2010-09-23T10:10:22Z</time>
      </trkpt>
      <trkpt lat="45.28349" lon="4.44814">
        <ele>1076</ele>
        <time>2010-09-23T10:10:37Z</time>
      </trkpt>
      <trkpt lat="45.28348" lon="4.44801">
        <ele>1075</ele>
        <time>2010-09-23T10:10:50Z</time>
      </trkpt>
      <trkpt lat="45.28348" lon="4.44787">
        <ele>1074</ele>
        <time>2010-09-23T10:11:01Z</time>
      </trkpt>
      <trkpt lat="45.28348" lon="4.44774">
        <ele>1072</ele>
        <time>2010-09-23T10:11:11Z</time>
      </trkpt>
      <trkpt lat="45.28348" lon="4.4476">
        <ele>1071</ele>
        <time>2010-09-23T10:11:22Z</time>
      </trkpt>
      <trkpt lat="45.28349" lon="4.44746">
        <ele>1067</ele>
        <time>2010-09-23T10:11:34Z</time>
      </trkpt>
      <trkpt lat="45.28354" lon="4.44734">
        <ele>1067</ele>
        <time>2010-09-23T10:11:44Z</time>
      </trkpt>
      <trkpt lat="45.2836" lon="4.44724">
        <ele>1067</ele>
        <time>2010-09-23T10:11:54Z</time>
      </trkpt>
      <trkpt lat="45.28365" lon="4.44712">
        <ele>1067</ele>
        <time>2010-09-23T10:12:03Z</time>
      </trkpt>
      <trkpt lat="45.28368" lon="4.44699">
        <ele>1067</ele>
        <time>2010-09-23T10:12:10Z</time>
      </trkpt>
      <trkpt lat="45.28369" lon="4.44686">
        <ele>1066</ele>
        <time>2010-09-23T10:12:18Z</time>
      </trkpt>
      <trkpt lat="45.2837" lon="4.44672">
        <ele>1066</ele>
        <time>2010-09-23T10:12:26Z</time>
      </trkpt>
      <trkpt lat="45.28371" lon="4.44659">
        <ele>1065</ele>
        <time>2010-09-23T10:12:34Z</time>
      </trkpt>
      <trkpt lat="45.28372" lon="4.44645">
        <ele>1065</ele>
        <time>2010-09-23T10:12:43Z</time>
      </trkpt>
      <trkpt lat="45.28372" lon="4.4463">
        <ele>1065</ele>
        <time>2010-09-23T10:12:52Z</time>
      </trkpt>
      <trkpt lat="45.28372" lon="4.44616">
        <ele>1065</ele>
        <time>2010-09-23T10:13:01Z</time>
      </trkpt>
      <trkpt lat="45.28372" lon="4.44602">
        <ele>1065</ele>
        <time>2010-09-23T10:13:09Z</time>
      </trkpt>
      <trkpt lat="45.28372" lon="4.44589">
        <ele>1065</ele>
        <time>2010-09-23T10:13:17Z</time>
      </trkpt>
      <trkpt lat="45.28373" lon="4.44574">
        <ele>1066</ele>
        <time>2010-09-23T10:13:26Z</time>
      </trkpt>
      <trkpt lat="45.28374" lon="4.44561">
        <ele>1066</ele>
        <time>2010-09-23T10:13:34Z</time>
      </trkpt>
      <trkpt lat="45.28375" lon="4.44548">
        <ele>1066</ele>
        <time>2010-09-23T10:13:41Z</time>
      </trkpt>
      <trkpt lat="45.28376" lon="4.44533">
        <ele>1066</ele>
        <time>2010-09-23T10:13:49Z</time>
      </trkpt>
      <trkpt lat="45.28376" lon="4.4452">
        <ele>1066</ele>
        <time>2010-09-23T10:13:56Z</time>
      </trkpt>
      <trkpt lat="45.28374" lon="4.44506">
        <ele>1067</ele>
        <time>2010-09-23T10:14:05Z</time>
      </trkpt>
      <trkpt lat="45.28375" lon="4.44491">
        <ele>1067</ele>
        <time>2010-09-23T10:14:13Z</time>
      </trkpt>
      <trkpt lat="45.28374" lon="4.44477">
        <ele>1067</ele>
        <time>2010-09-23T10:14:22Z</time>
      </trkpt>
      <trkpt lat="45.28371" lon="4.4447">
        <ele>1067</ele>
        <time>2010-09-23T12:35:26Z</time>
      </trkpt>
      <trkpt lat="45.28388" lon="4.44462">
        <ele>1067</ele>
        <time>2010-09-23T12:35:28Z</time>
      </trkpt>
      <trkpt lat="45.28373" lon="4.44466">
        <ele>1067</ele>
        <time>2010-09-23T12:35:29Z</time>
      </trkpt>
      <trkpt lat="45.28383" lon="4.44461">
        <ele>1067</ele>
        <time>2010-09-23T12:35:30Z</time>
      </trkpt>
      <trkpt lat="45.28414" lon="4.44463">
        <ele>1067</ele>
        <time>2010-09-23T12:35:35Z</time>
      </trkpt>
      <trkpt lat="45.28404" lon="4.44465">
        <ele>1067</ele>
        <time>2010-09-23T12:35:43Z</time>
      </trkpt>
      <trkpt lat="45.28393" lon="4.44463">
        <ele>1067</ele>
        <time>2010-09-23T12:35:45Z</time>
      </trkpt>
      <trkpt lat="45.28383" lon="4.44461">
        <ele>1067</ele>
        <time>2010-09-23T12:35:52Z</time>
      </trkpt>
      <trkpt lat="45.28372" lon="4.44459">
        <ele>1067</ele>
        <time>2010-09-23T12:36:00Z</time>
      </trkpt>
      <trkpt lat="45.28383" lon="4.44461">
        <ele>1067</ele>
        <time>2010-09-23T12:36:11Z</time>
      </trkpt>
      <trkpt lat="45.28371" lon="4.4446">
        <ele>1067</ele>
        <time>2010-09-23T12:36:22Z</time>
      </trkpt>
      <trkpt lat="45.28362" lon="4.44456">
        <ele>1067</ele>
        <time>2010-09-23T12:36:31Z</time>
      </trkpt>
      <trkpt lat="45.28372" lon="4.44457">
        <ele>1067</ele>
        <time>2010-09-23T12:36:36Z</time>
      </trkpt>
      <trkpt lat="45.28389" lon="4.44459">
        <ele>1067</ele>
        <time>2010-09-23T12:36:40Z</time>
      </trkpt>
      <trkpt lat="45.28379" lon="4.44458">
        <ele>1067</ele>
        <time>2010-09-23T12:36:47Z</time>
      </trkpt>
      <trkpt lat="45.28369" lon="4.44463">
        <ele>1067</ele>
        <time>2010-09-23T12:36:55Z</time>
      </trkpt>
      <trkpt lat="45.28358" lon="4.44462">
        <ele>1067</ele>
        <time>2010-09-23T12:37:32Z</time>
      </trkpt>
      <trkpt lat="45.28348" lon="4.44459">
        <ele>1067</ele>
        <time>2010-09-23T12:37:36Z</time>
      </trkpt>
      <trkpt lat="45.28357" lon="4.44462">
        <ele>1067</ele>
        <time>2010-09-23T12:37:49Z</time>
      </trkpt>
      <trkpt lat="45.28367" lon="4.44468">
        <ele>1067</ele>
        <time>2010-09-23T12:38:15Z</time>
      </trkpt>
      <trkpt lat="45.28373" lon="4.44478">
        <ele>1067</ele>
        <time>2010-09-23T12:39:40Z</time>
      </trkpt>
      <trkpt lat="45.28376" lon="4.44491">
        <ele>1067</ele>
        <time>2010-09-23T12:40:30Z</time>
      </trkpt>
      <trkpt lat="45.28369" lon="4.44501">
        <ele>1067</ele>
        <time>2010-09-23T12:40:58Z</time>
      </trkpt>
      <trkpt lat="45.28371" lon="4.44514">
        <ele>1066</ele>
        <time>2010-09-23T12:41:28Z</time>
      </trkpt>
      <trkpt lat="45.28366" lon="4.44527">
        <ele>1066</ele>
        <time>2010-09-23T12:41:55Z</time>
      </trkpt>
      <trkpt lat="45.28369" lon="4.4454">
        <ele>1066</ele>
        <time>2010-09-23T12:42:04Z</time>
      </trkpt>
      <trkpt lat="45.2837" lon="4.44554">
        <ele>1066</ele>
        <time>2010-09-23T12:42:15Z</time>
      </trkpt>
      <trkpt lat="45.2837" lon="4.44567">
        <ele>1066</ele>
        <time>2010-09-23T12:42:26Z</time>
      </trkpt>
      <trkpt lat="45.28367" lon="4.44581">
        <ele>1066</ele>
        <time>2010-09-23T12:42:38Z</time>
      </trkpt>
      <trkpt lat="45.28366" lon="4.44595">
        <ele>1065</ele>
        <time>2010-09-23T12:42:49Z</time>
      </trkpt>
      <trkpt lat="45.28366" lon="4.44609">
        <ele>1065</ele>
        <time>2010-09-23T12:43:02Z</time>
      </trkpt>
      <trkpt lat="45.28362" lon="4.44621">
        <ele>1065</ele>
        <time>2010-09-23T12:43:19Z</time>
      </trkpt>
      <trkpt lat="45.28362" lon="4.44635">
        <ele>1065</ele>
        <time>2010-09-23T12:43:30Z</time>
      </trkpt>
      <trkpt lat="45.28364" lon="4.44648">
        <ele>1065</ele>
        <time>2010-09-23T12:43:36Z</time>
      </trkpt>
      <trkpt lat="45.28366" lon="4.44662">
        <ele>1065</ele>
        <time>2010-09-23T12:43:45Z</time>
      </trkpt>
      <trkpt lat="45.28363" lon="4.44675">
        <ele>1066</ele>
        <time>2010-09-23T12:43:55Z</time>
      </trkpt>
      <trkpt lat="45.28362" lon="4.44689">
        <ele>1066</ele>
        <time>2010-09-23T12:44:05Z</time>
      </trkpt>
      <trkpt lat="45.28359" lon="4.44702">
        <ele>1067</ele>
        <time>2010-09-23T12:44:17Z</time>
      </trkpt>
      <trkpt lat="45.28353" lon="4.44713">
        <ele>1067</ele>
        <time>2010-09-23T12:44:30Z</time>
      </trkpt>
      <trkpt lat="45.28349" lon="4.44725">
        <ele>1067</ele>
        <time>2010-09-23T12:44:44Z</time>
      </trkpt>
      <trkpt lat="45.28345" lon="4.44736">
        <ele>1067</ele>
        <time>2010-09-23T12:44:58Z</time>
      </trkpt>
      <trkpt lat="45.28343" lon="4.4475">
        <ele>1067</ele>
        <time>2010-09-23T12:45:13Z</time>
      </trkpt>
      <trkpt lat="45.28344" lon="4.44763">
        <ele>1070</ele>
        <time>2010-09-23T12:45:27Z</time>
      </trkpt>
      <trkpt lat="45.28344" lon="4.44777">
        <ele>1072</ele>
        <time>2010-09-23T12:45:40Z</time>
      </trkpt>
      <trkpt lat="45.28344" lon="4.4479">
        <ele>1074</ele>
        <time>2010-09-23T12:45:57Z</time>
      </trkpt>
      <trkpt lat="45.28344" lon="4.44804">
        <ele>1075</ele>
        <time>2010-09-23T12:46:19Z</time>
      </trkpt>
      <trkpt lat="45.28345" lon="4.44817">
        <ele>1076</ele>
        <time>2010-09-23T12:46:36Z</time>
      </trkpt>
      <trkpt lat="45.28343" lon="4.44831">
        <ele>1077</ele>
        <time>2010-09-23T12:47:00Z</time>
      </trkpt>
      <trkpt lat="45.28343" lon="4.44845">
        <ele>1081</ele>
        <time>2010-09-23T12:47:22Z</time>
      </trkpt>
      <trkpt lat="45.28346" lon="4.44859">
        <ele>1083</ele>
        <time>2010-09-23T12:47:36Z</time>
      </trkpt>
      <trkpt lat="45.28345" lon="4.44873">
        <ele>1084</ele>
        <time>2010-09-23T12:47:55Z</time>
      </trkpt>
      <trkpt lat="45.28346" lon="4.44886">
        <ele>1085</ele>
        <time>2010-09-23T12:48:09Z</time>
      </trkpt>
      <trkpt lat="45.28347" lon="4.449">
        <ele>1086</ele>
        <time>2010-09-23T12:48:30Z</time>
      </trkpt>
      <trkpt lat="45.28352" lon="4.44911">
        <ele>1086</ele>
        <time>2010-09-23T12:48:42Z</time>
      </trkpt>
      <trkpt lat="45.28358" lon="4.44923">
        <ele>1092</ele>
        <time>2010-09-23T12:49:02Z</time>
      </trkpt>
      <trkpt lat="45.28359" lon="4.44937">
        <ele>1093</ele>
        <time>2010-09-23T12:49:11Z</time>
      </trkpt>
      <trkpt lat="45.28359" lon="4.4495">
        <ele>1094</ele>
        <time>2010-09-23T12:49:27Z</time>
      </trkpt>
      <trkpt lat="45.28353" lon="4.4496">
        <ele>1095</ele>
        <time>2010-09-23T12:49:48Z</time>
      </trkpt>
      <trkpt lat="45.28357" lon="4.44972">
        <ele>1096</ele>
        <time>2010-09-23T12:49:58Z</time>
      </trkpt>
      <trkpt lat="45.28352" lon="4.44984">
        <ele>1097</ele>
        <time>2010-09-23T12:50:18Z</time>
      </trkpt>
      <trkpt lat="45.28348" lon="4.44996">
        <ele>1098</ele>
        <time>2010-09-23T12:50:29Z</time>
      </trkpt>
      <trkpt lat="45.28343" lon="4.45007">
        <ele>1103</ele>
        <time>2010-09-23T12:50:39Z</time>
      </trkpt>
      <trkpt lat="45.28344" lon="4.45021">
        <ele>1106</ele>
        <time>2010-09-23T12:50:53Z</time>
      </trkpt>
      <trkpt lat="45.28336" lon="4.45029">
        <ele>1107</ele>
        <time>2010-09-23T12:51:01Z</time>
      </trkpt>
      <trkpt lat="45.28334" lon="4.45043">
        <ele>1109</ele>
        <time>2010-09-23T12:51:09Z</time>
      </trkpt>
      <trkpt lat="45.28329" lon="4.45055">
        <ele>1104</ele>
        <time>2010-09-23T12:51:19Z</time>
      </trkpt>
      <trkpt lat="45.28327" lon="4.45069">
        <ele>1107</ele>
        <time>2010-09-23T12:51:28Z</time>
      </trkpt>
      <trkpt lat="45.28324" lon="4.45082">
        <ele>1110</ele>
        <time>2010-09-23T12:51:39Z</time>
      </trkpt>
      <trkpt lat="45.28319" lon="4.45093">
        <ele>1113</ele>
        <time>2010-09-23T12:51:51Z</time>
      </trkpt>
      <trkpt lat="45.28318" lon="4.45107">
        <ele>1113</ele>
        <time>2010-09-23T12:52:03Z</time>
      </trkpt>
      <trkpt lat="45.28313" lon="4.45119">
        <ele>1114</ele>
        <time>2010-09-23T12:52:15Z</time>
      </trkpt>
      <trkpt lat="45.28306" lon="4.45131">
        <ele>1114</ele>
        <time>2010-09-23T12:52:28Z</time>
      </trkpt>
      <trkpt lat="45.28298" lon="4.4514">
        <ele>1114</ele>
        <time>2010-09-23T12:52:35Z</time>
      </trkpt>
      <trkpt lat="45.28298" lon="4.45153">
        <ele>1115</ele>
        <time>2010-09-23T12:52:47Z</time>
      </trkpt>
      <trkpt lat="45.28297" lon="4.45166">
        <ele>1115</ele>
        <time>2010-09-23T12:52:54Z</time>
      </trkpt>
      <trkpt lat="45.28289" lon="4.45177">
        <ele>1122</ele>
        <time>2010-09-23T12:53:02Z</time>
      </trkpt>
      <trkpt lat="45.28289" lon="4.45194">
        <ele>1123</ele>
        <time>2010-09-23T12:53:21Z</time>
      </trkpt>
      <trkpt lat="45.28288" lon="4.4521">
        <ele>1124</ele>
        <time>2010-09-23T12:53:30Z</time>
      </trkpt>
      <trkpt lat="45.28281" lon="4.45219">
        <ele>1123</ele>
        <time>2010-09-23T12:53:42Z</time>
      </trkpt>
      <trkpt lat="45.28275" lon="4.45229">
        <ele>1123</ele>
        <time>2010-09-23T12:53:48Z</time>
      </trkpt>
      <trkpt lat="45.28279" lon="4.45243">
        <ele>1124</ele>
        <time>2010-09-23T12:53:55Z</time>
      </trkpt>
      <trkpt lat="45.2827" lon="4.45248">
        <ele>1123</ele>
        <time>2010-09-23T12:54:04Z</time>
      </trkpt>
      <trkpt lat="45.28263" lon="4.45256">
        <ele>1126</ele>
        <time>2010-09-23T12:54:14Z</time>
      </trkpt>
      <trkpt lat="45.28256" lon="4.45267">
        <ele>1127</ele>
        <time>2010-09-23T12:54:25Z</time>
      </trkpt>
      <trkpt lat="45.28251" lon="4.45281">
        <ele>1130</ele>
        <time>2010-09-23T12:54:35Z</time>
      </trkpt>
      <trkpt lat="45.28246" lon="4.45293">
        <ele>1124</ele>
        <time>2010-09-23T12:54:45Z</time>
      </trkpt>
      <trkpt lat="45.2824" lon="4.45307">
        <ele>1125</ele>
        <time>2010-09-23T12:54:57Z</time>
      </trkpt>
      <trkpt lat="45.28235" lon="4.45318">
        <ele>1126</ele>
        <time>2010-09-23T12:55:09Z</time>
      </trkpt>
      <trkpt lat="45.28234" lon="4.45333">
        <ele>1127</ele>
        <time>2010-09-23T12:55:19Z</time>
      </trkpt>
      <trkpt lat="45.2823" lon="4.45345">
        <ele>1130</ele>
        <time>2010-09-23T12:55:30Z</time>
      </trkpt>
      <trkpt lat="45.28228" lon="4.45359">
        <ele>1131</ele>
        <time>2010-09-23T12:55:42Z</time>
      </trkpt>
      <trkpt lat="45.28223" lon="4.4537">
        <ele>1131</ele>
        <time>2010-09-23T12:55:53Z</time>
      </trkpt>
      <trkpt lat="45.2822" lon="4.45383">
        <ele>1132</ele>
        <time>2010-09-23T12:56:03Z</time>
      </trkpt>
      <trkpt lat="45.28217" lon="4.45396">
        <ele>1132</ele>
        <time>2010-09-23T12:56:13Z</time>
      </trkpt>
      <trkpt lat="45.28217" lon="4.45409">
        <ele>1133</ele>
        <time>2010-09-23T12:56:22Z</time>
      </trkpt>
      <trkpt lat="45.28214" lon="4.45422">
        <ele>1136</ele>
        <time>2010-09-23T12:56:33Z</time>
      </trkpt>
      <trkpt lat="45.28214" lon="4.45436">
        <ele>1137</ele>
        <time>2010-09-23T12:56:42Z</time>
      </trkpt>
      <trkpt lat="45.28208" lon="4.45448">
        <ele>1137</ele>
        <time>2010-09-23T12:56:51Z</time>
      </trkpt>
      <trkpt lat="45.28206" lon="4.45462">
        <ele>1137</ele>
        <time>2010-09-23T12:57:02Z</time>
      </trkpt>
      <trkpt lat="45.28208" lon="4.45475">
        <ele>1138</ele>
        <time>2010-09-23T12:57:18Z</time>
      </trkpt>
      <trkpt lat="45.28215" lon="4.45485">
        <ele>1139</ele>
        <time>2010-09-23T12:57:26Z</time>
      </trkpt>
      <trkpt lat="45.28215" lon="4.45499">
        <ele>1139</ele>
        <time>2010-09-23T12:57:39Z</time>
      </trkpt>
      <trkpt lat="45.28217" lon="4.45511">
        <ele>1143</ele>
        <time>2010-09-23T12:57:48Z</time>
      </trkpt>
      <trkpt lat="45.28216" lon="4.45525">
        <ele>1144</ele>
        <time>2010-09-23T12:58:02Z</time>
      </trkpt>
      <trkpt lat="45.28218" lon="4.45538">
        <ele>1144</ele>
        <time>2010-09-23T12:58:18Z</time>
      </trkpt>
      <trkpt lat="45.28218" lon="4.45552">
        <ele>1145</ele>
        <time>2010-09-23T12:58:33Z</time>
      </trkpt>
      <trkpt lat="45.28215" lon="4.45564">
        <ele>1145</ele>
        <time>2010-09-23T12:58:42Z</time>
      </trkpt>
      <trkpt lat="45.28213" lon="4.45578">
        <ele>1145</ele>
        <time>2010-09-23T12:58:53Z</time>
      </trkpt>
      <trkpt lat="45.28208" lon="4.4559">
        <ele>1150</ele>
        <time>2010-09-23T12:59:04Z</time>
      </trkpt>
      <trkpt lat="45.28207" lon="4.45604">
        <ele>1151</ele>
        <time>2010-09-23T12:59:14Z</time>
      </trkpt>
      <trkpt lat="45.28203" lon="4.45616">
        <ele>1151</ele>
        <time>2010-09-23T12:59:27Z</time>
      </trkpt>
      <trkpt lat="45.282" lon="4.45628">
        <ele>1152</ele>
        <time>2010-09-23T12:59:37Z</time>
      </trkpt>
      <trkpt lat="45.28208" lon="4.45634">
        <ele>1153</ele>
        <time>2010-09-23T12:59:44Z</time>
      </trkpt>
      <trkpt lat="45.28218" lon="4.45632">
        <ele>1153</ele>
        <time>2010-09-23T12:59:54Z</time>
      </trkpt>
      <trkpt lat="45.28228" lon="4.45632">
        <ele>1153</ele>
        <time>2010-09-23T13:00:09Z</time>
      </trkpt>
      <trkpt lat="45.28237" lon="4.45626">
        <ele>1153</ele>
        <time>2010-09-23T13:00:27Z</time>
      </trkpt>
      <trkpt lat="45.28247" lon="4.45623">
        <ele>1153</ele>
        <time>2010-09-23T13:00:33Z</time>
      </trkpt>
      <trkpt lat="45.28255" lon="4.45615">
        <ele>1160</ele>
        <time>2010-09-23T13:00:45Z</time>
      </trkpt>
      <trkpt lat="45.28263" lon="4.45608">
        <ele>1160</ele>
        <time>2010-09-23T13:00:56Z</time>
      </trkpt>
      <trkpt lat="45.2827" lon="4.45619">
        <ele>1162</ele>
        <time>2010-09-23T13:01:20Z</time>
      </trkpt>
      <trkpt lat="45.28271" lon="4.45633">
        <ele>1163</ele>
        <time>2010-09-23T13:01:32Z</time>
      </trkpt>
      <trkpt lat="45.28272" lon="4.45646">
        <ele>1163</ele>
        <time>2010-09-23T13:01:45Z</time>
      </trkpt>
      <trkpt lat="45.28273" lon="4.4566">
        <ele>1163</ele>
        <time>2010-09-23T13:01:55Z</time>
      </trkpt>
      <trkpt lat="45.28277" lon="4.45673">
        <ele>1167</ele>
        <time>2010-09-23T13:02:05Z</time>
      </trkpt>
      <trkpt lat="45.28275" lon="4.45687">
        <ele>1167</ele>
        <time>2010-09-23T13:02:16Z</time>
      </trkpt>
      <trkpt lat="45.28276" lon="4.45701">
        <ele>1169</ele>
        <time>2010-09-23T13:02:28Z</time>
      </trkpt>
      <trkpt lat="45.28276" lon="4.45714">
        <ele>1169</ele>
        <time>2010-09-23T13:02:40Z</time>
      </trkpt>
      <trkpt lat="45.28275" lon="4.45728">
        <ele>1170</ele>
        <time>2010-09-23T13:02:54Z</time>
      </trkpt>
      <trkpt lat="45.28271" lon="4.45741">
        <ele>1170</ele>
        <time>2010-09-23T13:03:06Z</time>
      </trkpt>
      <trkpt lat="45.28268" lon="4.45755">
        <ele>1174</ele>
        <time>2010-09-23T13:03:17Z</time>
      </trkpt>
      <trkpt lat="45.28261" lon="4.45766">
        <ele>1174</ele>
        <time>2010-09-23T13:03:43Z</time>
      </trkpt>
      <trkpt lat="45.28255" lon="4.45776">
        <ele>1175</ele>
        <time>2010-09-23T13:03:48Z</time>
      </trkpt>
      <trkpt lat="45.28246" lon="4.45781">
        <ele>1173</ele>
        <time>2010-09-23T13:04:03Z</time>
      </trkpt>
      <trkpt lat="45.28235" lon="4.45782">
        <ele>1173</ele>
        <time>2010-09-23T13:04:13Z</time>
      </trkpt>
      <trkpt lat="45.28225" lon="4.45783">
        <ele>1173</ele>
        <time>2010-09-23T13:04:28Z</time>
      </trkpt>
      <trkpt lat="45.28215" lon="4.45789">
        <ele>1174</ele>
        <time>2010-09-23T13:04:39Z</time>
      </trkpt>
      <trkpt lat="45.28206" lon="4.45794">
        <ele>1174</ele>
        <time>2010-09-23T13:04:49Z</time>
      </trkpt>
      <trkpt lat="45.28197" lon="4.45798">
        <ele>1174</ele>
        <time>2010-09-23T13:04:58Z</time>
      </trkpt>
      <trkpt lat="45.28188" lon="4.45802">
        <ele>1174</ele>
        <time>2010-09-23T13:05:09Z</time>
      </trkpt>
      <trkpt lat="45.28178" lon="4.45808">
        <ele>1175</ele>
        <time>2010-09-23T13:05:22Z</time>
      </trkpt>
      <trkpt lat="45.28168" lon="4.4581">
        <ele>1175</ele>
        <time>2010-09-23T13:05:32Z</time>
      </trkpt>
      <trkpt lat="45.28159" lon="4.45814">
        <ele>1176</ele>
        <time>2010-09-23T13:05:42Z</time>
      </trkpt>
      <trkpt lat="45.2815" lon="4.45818">
        <ele>1176</ele>
        <time>2010-09-23T13:05:53Z</time>
      </trkpt>
      <trkpt lat="45.2814" lon="4.45821">
        <ele>1176</ele>
        <time>2010-09-23T13:06:00Z</time>
      </trkpt>
      <trkpt lat="45.28135" lon="4.45833">
        <ele>1176</ele>
        <time>2010-09-23T13:06:13Z</time>
      </trkpt>
      <trkpt lat="45.28128" lon="4.45846">
        <ele>1183</ele>
        <time>2010-09-23T13:06:24Z</time>
      </trkpt>
      <trkpt lat="45.28121" lon="4.45855">
        <ele>1184</ele>
        <time>2010-09-23T13:06:38Z</time>
      </trkpt>
      <trkpt lat="45.28114" lon="4.45864">
        <ele>1184</ele>
        <time>2010-09-23T13:06:53Z</time>
      </trkpt>
      <trkpt lat="45.28105" lon="4.4587">
        <ele>1185</ele>
        <time>2010-09-23T13:07:02Z</time>
      </trkpt>
      <trkpt lat="45.28096" lon="4.45874">
        <ele>1185</ele>
        <time>2010-09-23T13:07:11Z</time>
      </trkpt>
      <trkpt lat="45.28086" lon="4.45876">
        <ele>1185</ele>
        <time>2010-09-23T13:07:18Z</time>
      </trkpt>
      <trkpt lat="45.28085" lon="4.4589">
        <ele>1186</ele>
        <time>2010-09-23T13:07:28Z</time>
      </trkpt>
      <trkpt lat="45.2808" lon="4.45901">
        <ele>1188</ele>
        <time>2010-09-23T13:07:39Z</time>
      </trkpt>
      <trkpt lat="45.28072" lon="4.45908">
        <ele>1188</ele>
        <time>2010-09-23T13:07:48Z</time>
      </trkpt>
      <trkpt lat="45.28065" lon="4.45918">
        <ele>1192</ele>
        <time>2010-09-23T13:07:56Z</time>
      </trkpt>
      <trkpt lat="45.28055" lon="4.45918">
        <ele>1193</ele>
        <time>2010-09-23T13:08:08Z</time>
      </trkpt>
      <trkpt lat="45.28046" lon="4.45926">
        <ele>1193</ele>
        <time>2010-09-23T13:08:17Z</time>
      </trkpt>
      <trkpt lat="45.28039" lon="4.45936">
        <ele>1194</ele>
        <time>2010-09-23T13:08:25Z</time>
      </trkpt>
      <trkpt lat="45.28029" lon="4.45939">
        <ele>1194</ele>
        <time>2010-09-23T13:08:35Z</time>
      </trkpt>
      <trkpt lat="45.28021" lon="4.45951">
        <ele>1194</ele>
        <time>2010-09-23T13:08:53Z</time>
      </trkpt>
      <trkpt lat="45.28015" lon="4.45961">
        <ele>1195</ele>
        <time>2010-09-23T13:09:04Z</time>
      </trkpt>
      <trkpt lat="45.28001" lon="4.4597">
        <ele>1195</ele>
        <time>2010-09-23T13:09:12Z</time>
      </trkpt>
      <trkpt lat="45.27992" lon="4.45976">
        <ele>1195</ele>
        <time>2010-09-23T13:09:22Z</time>
      </trkpt>
      <trkpt lat="45.27983" lon="4.4598">
        <ele>1195</ele>
        <time>2010-09-23T13:09:31Z</time>
      </trkpt>
      <trkpt lat="45.27974" lon="4.45985">
        <ele>1195</ele>
        <time>2010-09-23T13:09:42Z</time>
      </trkpt>
      <trkpt lat="45.27967" lon="4.45995">
        <ele>1195</ele>
        <time>2010-09-23T13:09:50Z</time>
      </trkpt>
      <trkpt lat="45.27958" lon="4.46001">
        <ele>1198</ele>
        <time>2010-09-23T13:10:01Z</time>
      </trkpt>
      <trkpt lat="45.27947" lon="4.46006">
        <ele>1198</ele>
        <time>2010-09-23T13:10:08Z</time>
      </trkpt>
      <trkpt lat="45.27943" lon="4.46018">
        <ele>1198</ele>
        <time>2010-09-23T13:10:15Z</time>
      </trkpt>
      <trkpt lat="45.27937" lon="4.46028">
        <ele>1198</ele>
        <time>2010-09-23T13:10:26Z</time>
      </trkpt>
      <trkpt lat="45.27927" lon="4.46032">
        <ele>1198</ele>
        <time>2010-09-23T13:10:31Z</time>
      </trkpt>
      <trkpt lat="45.27925" lon="4.46047">
        <ele>1198</ele>
        <time>2010-09-23T13:10:41Z</time>
      </trkpt>
      <trkpt lat="45.2792" lon="4.46059">
        <ele>1198</ele>
        <time>2010-09-23T13:10:53Z</time>
      </trkpt>
      <trkpt lat="45.27914" lon="4.46069">
        <ele>1197</ele>
        <time>2010-09-23T13:11:00Z</time>
      </trkpt>
      <trkpt lat="45.27904" lon="4.46074">
        <ele>1197</ele>
        <time>2010-09-23T13:11:07Z</time>
      </trkpt>
      <trkpt lat="45.27898" lon="4.46084">
        <ele>1200</ele>
        <time>2010-09-23T13:11:24Z</time>
      </trkpt>
      <trkpt lat="45.27889" lon="4.46091">
        <ele>1200</ele>
        <time>2010-09-23T13:11:33Z</time>
      </trkpt>
      <trkpt lat="45.27881" lon="4.46102">
        <ele>1200</ele>
        <time>2010-09-23T13:11:43Z</time>
      </trkpt>
      <trkpt lat="45.27872" lon="4.46108">
        <ele>1201</ele>
        <time>2010-09-23T13:11:52Z</time>
      </trkpt>
      <trkpt lat="45.27862" lon="4.4611">
        <ele>1200</ele>
        <time>2010-09-23T13:12:00Z</time>
      </trkpt>
      <trkpt lat="45.27853" lon="4.46113">
        <ele>1201</ele>
        <time>2010-09-23T13:12:07Z</time>
      </trkpt>
      <trkpt lat="45.27844" lon="4.46116">
        <ele>1201</ele>
        <time>2010-09-23T13:12:17Z</time>
      </trkpt>
      <trkpt lat="45.27833" lon="4.46121">
        <ele>1201</ele>
        <time>2010-09-23T13:12:28Z</time>
      </trkpt>
      <trkpt lat="45.27825" lon="4.46126">
        <ele>1202</ele>
        <time>2010-09-23T13:12:36Z</time>
      </trkpt>
      <trkpt lat="45.27816" lon="4.46129">
        <ele>1202</ele>
        <time>2010-09-23T13:12:45Z</time>
      </trkpt>
      <trkpt lat="45.27806" lon="4.46133">
        <ele>1202</ele>
        <time>2010-09-23T13:12:52Z</time>
      </trkpt>
      <trkpt lat="45.27796" lon="4.46134">
        <ele>1203</ele>
        <time>2010-09-23T13:13:39Z</time>
      </trkpt>
      <trkpt lat="45.27787" lon="4.4614">
        <ele>1203</ele>
        <time>2010-09-23T13:15:44Z</time>
      </trkpt>
      <trkpt lat="45.27776" lon="4.46139">
        <ele>1203</ele>
        <time>2010-09-23T13:15:53Z</time>
      </trkpt>
      <trkpt lat="45.27766" lon="4.46139">
        <ele>1204</ele>
        <time>2010-09-23T13:16:01Z</time>
      </trkpt>
      <trkpt lat="45.27757" lon="4.46134">
        <ele>1203</ele>
        <time>2010-09-23T13:16:07Z</time>
      </trkpt>
      <trkpt lat="45.27754" lon="4.46147">
        <ele>1205</ele>
        <time>2010-09-23T13:16:20Z</time>
      </trkpt>
      <trkpt lat="45.27746" lon="4.46153">
        <ele>1205</ele>
        <time>2010-09-23T13:16:30Z</time>
      </trkpt>
      <trkpt lat="45.27736" lon="4.4616">
        <ele>1204</ele>
        <time>2010-09-23T13:16:39Z</time>
      </trkpt>
      <trkpt lat="45.27729" lon="4.46169">
        <ele>1209</ele>
        <time>2010-09-23T13:16:48Z</time>
      </trkpt>
      <trkpt lat="45.27721" lon="4.46177">
        <ele>1208</ele>
        <time>2010-09-23T13:16:58Z</time>
      </trkpt>
      <trkpt lat="45.27712" lon="4.46182">
        <ele>1208</ele>
        <time>2010-09-23T13:17:05Z</time>
      </trkpt>
      <trkpt lat="45.27703" lon="4.46188">
        <ele>1208</ele>
        <time>2010-09-23T13:17:11Z</time>
      </trkpt>
      <trkpt lat="45.27697" lon="4.46199">
        <ele>1208</ele>
        <time>2010-09-23T13:17:18Z</time>
      </trkpt>
      <trkpt lat="45.27688" lon="4.462">
        <ele>1207</ele>
        <time>2010-09-23T13:17:23Z</time>
      </trkpt>
      <trkpt lat="45.27679" lon="4.46196">
        <ele>1206</ele>
        <time>2010-09-23T13:17:32Z</time>
      </trkpt>
      <trkpt lat="45.2767" lon="4.46204">
        <ele>1207</ele>
        <time>2010-09-23T13:17:43Z</time>
      </trkpt>
      <trkpt lat="45.27663" lon="4.46215">
        <ele>1202</ele>
        <time>2010-09-23T13:17:52Z</time>
      </trkpt>
      <trkpt lat="45.27655" lon="4.46221">
        <ele>1202</ele>
        <time>2010-09-23T13:17:59Z</time>
      </trkpt>
      <trkpt lat="45.27645" lon="4.46223">
        <ele>1202</ele>
        <time>2010-09-23T13:18:07Z</time>
      </trkpt>
      <trkpt lat="45.27639" lon="4.46235">
        <ele>1202</ele>
        <time>2010-09-23T13:18:15Z</time>
      </trkpt>
      <trkpt lat="45.27638" lon="4.46249">
        <ele>1203</ele>
        <time>2010-09-23T13:18:22Z</time>
      </trkpt>
      <trkpt lat="45.27633" lon="4.46261">
        <ele>1207</ele>
        <time>2010-09-23T13:18:31Z</time>
      </trkpt>
      <trkpt lat="45.27627" lon="4.46271">
        <ele>1206</ele>
        <time>2010-09-23T13:18:41Z</time>
      </trkpt>
      <trkpt lat="45.27621" lon="4.46283">
        <ele>1206</ele>
        <time>2010-09-23T13:18:50Z</time>
      </trkpt>
      <trkpt lat="45.27617" lon="4.46295">
        <ele>1206</ele>
        <time>2010-09-23T13:18:58Z</time>
      </trkpt>
      <trkpt lat="45.2761" lon="4.46305">
        <ele>1206</ele>
        <time>2010-09-23T13:19:09Z</time>
      </trkpt>
      <trkpt lat="45.27603" lon="4.46316">
        <ele>1206</ele>
        <time>2010-09-23T13:19:17Z</time>
      </trkpt>
      <trkpt lat="45.27595" lon="4.46325">
        <ele>1206</ele>
        <time>2010-09-23T13:19:28Z</time>
      </trkpt>
      <trkpt lat="45.27589" lon="4.46338">
        <ele>1207</ele>
        <time>2010-09-23T13:19:40Z</time>
      </trkpt>
      <trkpt lat="45.27585" lon="4.4635">
        <ele>1208</ele>
        <time>2010-09-23T13:19:51Z</time>
      </trkpt>
      <trkpt lat="45.27582" lon="4.46363">
        <ele>1204</ele>
        <time>2010-09-23T13:20:01Z</time>
      </trkpt>
      <trkpt lat="45.27573" lon="4.4637">
        <ele>1204</ele>
        <time>2010-09-23T13:20:15Z</time>
      </trkpt>
      <trkpt lat="45.27564" lon="4.46376">
        <ele>1204</ele>
        <time>2010-09-23T13:20:27Z</time>
      </trkpt>
      <trkpt lat="45.27558" lon="4.46385">
        <ele>1203</ele>
        <time>2010-09-23T13:20:35Z</time>
      </trkpt>
      <trkpt lat="45.27557" lon="4.46399">
        <ele>1204</ele>
        <time>2010-09-23T13:20:45Z</time>
      </trkpt>
      <trkpt lat="45.27548" lon="4.46403">
        <ele>1203</ele>
        <time>2010-09-23T13:20:59Z</time>
      </trkpt>
      <trkpt lat="45.27539" lon="4.46398">
        <ele>1202</ele>
        <time>2010-09-23T13:21:10Z</time>
      </trkpt>
      <trkpt lat="45.27528" lon="4.46397">
        <ele>1202</ele>
        <time>2010-09-23T13:21:19Z</time>
      </trkpt>
      <trkpt lat="45.27519" lon="4.46396">
        <ele>1201</ele>
        <time>2010-09-23T13:21:27Z</time>
      </trkpt>
      <trkpt lat="45.27509" lon="4.46393">
        <ele>1201</ele>
        <time>2010-09-23T13:21:39Z</time>
      </trkpt>
      <trkpt lat="45.27499" lon="4.46392">
        <ele>1196</ele>
        <time>2010-09-23T13:21:51Z</time>
      </trkpt>
      <trkpt lat="45.27489" lon="4.46394">
        <ele>1196</ele>
        <time>2010-09-23T13:22:01Z</time>
      </trkpt>
      <trkpt lat="45.2748" lon="4.46398">
        <ele>1196</ele>
        <time>2010-09-23T13:22:12Z</time>
      </trkpt>
      <trkpt lat="45.27471" lon="4.46399">
        <ele>1196</ele>
        <time>2010-09-23T13:22:23Z</time>
      </trkpt>
      <trkpt lat="45.27461" lon="4.46397">
        <ele>1195</ele>
        <time>2010-09-23T13:22:35Z</time>
      </trkpt>
      <trkpt lat="45.27452" lon="4.46399">
        <ele>1195</ele>
        <time>2010-09-23T13:22:45Z</time>
      </trkpt>
      <trkpt lat="45.27442" lon="4.46399">
        <ele>1194</ele>
        <time>2010-09-23T13:22:54Z</time>
      </trkpt>
      <trkpt lat="45.27433" lon="4.46404">
        <ele>1194</ele>
        <time>2010-09-23T13:23:03Z</time>
      </trkpt>
      <trkpt lat="45.27424" lon="4.46412">
        <ele>1194</ele>
        <time>2010-09-23T13:23:14Z</time>
      </trkpt>
      <trkpt lat="45.27415" lon="4.46416">
        <ele>1193</ele>
        <time>2010-09-23T13:23:22Z</time>
      </trkpt>
      <trkpt lat="45.27406" lon="4.46418">
        <ele>1192</ele>
        <time>2010-09-23T13:23:32Z</time>
      </trkpt>
      <trkpt lat="45.27396" lon="4.46421">
        <ele>1191</ele>
        <time>2010-09-23T13:23:41Z</time>
      </trkpt>
      <trkpt lat="45.27387" lon="4.46427">
        <ele>1191</ele>
        <time>2010-09-23T13:23:52Z</time>
      </trkpt>
      <trkpt lat="45.27377" lon="4.46429">
        <ele>1190</ele>
        <time>2010-09-23T13:24:02Z</time>
      </trkpt>
      <trkpt lat="45.27367" lon="4.46429">
        <ele>1190</ele>
        <time>2010-09-23T13:24:09Z</time>
      </trkpt>
      <trkpt lat="45.27357" lon="4.4643">
        <ele>1190</ele>
        <time>2010-09-23T13:24:17Z</time>
      </trkpt>
      <trkpt lat="45.27348" lon="4.46429">
        <ele>1190</ele>
        <time>2010-09-23T13:24:25Z</time>
      </trkpt>
      <trkpt lat="45.27337" lon="4.46426">
        <ele>1189</ele>
        <time>2010-09-23T13:24:33Z</time>
      </trkpt>
      <trkpt lat="45.27327" lon="4.46429">
        <ele>1188</ele>
        <time>2010-09-23T13:24:42Z</time>
      </trkpt>
      <trkpt lat="45.27318" lon="4.46433">
        <ele>1188</ele>
        <time>2010-09-23T13:25:28Z</time>
      </trkpt>
      <trkpt lat="45.2731" lon="4.46437">
        <ele>1188</ele>
        <time>2010-09-23T13:25:38Z</time>
      </trkpt>
      <trkpt lat="45.273" lon="4.46434">
        <ele>1188</ele>
        <time>2010-09-23T13:25:48Z</time>
      </trkpt>
      <trkpt lat="45.27292" lon="4.46426">
        <ele>1188</ele>
        <time>2010-09-23T13:25:56Z</time>
      </trkpt>
      <trkpt lat="45.27283" lon="4.46419">
        <ele>1188</ele>
        <time>2010-09-23T13:26:05Z</time>
      </trkpt>
      <trkpt lat="45.27275" lon="4.46412">
        <ele>1187</ele>
        <time>2010-09-23T13:26:13Z</time>
      </trkpt>
      <trkpt lat="45.27267" lon="4.46403">
        <ele>1187</ele>
        <time>2010-09-23T13:26:23Z</time>
      </trkpt>
      <trkpt lat="45.2726" lon="4.46394">
        <ele>1187</ele>
        <time>2010-09-23T13:26:33Z</time>
      </trkpt>
      <trkpt lat="45.27252" lon="4.46386">
        <ele>1186</ele>
        <time>2010-09-23T13:26:43Z</time>
      </trkpt>
      <trkpt lat="45.27244" lon="4.46378">
        <ele>1183</ele>
        <time>2010-09-23T13:26:53Z</time>
      </trkpt>
      <trkpt lat="45.27237" lon="4.4637">
        <ele>1183</ele>
        <time>2010-09-23T13:27:04Z</time>
      </trkpt>
      <trkpt lat="45.27228" lon="4.46362">
        <ele>1182</ele>
        <time>2010-09-23T13:27:14Z</time>
      </trkpt>
      <trkpt lat="45.27221" lon="4.46351">
        <ele>1182</ele>
        <time>2010-09-23T13:27:25Z</time>
      </trkpt>
      <trkpt lat="45.27218" lon="4.46338">
        <ele>1181</ele>
        <time>2010-09-23T13:27:37Z</time>
      </trkpt>
      <trkpt lat="45.2721" lon="4.4633">
        <ele>1177</ele>
        <time>2010-09-23T13:27:49Z</time>
      </trkpt>
      <trkpt lat="45.272" lon="4.4633">
        <ele>1177</ele>
        <time>2010-09-23T13:28:00Z</time>
      </trkpt>
      <trkpt lat="45.27191" lon="4.46332">
        <ele>1176</ele>
        <time>2010-09-23T13:28:09Z</time>
      </trkpt>
      <trkpt lat="45.27182" lon="4.46337">
        <ele>1179</ele>
        <time>2010-09-23T13:28:20Z</time>
      </trkpt>
      <trkpt lat="45.27173" lon="4.46343">
        <ele>1178</ele>
        <time>2010-09-23T13:28:30Z</time>
      </trkpt>
      <trkpt lat="45.27164" lon="4.4635">
        <ele>1175</ele>
        <time>2010-09-23T13:28:38Z</time>
      </trkpt>
      <trkpt lat="45.27154" lon="4.4635">
        <ele>1175</ele>
        <time>2010-09-23T13:28:50Z</time>
      </trkpt>
      <trkpt lat="45.27145" lon="4.46356">
        <ele>1175</ele>
        <time>2010-09-23T13:29:00Z</time>
      </trkpt>
      <trkpt lat="45.27136" lon="4.4636">
        <ele>1174</ele>
        <time>2010-09-23T13:29:10Z</time>
      </trkpt>
      <trkpt lat="45.27126" lon="4.46362">
        <ele>1174</ele>
        <time>2010-09-23T13:29:25Z</time>
      </trkpt>
      <trkpt lat="45.27116" lon="4.46366">
        <ele>1173</ele>
        <time>2010-09-23T13:29:38Z</time>
      </trkpt>
      <trkpt lat="45.27106" lon="4.46372">
        <ele>1173</ele>
        <time>2010-09-23T13:29:48Z</time>
      </trkpt>
      <trkpt lat="45.27096" lon="4.46376">
        <ele>1173</ele>
        <time>2010-09-23T13:30:01Z</time>
      </trkpt>
      <trkpt lat="45.27087" lon="4.46373">
        <ele>1172</ele>
        <time>2010-09-23T13:30:10Z</time>
      </trkpt>
      <trkpt lat="45.27077" lon="4.46373">
        <ele>1170</ele>
        <time>2010-09-23T13:30:22Z</time>
      </trkpt>
      <trkpt lat="45.27069" lon="4.46366">
        <ele>1170</ele>
        <time>2010-09-23T13:30:31Z</time>
      </trkpt>
      <trkpt lat="45.2706" lon="4.4636">
        <ele>1170</ele>
        <time>2010-09-23T13:30:38Z</time>
      </trkpt>
      <trkpt lat="45.27051" lon="4.46356">
        <ele>1170</ele>
        <time>2010-09-23T13:30:46Z</time>
      </trkpt>
      <trkpt lat="45.27042" lon="4.46354">
        <ele>1171</ele>
        <time>2010-09-23T13:30:54Z</time>
      </trkpt>
      <trkpt lat="45.27032" lon="4.46354">
        <ele>1171</ele>
        <time>2010-09-23T13:31:01Z</time>
      </trkpt>
      <trkpt lat="45.27023" lon="4.4635">
        <ele>1172</ele>
        <time>2010-09-23T13:31:08Z</time>
      </trkpt>
      <trkpt lat="45.2703" lon="4.46341">
        <ele>1171</ele>
        <time>2010-09-23T13:31:25Z</time>
      </trkpt>
      <trkpt lat="45.27029" lon="4.46328">
        <ele>1172</ele>
        <time>2010-09-23T13:31:43Z</time>
      </trkpt>
      <trkpt lat="45.2702" lon="4.46337">
        <ele>1172</ele>
        <time>2010-09-23T13:32:11Z</time>
      </trkpt>
      <trkpt lat="45.27017" lon="4.4635">
        <ele>1172</ele>
        <time>2010-09-23T13:32:39Z</time>
      </trkpt>
      <trkpt lat="45.27012" lon="4.46361">
        <ele>1171</ele>
        <time>2010-09-23T13:32:56Z</time>
      </trkpt>
      <trkpt lat="45.27004" lon="4.46368">
        <ele>1171</ele>
        <time>2010-09-23T13:33:37Z</time>
      </trkpt>
      <trkpt lat="45.27009" lon="4.46355">
        <ele>1172</ele>
        <time>2010-09-23T13:34:17Z</time>
      </trkpt>
      <trkpt lat="45.27006" lon="4.46368">
        <ele>1171</ele>
        <time>2010-09-23T13:34:54Z</time>
      </trkpt>
      <trkpt lat="45.27003" lon="4.4638">
        <ele>1170</ele>
        <time>2010-09-23T13:35:07Z</time>
      </trkpt>
      <trkpt lat="45.26997" lon="4.46392">
        <ele>1170</ele>
        <time>2010-09-23T13:35:14Z</time>
      </trkpt>
      <trkpt lat="45.26994" lon="4.46404">
        <ele>1169</ele>
        <time>2010-09-23T13:35:24Z</time>
      </trkpt>
      <trkpt lat="45.26988" lon="4.46415">
        <ele>1169</ele>
        <time>2010-09-23T13:35:33Z</time>
      </trkpt>
      <trkpt lat="45.26983" lon="4.46428">
        <ele>1167</ele>
        <time>2010-09-23T13:35:41Z</time>
      </trkpt>
      <trkpt lat="45.26978" lon="4.4644">
        <ele>1167</ele>
        <time>2010-09-23T13:35:50Z</time>
      </trkpt>
      <trkpt lat="45.26973" lon="4.46454">
        <ele>1166</ele>
        <time>2010-09-23T13:36:00Z</time>
      </trkpt>
      <trkpt lat="45.26967" lon="4.46465">
        <ele>1166</ele>
        <time>2010-09-23T13:36:09Z</time>
      </trkpt>
      <trkpt lat="45.2696" lon="4.46474">
        <ele>1166</ele>
        <time>2010-09-23T13:36:18Z</time>
      </trkpt>
      <trkpt lat="45.26954" lon="4.46483">
        <ele>1166</ele>
        <time>2010-09-23T13:36:27Z</time>
      </trkpt>
      <trkpt lat="45.26948" lon="4.46494">
        <ele>1166</ele>
        <time>2010-09-23T13:36:37Z</time>
      </trkpt>
      <trkpt lat="45.26942" lon="4.46504">
        <ele>1164</ele>
        <time>2010-09-23T13:36:45Z</time>
      </trkpt>
      <trkpt lat="45.26935" lon="4.46515">
        <ele>1164</ele>
        <time>2010-09-23T13:36:55Z</time>
      </trkpt>
      <trkpt lat="45.26928" lon="4.46524">
        <ele>1164</ele>
        <time>2010-09-23T13:37:04Z</time>
      </trkpt>
      <trkpt lat="45.26921" lon="4.46534">
        <ele>1163</ele>
        <time>2010-09-23T13:37:13Z</time>
      </trkpt>
      <trkpt lat="45.26915" lon="4.46545">
        <ele>1164</ele>
        <time>2010-09-23T13:37:21Z</time>
      </trkpt>
      <trkpt lat="45.26909" lon="4.46557">
        <ele>1163</ele>
        <time>2010-09-23T13:37:30Z</time>
      </trkpt>
      <trkpt lat="45.26903" lon="4.46567">
        <ele>1163</ele>
        <time>2010-09-23T13:37:38Z</time>
      </trkpt>
      <trkpt lat="45.26897" lon="4.46579">
        <ele>1162</ele>
        <time>2010-09-23T13:37:47Z</time>
      </trkpt>
      <trkpt lat="45.2689" lon="4.46589">
        <ele>1160</ele>
        <time>2010-09-23T13:37:55Z</time>
      </trkpt>
      <trkpt lat="45.26883" lon="4.46598">
        <ele>1160</ele>
        <time>2010-09-23T13:38:04Z</time>
      </trkpt>
      <trkpt lat="45.26875" lon="4.46606">
        <ele>1160</ele>
        <time>2010-09-23T13:38:13Z</time>
      </trkpt>
      <trkpt lat="45.26868" lon="4.46617">
        <ele>1160</ele>
        <time>2010-09-23T13:38:22Z</time>
      </trkpt>
      <trkpt lat="45.26861" lon="4.46627">
        <ele>1160</ele>
        <time>2010-09-23T13:38:30Z</time>
      </trkpt>
      <trkpt lat="45.26854" lon="4.46636">
        <ele>1160</ele>
        <time>2010-09-23T13:38:38Z</time>
      </trkpt>
      <trkpt lat="45.26848" lon="4.46647">
        <ele>1160</ele>
        <time>2010-09-23T13:38:46Z</time>
      </trkpt>
      <trkpt lat="45.26842" lon="4.46658">
        <ele>1161</ele>
        <time>2010-09-23T13:38:55Z</time>
      </trkpt>
      <trkpt lat="45.26836" lon="4.46668">
        <ele>1160</ele>
        <time>2010-09-23T13:39:04Z</time>
      </trkpt>
      <trkpt lat="45.2683" lon="4.46678">
        <ele>1161</ele>
        <time>2010-09-23T13:39:12Z</time>
      </trkpt>
      <trkpt lat="45.26823" lon="4.46688">
        <ele>1160</ele>
        <time>2010-09-23T13:39:21Z</time>
      </trkpt>
      <trkpt lat="45.26816" lon="4.46698">
        <ele>1160</ele>
        <time>2010-09-23T13:39:31Z</time>
      </trkpt>
      <trkpt lat="45.26808" lon="4.46704">
        <ele>1160</ele>
        <time>2010-09-23T13:39:40Z</time>
      </trkpt>
      <trkpt lat="45.268" lon="4.46711">
        <ele>1160</ele>
        <time>2010-09-23T13:39:50Z</time>
      </trkpt>
      <trkpt lat="45.26791" lon="4.46717">
        <ele>1160</ele>
        <time>2010-09-23T13:39:59Z</time>
      </trkpt>
      <trkpt lat="45.26784" lon="4.46725">
        <ele>1160</ele>
        <time>2010-09-23T13:40:08Z</time>
      </trkpt>
      <trkpt lat="45.26775" lon="4.46729">
        <ele>1160</ele>
        <time>2010-09-23T13:40:18Z</time>
      </trkpt>
      <trkpt lat="45.26765" lon="4.46725">
        <ele>1160</ele>
        <time>2010-09-23T13:40:31Z</time>
      </trkpt>
      <trkpt lat="45.26757" lon="4.46719">
        <ele>1160</ele>
        <time>2010-09-23T13:40:40Z</time>
      </trkpt>
      <trkpt lat="45.26748" lon="4.46717">
        <ele>1161</ele>
        <time>2010-09-23T13:40:50Z</time>
      </trkpt>
      <trkpt lat="45.2674" lon="4.46726">
        <ele>1161</ele>
        <time>2010-09-23T13:41:04Z</time>
      </trkpt>
      <trkpt lat="45.26734" lon="4.46736">
        <ele>1160</ele>
        <time>2010-09-23T13:41:12Z</time>
      </trkpt>
      <trkpt lat="45.26727" lon="4.46745">
        <ele>1160</ele>
        <time>2010-09-23T13:41:21Z</time>
      </trkpt>
      <trkpt lat="45.26719" lon="4.46754">
        <ele>1157</ele>
        <time>2010-09-23T13:41:31Z</time>
      </trkpt>
      <trkpt lat="45.26709" lon="4.46756">
        <ele>1156</ele>
        <time>2010-09-23T13:41:40Z</time>
      </trkpt>
      <trkpt lat="45.267" lon="4.4676">
        <ele>1156</ele>
        <time>2010-09-23T13:41:48Z</time>
      </trkpt>
      <trkpt lat="45.26692" lon="4.46768">
        <ele>1156</ele>
        <time>2010-09-23T13:41:59Z</time>
      </trkpt>
      <trkpt lat="45.26685" lon="4.46777">
        <ele>1156</ele>
        <time>2010-09-23T13:42:07Z</time>
      </trkpt>
      <trkpt lat="45.26676" lon="4.46779">
        <ele>1155</ele>
        <time>2010-09-23T13:42:16Z</time>
      </trkpt>
      <trkpt lat="45.26668" lon="4.46787">
        <ele>1155</ele>
        <time>2010-09-23T13:42:24Z</time>
      </trkpt>
      <trkpt lat="45.26659" lon="4.46794">
        <ele>1150</ele>
        <time>2010-09-23T13:42:33Z</time>
      </trkpt>
      <trkpt lat="45.26652" lon="4.46804">
        <ele>1149</ele>
        <time>2010-09-23T13:42:42Z</time>
      </trkpt>
      <trkpt lat="45.26648" lon="4.46816">
        <ele>1148</ele>
        <time>2010-09-23T13:42:49Z</time>
      </trkpt>
      <trkpt lat="45.26649" lon="4.46831">
        <ele>1148</ele>
        <time>2010-09-23T13:42:59Z</time>
      </trkpt>
      <trkpt lat="45.26647" lon="4.46845">
        <ele>1140</ele>
        <time>2010-09-23T13:43:42Z</time>
      </trkpt>
      <trkpt lat="45.26645" lon="4.46857">
        <ele>1137</ele>
        <time>2010-09-23T13:46:14Z</time>
      </trkpt>
      <trkpt lat="45.26652" lon="4.46847">
        <ele>1140</ele>
        <time>2010-09-23T13:49:46Z</time>
      </trkpt>
      <trkpt lat="45.26655" lon="4.46834">
        <ele>1144</ele>
        <time>2010-09-23T13:50:19Z</time>
      </trkpt>
      <trkpt lat="45.26646" lon="4.46828">
        <ele>1148</ele>
        <time>2010-09-23T13:51:09Z</time>
      </trkpt>
      <trkpt lat="45.26642" lon="4.4684">
        <ele>1139</ele>
        <time>2010-09-23T13:51:42Z</time>
      </trkpt>
      <trkpt lat="45.26646" lon="4.46827">
        <ele>1148</ele>
        <time>2010-09-23T13:53:56Z</time>
      </trkpt>
      <trkpt lat="45.26656" lon="4.46823">
        <ele>1149</ele>
        <time>2010-09-23T13:54:14Z</time>
      </trkpt>
      <trkpt lat="45.26659" lon="4.46809">
        <ele>1149</ele>
        <time>2010-09-23T13:54:24Z</time>
      </trkpt>
      <trkpt lat="45.26667" lon="4.46801">
        <ele>1154</ele>
        <time>2010-09-23T13:54:36Z</time>
      </trkpt>
      <trkpt lat="45.26675" lon="4.46793">
        <ele>1155</ele>
        <time>2010-09-23T13:54:46Z</time>
      </trkpt>
      <trkpt lat="45.26684" lon="4.46788">
        <ele>1155</ele>
        <time>2010-09-23T13:54:55Z</time>
      </trkpt>
      <trkpt lat="45.26693" lon="4.46782">
        <ele>1155</ele>
        <time>2010-09-23T13:55:06Z</time>
      </trkpt>
      <trkpt lat="45.26702" lon="4.46774">
        <ele>1156</ele>
        <time>2010-09-23T13:55:17Z</time>
      </trkpt>
      <trkpt lat="45.26711" lon="4.46769">
        <ele>1156</ele>
        <time>2010-09-23T13:55:25Z</time>
      </trkpt>
      <trkpt lat="45.2672" lon="4.46764">
        <ele>1156</ele>
        <time>2010-09-23T13:55:34Z</time>
      </trkpt>
      <trkpt lat="45.26728" lon="4.46756">
        <ele>1157</ele>
        <time>2010-09-23T13:55:45Z</time>
      </trkpt>
      <trkpt lat="45.26734" lon="4.46746">
        <ele>1160</ele>
        <time>2010-09-23T13:55:56Z</time>
      </trkpt>
      <trkpt lat="45.26742" lon="4.46742">
        <ele>1160</ele>
        <time>2010-09-23T13:56:05Z</time>
      </trkpt>
      <trkpt lat="45.26751" lon="4.46737">
        <ele>1160</ele>
        <time>2010-09-23T13:56:16Z</time>
      </trkpt>
      <trkpt lat="45.26761" lon="4.46737">
        <ele>1160</ele>
        <time>2010-09-23T13:56:27Z</time>
      </trkpt>
      <trkpt lat="45.2677" lon="4.46738">
        <ele>1160</ele>
        <time>2010-09-23T13:56:36Z</time>
      </trkpt>
      <trkpt lat="45.26779" lon="4.46733">
        <ele>1160</ele>
        <time>2010-09-23T13:56:48Z</time>
      </trkpt>
      <trkpt lat="45.26787" lon="4.46726">
        <ele>1160</ele>
        <time>2010-09-23T13:57:00Z</time>
      </trkpt>
      <trkpt lat="45.26796" lon="4.46718">
        <ele>1160</ele>
        <time>2010-09-23T13:57:10Z</time>
      </trkpt>
      <trkpt lat="45.26804" lon="4.4671">
        <ele>1160</ele>
        <time>2010-09-23T13:57:19Z</time>
      </trkpt>
      <trkpt lat="45.26813" lon="4.46703">
        <ele>1160</ele>
        <time>2010-09-23T13:57:31Z</time>
      </trkpt>
      <trkpt lat="45.26823" lon="4.46698">
        <ele>1160</ele>
        <time>2010-09-23T13:57:41Z</time>
      </trkpt>
      <trkpt lat="45.26831" lon="4.4669">
        <ele>1160</ele>
        <time>2010-09-23T13:57:49Z</time>
      </trkpt>
      <trkpt lat="45.26836" lon="4.46677">
        <ele>1159</ele>
        <time>2010-09-23T13:57:58Z</time>
      </trkpt>
      <trkpt lat="45.26842" lon="4.46666">
        <ele>1161</ele>
        <time>2010-09-23T13:58:06Z</time>
      </trkpt>
      <trkpt lat="45.26848" lon="4.46655">
        <ele>1160</ele>
        <time>2010-09-23T13:58:14Z</time>
      </trkpt>
      <trkpt lat="45.26855" lon="4.46644">
        <ele>1160</ele>
        <time>2010-09-23T13:58:23Z</time>
      </trkpt>
      <trkpt lat="45.26861" lon="4.46634">
        <ele>1160</ele>
        <time>2010-09-23T13:58:33Z</time>
      </trkpt>
      <trkpt lat="45.26867" lon="4.46624">
        <ele>1160</ele>
        <time>2010-09-23T13:58:42Z</time>
      </trkpt>
      <trkpt lat="45.26874" lon="4.46614">
        <ele>1160</ele>
        <time>2010-09-23T13:58:51Z</time>
      </trkpt>
      <trkpt lat="45.26881" lon="4.46604">
        <ele>1160</ele>
        <time>2010-09-23T13:58:59Z</time>
      </trkpt>
      <trkpt lat="45.2689" lon="4.46596">
        <ele>1160</ele>
        <time>2010-09-23T13:59:10Z</time>
      </trkpt>
      <trkpt lat="45.26897" lon="4.46585">
        <ele>1160</ele>
        <time>2010-09-23T13:59:20Z</time>
      </trkpt>
      <trkpt lat="45.26904" lon="4.46575">
        <ele>1162</ele>
        <time>2010-09-23T13:59:28Z</time>
      </trkpt>
      <trkpt lat="45.26911" lon="4.46564">
        <ele>1163</ele>
        <time>2010-09-23T13:59:38Z</time>
      </trkpt>
      <trkpt lat="45.26917" lon="4.46553">
        <ele>1162</ele>
        <time>2010-09-23T13:59:47Z</time>
      </trkpt>
      <trkpt lat="45.26923" lon="4.46544">
        <ele>1162</ele>
        <time>2010-09-23T13:59:55Z</time>
      </trkpt>
      <trkpt lat="45.26928" lon="4.46531">
        <ele>1163</ele>
        <time>2010-09-23T14:00:05Z</time>
      </trkpt>
      <trkpt lat="45.26934" lon="4.4652">
        <ele>1164</ele>
        <time>2010-09-23T14:00:16Z</time>
      </trkpt>
      <trkpt lat="45.26942" lon="4.4651">
        <ele>1164</ele>
        <time>2010-09-23T14:00:24Z</time>
      </trkpt>
      <trkpt lat="45.26949" lon="4.465">
        <ele>1163</ele>
        <time>2010-09-23T14:00:33Z</time>
      </trkpt>
      <trkpt lat="45.26956" lon="4.46491">
        <ele>1166</ele>
        <time>2010-09-23T14:00:41Z</time>
      </trkpt>
      <trkpt lat="45.26961" lon="4.4648">
        <ele>1166</ele>
        <time>2010-09-23T14:00:49Z</time>
      </trkpt>
      <trkpt lat="45.26969" lon="4.46471">
        <ele>1166</ele>
        <time>2010-09-23T14:00:58Z</time>
      </trkpt>
      <trkpt lat="45.26975" lon="4.46461">
        <ele>1166</ele>
        <time>2010-09-23T14:01:08Z</time>
      </trkpt>
      <trkpt lat="45.26982" lon="4.46451">
        <ele>1166</ele>
        <time>2010-09-23T14:01:16Z</time>
      </trkpt>
      <trkpt lat="45.26986" lon="4.46438">
        <ele>1166</ele>
        <time>2010-09-23T14:01:25Z</time>
      </trkpt>
      <trkpt lat="45.26989" lon="4.46425">
        <ele>1167</ele>
        <time>2010-09-23T14:01:34Z</time>
      </trkpt>
      <trkpt lat="45.26991" lon="4.46411">
        <ele>1169</ele>
        <time>2010-09-23T14:01:42Z</time>
      </trkpt>
      <trkpt lat="45.26996" lon="4.46399">
        <ele>1169</ele>
        <time>2010-09-23T14:01:53Z</time>
      </trkpt>
      <trkpt lat="45.27001" lon="4.46385">
        <ele>1170</ele>
        <time>2010-09-23T14:02:04Z</time>
      </trkpt>
      <trkpt lat="45.27007" lon="4.46373">
        <ele>1171</ele>
        <time>2010-09-23T14:02:15Z</time>
      </trkpt>
      <trkpt lat="45.27015" lon="4.46367">
        <ele>1171</ele>
        <time>2010-09-23T14:02:27Z</time>
      </trkpt>
      <trkpt lat="45.27023" lon="4.46359">
        <ele>1171</ele>
        <time>2010-09-23T14:02:59Z</time>
      </trkpt>
      <trkpt lat="45.27032" lon="4.46354">
        <ele>1171</ele>
        <time>2010-09-23T14:03:12Z</time>
      </trkpt>
      <trkpt lat="45.27041" lon="4.4635">
        <ele>1171</ele>
        <time>2010-09-23T14:03:22Z</time>
      </trkpt>
      <trkpt lat="45.27051" lon="4.4635">
        <ele>1170</ele>
        <time>2010-09-23T14:03:31Z</time>
      </trkpt>
      <trkpt lat="45.2706" lon="4.46356">
        <ele>1170</ele>
        <time>2010-09-23T14:03:38Z</time>
      </trkpt>
      <trkpt lat="45.27068" lon="4.46362">
        <ele>1170</ele>
        <time>2010-09-23T14:03:49Z</time>
      </trkpt>
      <trkpt lat="45.27077" lon="4.46368">
        <ele>1170</ele>
        <time>2010-09-23T14:04:00Z</time>
      </trkpt>
      <trkpt lat="45.27088" lon="4.4637">
        <ele>1172</ele>
        <time>2010-09-23T14:04:17Z</time>
      </trkpt>
      <trkpt lat="45.27097" lon="4.46373">
        <ele>1173</ele>
        <time>2010-09-23T14:04:31Z</time>
      </trkpt>
      <trkpt lat="45.27106" lon="4.46369">
        <ele>1173</ele>
        <time>2010-09-23T14:04:42Z</time>
      </trkpt>
      <trkpt lat="45.27115" lon="4.46366">
        <ele>1173</ele>
        <time>2010-09-23T14:04:55Z</time>
      </trkpt>
      <trkpt lat="45.27124" lon="4.4636">
        <ele>1174</ele>
        <time>2010-09-23T14:05:07Z</time>
      </trkpt>
      <trkpt lat="45.27134" lon="4.46358">
        <ele>1174</ele>
        <time>2010-09-23T14:05:18Z</time>
      </trkpt>
      <trkpt lat="45.27144" lon="4.46356">
        <ele>1175</ele>
        <time>2010-09-23T14:05:28Z</time>
      </trkpt>
      <trkpt lat="45.27153" lon="4.46351">
        <ele>1175</ele>
        <time>2010-09-23T14:05:38Z</time>
      </trkpt>
      <trkpt lat="45.27163" lon="4.46349">
        <ele>1175</ele>
        <time>2010-09-23T14:05:50Z</time>
      </trkpt>
      <trkpt lat="45.27172" lon="4.46344">
        <ele>1178</ele>
        <time>2010-09-23T14:06:02Z</time>
      </trkpt>
      <trkpt lat="45.2718" lon="4.46338">
        <ele>1178</ele>
        <time>2010-09-23T14:06:14Z</time>
      </trkpt>
      <trkpt lat="45.27189" lon="4.46332">
        <ele>1176</ele>
        <time>2010-09-23T14:06:28Z</time>
      </trkpt>
      <trkpt lat="45.27199" lon="4.46328">
        <ele>1177</ele>
        <time>2010-09-23T14:06:39Z</time>
      </trkpt>
      <trkpt lat="45.27208" lon="4.46326">
        <ele>1177</ele>
        <time>2010-09-23T14:06:53Z</time>
      </trkpt>
      <trkpt lat="45.27216" lon="4.46334">
        <ele>1181</ele>
        <time>2010-09-23T14:07:09Z</time>
      </trkpt>
      <trkpt lat="45.2722" lon="4.46346">
        <ele>1181</ele>
        <time>2010-09-23T14:07:20Z</time>
      </trkpt>
      <trkpt lat="45.27225" lon="4.46358">
        <ele>1182</ele>
        <time>2010-09-23T14:07:34Z</time>
      </trkpt>
      <trkpt lat="45.27232" lon="4.46368">
        <ele>1182</ele>
        <time>2010-09-23T14:07:49Z</time>
      </trkpt>
      <trkpt lat="45.27239" lon="4.46376">
        <ele>1183</ele>
        <time>2010-09-23T14:08:02Z</time>
      </trkpt>
      <trkpt lat="45.27247" lon="4.46383">
        <ele>1183</ele>
        <time>2010-09-23T14:08:16Z</time>
      </trkpt>
      <trkpt lat="45.27256" lon="4.4639">
        <ele>1186</ele>
        <time>2010-09-23T14:08:27Z</time>
      </trkpt>
      <trkpt lat="45.27263" lon="4.46399">
        <ele>1187</ele>
        <time>2010-09-23T14:08:38Z</time>
      </trkpt>
      <trkpt lat="45.27271" lon="4.46406">
        <ele>1187</ele>
        <time>2010-09-23T14:08:49Z</time>
      </trkpt>
      <trkpt lat="45.2728" lon="4.46412">
        <ele>1187</ele>
        <time>2010-09-23T14:09:00Z</time>
      </trkpt>
      <trkpt lat="45.27289" lon="4.46421">
        <ele>1188</ele>
        <time>2010-09-23T14:09:10Z</time>
      </trkpt>
      <trkpt lat="45.27298" lon="4.46428">
        <ele>1188</ele>
        <time>2010-09-23T14:09:19Z</time>
      </trkpt>
      <trkpt lat="45.27307" lon="4.46434">
        <ele>1188</ele>
        <time>2010-09-23T14:09:29Z</time>
      </trkpt>
      <trkpt lat="45.27317" lon="4.46434">
        <ele>1188</ele>
        <time>2010-09-23T14:09:36Z</time>
      </trkpt>
      <trkpt lat="45.27325" lon="4.46429">
        <ele>1188</ele>
        <time>2010-09-23T14:09:44Z</time>
      </trkpt>
      <trkpt lat="45.27336" lon="4.46426">
        <ele>1189</ele>
        <time>2010-09-23T14:09:54Z</time>
      </trkpt>
      <trkpt lat="45.27346" lon="4.46425">
        <ele>1189</ele>
        <time>2010-09-23T14:10:04Z</time>
      </trkpt>
      <trkpt lat="45.27355" lon="4.46427">
        <ele>1190</ele>
        <time>2010-09-23T14:10:13Z</time>
      </trkpt>
      <trkpt lat="45.27365" lon="4.46428">
        <ele>1190</ele>
        <time>2010-09-23T14:10:21Z</time>
      </trkpt>
      <trkpt lat="45.27375" lon="4.46428">
        <ele>1190</ele>
        <time>2010-09-23T14:10:31Z</time>
      </trkpt>
      <trkpt lat="45.27384" lon="4.46426">
        <ele>1191</ele>
        <time>2010-09-23T14:10:40Z</time>
      </trkpt>
      <trkpt lat="45.27393" lon="4.4643">
        <ele>1191</ele>
        <time>2010-09-23T14:10:45Z</time>
      </trkpt>
      <trkpt lat="45.274" lon="4.4642">
        <ele>1191</ele>
        <time>2010-09-23T14:10:57Z</time>
      </trkpt>
      <trkpt lat="45.27409" lon="4.46417">
        <ele>1192</ele>
        <time>2010-09-23T14:11:08Z</time>
      </trkpt>
      <trkpt lat="45.27419" lon="4.46412">
        <ele>1193</ele>
        <time>2010-09-23T14:11:20Z</time>
      </trkpt>
      <trkpt lat="45.27427" lon="4.46408">
        <ele>1194</ele>
        <time>2010-09-23T14:11:30Z</time>
      </trkpt>
      <trkpt lat="45.27437" lon="4.46403">
        <ele>1194</ele>
        <time>2010-09-23T14:11:43Z</time>
      </trkpt>
      <trkpt lat="45.27447" lon="4.46404">
        <ele>1195</ele>
        <time>2010-09-23T14:12:01Z</time>
      </trkpt>
      <trkpt lat="45.27457" lon="4.46403">
        <ele>1195</ele>
        <time>2010-09-23T14:12:11Z</time>
      </trkpt>
      <trkpt lat="45.27466" lon="4.46402">
        <ele>1195</ele>
        <time>2010-09-23T14:12:23Z</time>
      </trkpt>
      <trkpt lat="45.27476" lon="4.464">
        <ele>1196</ele>
        <time>2010-09-23T14:12:34Z</time>
      </trkpt>
      <trkpt lat="45.27485" lon="4.46395">
        <ele>1196</ele>
        <time>2010-09-23T14:12:45Z</time>
      </trkpt>
      <trkpt lat="45.27494" lon="4.46394">
        <ele>1196</ele>
        <time>2010-09-23T14:12:56Z</time>
      </trkpt>
      <trkpt lat="45.27504" lon="4.46395">
        <ele>1200</ele>
        <time>2010-09-23T14:13:07Z</time>
      </trkpt>
      <trkpt lat="45.27514" lon="4.46394">
        <ele>1201</ele>
        <time>2010-09-23T14:13:20Z</time>
      </trkpt>
      <trkpt lat="45.27524" lon="4.46396">
        <ele>1201</ele>
        <time>2010-09-23T14:13:29Z</time>
      </trkpt>
      <trkpt lat="45.27533" lon="4.46399">
        <ele>1202</ele>
        <time>2010-09-23T14:13:39Z</time>
      </trkpt>
      <trkpt lat="45.27543" lon="4.46403">
        <ele>1203</ele>
        <time>2010-09-23T14:13:49Z</time>
      </trkpt>
      <trkpt lat="45.27552" lon="4.46407">
        <ele>1204</ele>
        <time>2010-09-23T14:13:59Z</time>
      </trkpt>
      <trkpt lat="45.27561" lon="4.46405">
        <ele>1204</ele>
        <time>2010-09-23T14:14:13Z</time>
      </trkpt>
      <trkpt lat="45.27561" lon="4.46392">
        <ele>1204</ele>
        <time>2010-09-23T14:14:54Z</time>
      </trkpt>
      <trkpt lat="45.27565" lon="4.46379">
        <ele>1204</ele>
        <time>2010-09-23T14:15:05Z</time>
      </trkpt>
      <trkpt lat="45.27571" lon="4.46368">
        <ele>1204</ele>
        <time>2010-09-23T14:15:15Z</time>
      </trkpt>
      <trkpt lat="45.27579" lon="4.46362">
        <ele>1204</ele>
        <time>2010-09-23T14:15:27Z</time>
      </trkpt>
      <trkpt lat="45.27587" lon="4.46356">
        <ele>1209</ele>
        <time>2010-09-23T14:15:37Z</time>
      </trkpt>
      <trkpt lat="45.27594" lon="4.46347">
        <ele>1208</ele>
        <time>2010-09-23T14:15:46Z</time>
      </trkpt>
      <trkpt lat="45.27599" lon="4.46334">
        <ele>1208</ele>
        <time>2010-09-23T14:15:56Z</time>
      </trkpt>
      <trkpt lat="45.27605" lon="4.46324">
        <ele>1207</ele>
        <time>2010-09-23T14:16:04Z</time>
      </trkpt>
      <trkpt lat="45.27611" lon="4.46315">
        <ele>1207</ele>
        <time>2010-09-23T14:16:12Z</time>
      </trkpt>
      <trkpt lat="45.27618" lon="4.46304">
        <ele>1207</ele>
        <time>2010-09-23T14:16:20Z</time>
      </trkpt>
      <trkpt lat="45.27624" lon="4.46293">
        <ele>1207</ele>
        <time>2010-09-23T14:16:34Z</time>
      </trkpt>
      <trkpt lat="45.27627" lon="4.46279">
        <ele>1207</ele>
        <time>2010-09-23T14:16:49Z</time>
      </trkpt>
      <trkpt lat="45.27634" lon="4.46269">
        <ele>1207</ele>
        <time>2010-09-23T14:17:02Z</time>
      </trkpt>
      <trkpt lat="45.27639" lon="4.46256">
        <ele>1207</ele>
        <time>2010-09-23T14:17:12Z</time>
      </trkpt>
      <trkpt lat="45.27646" lon="4.46246">
        <ele>1204</ele>
        <time>2010-09-23T14:17:20Z</time>
      </trkpt>
      <trkpt lat="45.27654" lon="4.46237">
        <ele>1204</ele>
        <time>2010-09-23T14:17:30Z</time>
      </trkpt>
      <trkpt lat="45.27665" lon="4.4623">
        <ele>1204</ele>
        <time>2010-09-23T14:17:38Z</time>
      </trkpt>
      <trkpt lat="45.27674" lon="4.46223">
        <ele>1209</ele>
        <time>2010-09-23T14:17:45Z</time>
      </trkpt>
      <trkpt lat="45.27683" lon="4.46218">
        <ele>1209</ele>
        <time>2010-09-23T14:17:59Z</time>
      </trkpt>
      <trkpt lat="45.27692" lon="4.46209">
        <ele>1208</ele>
        <time>2010-09-23T14:18:09Z</time>
      </trkpt>
      <trkpt lat="45.27702" lon="4.46208">
        <ele>1209</ele>
        <time>2010-09-23T14:18:23Z</time>
      </trkpt>
      <trkpt lat="45.27712" lon="4.462">
        <ele>1209</ele>
        <time>2010-09-23T14:18:32Z</time>
      </trkpt>
      <trkpt lat="45.27721" lon="4.46193">
        <ele>1209</ele>
        <time>2010-09-23T14:18:38Z</time>
      </trkpt>
      <trkpt lat="45.27728" lon="4.46184">
        <ele>1209</ele>
        <time>2010-09-23T14:18:45Z</time>
      </trkpt>
      <trkpt lat="45.27739" lon="4.46173">
        <ele>1209</ele>
        <time>2010-09-23T14:18:56Z</time>
      </trkpt>
      <trkpt lat="45.27748" lon="4.46169">
        <ele>1209</ele>
        <time>2010-09-23T14:19:07Z</time>
      </trkpt>
      <trkpt lat="45.27757" lon="4.46162">
        <ele>1207</ele>
        <time>2010-09-23T14:19:18Z</time>
      </trkpt>
      <trkpt lat="45.27766" lon="4.46157">
        <ele>1205</ele>
        <time>2010-09-23T14:19:26Z</time>
      </trkpt>
      <trkpt lat="45.27776" lon="4.4615">
        <ele>1204</ele>
        <time>2010-09-23T14:19:34Z</time>
      </trkpt>
      <trkpt lat="45.27784" lon="4.46142">
        <ele>1203</ele>
        <time>2010-09-23T14:19:39Z</time>
      </trkpt>
      <trkpt lat="45.27794" lon="4.46142">
        <ele>1203</ele>
        <time>2010-09-23T14:19:47Z</time>
      </trkpt>
      <trkpt lat="45.27804" lon="4.46139">
        <ele>1203</ele>
        <time>2010-09-23T14:19:55Z</time>
      </trkpt>
      <trkpt lat="45.27815" lon="4.46134">
        <ele>1202</ele>
        <time>2010-09-23T14:20:05Z</time>
      </trkpt>
      <trkpt lat="45.27823" lon="4.46126">
        <ele>1202</ele>
        <time>2010-09-23T14:20:14Z</time>
      </trkpt>
      <trkpt lat="45.27833" lon="4.46126">
        <ele>1202</ele>
        <time>2010-09-23T14:20:24Z</time>
      </trkpt>
      <trkpt lat="45.27842" lon="4.46121">
        <ele>1201</ele>
        <time>2010-09-23T14:20:30Z</time>
      </trkpt>
      <trkpt lat="45.27852" lon="4.46117">
        <ele>1201</ele>
        <time>2010-09-23T14:20:38Z</time>
      </trkpt>
      <trkpt lat="45.27861" lon="4.46114">
        <ele>1201</ele>
        <time>2010-09-23T14:20:45Z</time>
      </trkpt>
      <trkpt lat="45.27871" lon="4.46111">
        <ele>1201</ele>
        <time>2010-09-23T14:20:53Z</time>
      </trkpt>
      <trkpt lat="45.2788" lon="4.46102">
        <ele>1200</ele>
        <time>2010-09-23T14:21:02Z</time>
      </trkpt>
      <trkpt lat="45.2789" lon="4.46097">
        <ele>1200</ele>
        <time>2010-09-23T14:21:10Z</time>
      </trkpt>
      <trkpt lat="45.279" lon="4.46089">
        <ele>1200</ele>
        <time>2010-09-23T14:21:19Z</time>
      </trkpt>
      <trkpt lat="45.27907" lon="4.4608">
        <ele>1197</ele>
        <time>2010-09-23T14:21:27Z</time>
      </trkpt>
      <trkpt lat="45.27913" lon="4.46069">
        <ele>1197</ele>
        <time>2010-09-23T14:21:37Z</time>
      </trkpt>
      <trkpt lat="45.27918" lon="4.46058">
        <ele>1198</ele>
        <time>2010-09-23T14:21:50Z</time>
      </trkpt>
      <trkpt lat="45.27923" lon="4.46046">
        <ele>1198</ele>
        <time>2010-09-23T14:21:58Z</time>
      </trkpt>
      <trkpt lat="45.2793" lon="4.46037">
        <ele>1198</ele>
        <time>2010-09-23T14:22:05Z</time>
      </trkpt>
      <trkpt lat="45.27936" lon="4.46027">
        <ele>1198</ele>
        <time>2010-09-23T14:22:13Z</time>
      </trkpt>
      <trkpt lat="45.27944" lon="4.46018">
        <ele>1198</ele>
        <time>2010-09-23T14:22:21Z</time>
      </trkpt>
      <trkpt lat="45.27952" lon="4.4601">
        <ele>1198</ele>
        <time>2010-09-23T14:22:28Z</time>
      </trkpt>
      <trkpt lat="45.2796" lon="4.45998">
        <ele>1195</ele>
        <time>2010-09-23T14:22:46Z</time>
      </trkpt>
      <trkpt lat="45.2797" lon="4.45995">
        <ele>1195</ele>
        <time>2010-09-23T14:22:49Z</time>
      </trkpt>
      <trkpt lat="45.27979" lon="4.45991">
        <ele>1196</ele>
        <time>2010-09-23T14:23:04Z</time>
      </trkpt>
      <trkpt lat="45.27988" lon="4.45984">
        <ele>1196</ele>
        <time>2010-09-23T14:23:13Z</time>
      </trkpt>
      <trkpt lat="45.27996" lon="4.45978">
        <ele>1195</ele>
        <time>2010-09-23T14:23:20Z</time>
      </trkpt>
      <trkpt lat="45.28005" lon="4.45973">
        <ele>1195</ele>
        <time>2010-09-23T14:23:25Z</time>
      </trkpt>
      <trkpt lat="45.28015" lon="4.45966">
        <ele>1195</ele>
        <time>2010-09-23T14:23:34Z</time>
      </trkpt>
      <trkpt lat="45.28022" lon="4.45956">
        <ele>1194</ele>
        <time>2010-09-23T14:23:41Z</time>
      </trkpt>
      <trkpt lat="45.28032" lon="4.45954">
        <ele>1194</ele>
        <time>2010-09-23T14:23:59Z</time>
      </trkpt>
      <trkpt lat="45.2804" lon="4.45944">
        <ele>1194</ele>
        <time>2010-09-23T14:24:07Z</time>
      </trkpt>
      <trkpt lat="45.28047" lon="4.45934">
        <ele>1193</ele>
        <time>2010-09-23T14:24:13Z</time>
      </trkpt>
      <trkpt lat="45.28054" lon="4.45926">
        <ele>1193</ele>
        <time>2010-09-23T14:24:22Z</time>
      </trkpt>
      <trkpt lat="45.28063" lon="4.45919">
        <ele>1192</ele>
        <time>2010-09-23T14:24:30Z</time>
      </trkpt>
      <trkpt lat="45.28071" lon="4.45913">
        <ele>1189</ele>
        <time>2010-09-23T14:24:42Z</time>
      </trkpt>
      <trkpt lat="45.28079" lon="4.45906">
        <ele>1189</ele>
        <time>2010-09-23T14:24:49Z</time>
      </trkpt>
      <trkpt lat="45.28088" lon="4.45896">
        <ele>1187</ele>
        <time>2010-09-23T14:24:56Z</time>
      </trkpt>
      <trkpt lat="45.28093" lon="4.45884">
        <ele>1186</ele>
        <time>2010-09-23T14:25:03Z</time>
      </trkpt>
      <trkpt lat="45.28102" lon="4.45876">
        <ele>1185</ele>
        <time>2010-09-23T14:25:10Z</time>
      </trkpt>
      <trkpt lat="45.2811" lon="4.45867">
        <ele>1185</ele>
        <time>2010-09-23T14:25:20Z</time>
      </trkpt>
      <trkpt lat="45.28121" lon="4.45863">
        <ele>1184</ele>
        <time>2010-09-23T14:25:32Z</time>
      </trkpt>
      <trkpt lat="45.28128" lon="4.45852">
        <ele>1184</ele>
        <time>2010-09-23T14:25:38Z</time>
      </trkpt>
      <trkpt lat="45.28134" lon="4.45842">
        <ele>1183</ele>
        <time>2010-09-23T14:25:46Z</time>
      </trkpt>
      <trkpt lat="45.28143" lon="4.45835">
        <ele>1182</ele>
        <time>2010-09-23T14:25:53Z</time>
      </trkpt>
      <trkpt lat="45.28151" lon="4.45827">
        <ele>1176</ele>
        <time>2010-09-23T14:26:02Z</time>
      </trkpt>
      <trkpt lat="45.2816" lon="4.45821">
        <ele>1176</ele>
        <time>2010-09-23T14:26:10Z</time>
      </trkpt>
      <trkpt lat="45.28168" lon="4.45813">
        <ele>1175</ele>
        <time>2010-09-23T14:26:18Z</time>
      </trkpt>
      <trkpt lat="45.28178" lon="4.45808">
        <ele>1175</ele>
        <time>2010-09-23T14:26:27Z</time>
      </trkpt>
      <trkpt lat="45.28187" lon="4.45803">
        <ele>1174</ele>
        <time>2010-09-23T14:26:36Z</time>
      </trkpt>
      <trkpt lat="45.28197" lon="4.458">
        <ele>1174</ele>
        <time>2010-09-23T14:26:47Z</time>
      </trkpt>
      <trkpt lat="45.28206" lon="4.45796">
        <ele>1174</ele>
        <time>2010-09-23T14:26:58Z</time>
      </trkpt>
      <trkpt lat="45.28215" lon="4.45794">
        <ele>1174</ele>
        <time>2010-09-23T14:27:07Z</time>
      </trkpt>
      <trkpt lat="45.28223" lon="4.45787">
        <ele>1174</ele>
        <time>2010-09-23T14:27:13Z</time>
      </trkpt>
      <trkpt lat="45.28232" lon="4.4578">
        <ele>1173</ele>
        <time>2010-09-23T14:27:24Z</time>
      </trkpt>
      <trkpt lat="45.28242" lon="4.45775">
        <ele>1173</ele>
        <time>2010-09-23T14:27:37Z</time>
      </trkpt>
      <trkpt lat="45.28252" lon="4.4578">
        <ele>1176</ele>
        <time>2010-09-23T14:27:45Z</time>
      </trkpt>
      <trkpt lat="45.28261" lon="4.45778">
        <ele>1176</ele>
        <time>2010-09-23T14:27:53Z</time>
      </trkpt>
      <trkpt lat="45.28271" lon="4.45772">
        <ele>1176</ele>
        <time>2010-09-23T14:28:06Z</time>
      </trkpt>
      <trkpt lat="45.28277" lon="4.45761">
        <ele>1176</ele>
        <time>2010-09-23T14:28:16Z</time>
      </trkpt>
      <trkpt lat="45.28282" lon="4.45746">
        <ele>1171</ele>
        <time>2010-09-23T14:28:24Z</time>
      </trkpt>
      <trkpt lat="45.28284" lon="4.45732">
        <ele>1171</ele>
        <time>2010-09-23T14:28:31Z</time>
      </trkpt>
      <trkpt lat="45.28283" lon="4.45719">
        <ele>1170</ele>
        <time>2010-09-23T14:28:44Z</time>
      </trkpt>
      <trkpt lat="45.28287" lon="4.45705">
        <ele>1170</ele>
        <time>2010-09-23T14:28:51Z</time>
      </trkpt>
      <trkpt lat="45.28288" lon="4.45692">
        <ele>1169</ele>
        <time>2010-09-23T14:28:59Z</time>
      </trkpt>
      <trkpt lat="45.28287" lon="4.45679">
        <ele>1168</ele>
        <time>2010-09-23T14:29:10Z</time>
      </trkpt>
      <trkpt lat="45.28289" lon="4.45664">
        <ele>1165</ele>
        <time>2010-09-23T14:29:18Z</time>
      </trkpt>
      <trkpt lat="45.28287" lon="4.4565">
        <ele>1165</ele>
        <time>2010-09-23T14:29:26Z</time>
      </trkpt>
      <trkpt lat="45.28286" lon="4.45636">
        <ele>1164</ele>
        <time>2010-09-23T14:29:33Z</time>
      </trkpt>
      <trkpt lat="45.28284" lon="4.45622">
        <ele>1164</ele>
        <time>2010-09-23T14:29:43Z</time>
      </trkpt>
      <trkpt lat="45.28284" lon="4.45608">
        <ele>1163</ele>
        <time>2010-09-23T14:29:51Z</time>
      </trkpt>
      <trkpt lat="45.28275" lon="4.45603">
        <ele>1161</ele>
        <time>2010-09-23T14:30:01Z</time>
      </trkpt>
      <trkpt lat="45.28267" lon="4.45611">
        <ele>1161</ele>
        <time>2010-09-23T14:30:12Z</time>
      </trkpt>
      <trkpt lat="45.28257" lon="4.45614">
        <ele>1160</ele>
        <time>2010-09-23T14:30:20Z</time>
      </trkpt>
      <trkpt lat="45.28248" lon="4.45624">
        <ele>1153</ele>
        <time>2010-09-23T14:30:32Z</time>
      </trkpt>
      <trkpt lat="45.28239" lon="4.45629">
        <ele>1153</ele>
        <time>2010-09-23T14:30:41Z</time>
      </trkpt>
      <trkpt lat="45.2823" lon="4.45625">
        <ele>1153</ele>
        <time>2010-09-23T14:30:46Z</time>
      </trkpt>
      <trkpt lat="45.2822" lon="4.45622">
        <ele>1152</ele>
        <time>2010-09-23T14:30:51Z</time>
      </trkpt>
      <trkpt lat="45.28211" lon="4.45619">
        <ele>1152</ele>
        <time>2010-09-23T14:30:55Z</time>
      </trkpt>
      <trkpt lat="45.282" lon="4.4562">
        <ele>1151</ele>
        <time>2010-09-23T14:31:01Z</time>
      </trkpt>
      <trkpt lat="45.28209" lon="4.45611">
        <ele>1151</ele>
        <time>2010-09-23T14:31:17Z</time>
      </trkpt>
      <trkpt lat="45.28214" lon="4.45599">
        <ele>1151</ele>
        <time>2010-09-23T14:31:26Z</time>
      </trkpt>
      <trkpt lat="45.28215" lon="4.45584">
        <ele>1150</ele>
        <time>2010-09-23T14:31:35Z</time>
      </trkpt>
      <trkpt lat="45.28219" lon="4.45571">
        <ele>1146</ele>
        <time>2010-09-23T14:31:42Z</time>
      </trkpt>
      <trkpt lat="45.28222" lon="4.45558">
        <ele>1145</ele>
        <time>2010-09-23T14:31:51Z</time>
      </trkpt>
      <trkpt lat="45.28227" lon="4.45545">
        <ele>1145</ele>
        <time>2010-09-23T14:32:01Z</time>
      </trkpt>
      <trkpt lat="45.28229" lon="4.45529">
        <ele>1144</ele>
        <time>2010-09-23T14:32:11Z</time>
      </trkpt>
      <trkpt lat="45.28227" lon="4.45517">
        <ele>1144</ele>
        <time>2010-09-23T14:32:19Z</time>
      </trkpt>
      <trkpt lat="45.28228" lon="4.45503">
        <ele>1144</ele>
        <time>2010-09-23T14:32:28Z</time>
      </trkpt>
      <trkpt lat="45.28225" lon="4.45491">
        <ele>1140</ele>
        <time>2010-09-23T14:32:37Z</time>
      </trkpt>
      <trkpt lat="45.28223" lon="4.45477">
        <ele>1139</ele>
        <time>2010-09-23T14:32:46Z</time>
      </trkpt>
      <trkpt lat="45.2822" lon="4.45465">
        <ele>1138</ele>
        <time>2010-09-23T14:32:54Z</time>
      </trkpt>
      <trkpt lat="45.2822" lon="4.4545">
        <ele>1137</ele>
        <time>2010-09-23T14:33:03Z</time>
      </trkpt>
      <trkpt lat="45.2822" lon="4.45436">
        <ele>1137</ele>
        <time>2010-09-23T14:33:11Z</time>
      </trkpt>
      <trkpt lat="45.2822" lon="4.45422">
        <ele>1137</ele>
        <time>2010-09-23T14:33:20Z</time>
      </trkpt>
      <trkpt lat="45.28222" lon="4.45409">
        <ele>1133</ele>
        <time>2010-09-23T14:33:28Z</time>
      </trkpt>
      <trkpt lat="45.28224" lon="4.45396">
        <ele>1132</ele>
        <time>2010-09-23T14:33:36Z</time>
      </trkpt>
      <trkpt lat="45.28227" lon="4.45382">
        <ele>1132</ele>
        <time>2010-09-23T14:33:44Z</time>
      </trkpt>
      <trkpt lat="45.2823" lon="4.45369">
        <ele>1131</ele>
        <time>2010-09-23T14:33:53Z</time>
      </trkpt>
      <trkpt lat="45.28234" lon="4.45356">
        <ele>1131</ele>
        <time>2010-09-23T14:34:00Z</time>
      </trkpt>
      <trkpt lat="45.28236" lon="4.45343">
        <ele>1130</ele>
        <time>2010-09-23T14:34:09Z</time>
      </trkpt>
      <trkpt lat="45.28238" lon="4.4533">
        <ele>1127</ele>
        <time>2010-09-23T14:34:19Z</time>
      </trkpt>
      <trkpt lat="45.28241" lon="4.45317">
        <ele>1126</ele>
        <time>2010-09-23T14:34:29Z</time>
      </trkpt>
      <trkpt lat="45.28244" lon="4.45304">
        <ele>1125</ele>
        <time>2010-09-23T14:34:39Z</time>
      </trkpt>
      <trkpt lat="45.28245" lon="4.4529">
        <ele>1124</ele>
        <time>2010-09-23T14:34:47Z</time>
      </trkpt>
      <trkpt lat="45.28244" lon="4.45276">
        <ele>1122</ele>
        <time>2010-09-23T14:34:59Z</time>
      </trkpt>
      <trkpt lat="45.28253" lon="4.4527">
        <ele>1128</ele>
        <time>2010-09-23T14:35:04Z</time>
      </trkpt>
      <trkpt lat="45.2826" lon="4.45259">
        <ele>1126</ele>
        <time>2010-09-23T14:35:17Z</time>
      </trkpt>
      <trkpt lat="45.28269" lon="4.4525">
        <ele>1122</ele>
        <time>2010-09-23T14:35:24Z</time>
      </trkpt>
      <trkpt lat="45.28279" lon="4.45242">
        <ele>1124</ele>
        <time>2010-09-23T14:35:28Z</time>
      </trkpt>
      <trkpt lat="45.28284" lon="4.45228">
        <ele>1124</ele>
        <time>2010-09-23T14:35:36Z</time>
      </trkpt>
      <trkpt lat="45.28289" lon="4.45214">
        <ele>1124</ele>
        <time>2010-09-23T14:35:49Z</time>
      </trkpt>
      <trkpt lat="45.28291" lon="4.45199">
        <ele>1123</ele>
        <time>2010-09-23T14:35:57Z</time>
      </trkpt>
      <trkpt lat="45.28297" lon="4.45188">
        <ele>1123</ele>
        <time>2010-09-23T14:36:05Z</time>
      </trkpt>
      <trkpt lat="45.28304" lon="4.45176">
        <ele>1124</ele>
        <time>2010-09-23T14:36:13Z</time>
      </trkpt>
      <trkpt lat="45.2831" lon="4.45165">
        <ele>1118</ele>
        <time>2010-09-23T14:36:19Z</time>
      </trkpt>
      <trkpt lat="45.28319" lon="4.45158">
        <ele>1120</ele>
        <time>2010-09-23T14:36:26Z</time>
      </trkpt>
      <trkpt lat="45.28319" lon="4.45143">
        <ele>1117</ele>
        <time>2010-09-23T14:36:35Z</time>
      </trkpt>
      <trkpt lat="45.28322" lon="4.45131">
        <ele>1115</ele>
        <time>2010-09-23T14:36:41Z</time>
      </trkpt>
      <trkpt lat="45.28325" lon="4.45116">
        <ele>1114</ele>
        <time>2010-09-23T14:36:53Z</time>
      </trkpt>
      <trkpt lat="45.28319" lon="4.45103">
        <ele>1113</ele>
        <time>2010-09-23T14:37:02Z</time>
      </trkpt>
      <trkpt lat="45.28323" lon="4.4509">
        <ele>1113</ele>
        <time>2010-09-23T14:37:08Z</time>
      </trkpt>
      <trkpt lat="45.2833" lon="4.45076">
        <ele>1110</ele>
        <time>2010-09-23T14:37:18Z</time>
      </trkpt>
      <trkpt lat="45.28331" lon="4.45061">
        <ele>1106</ele>
        <time>2010-09-23T14:37:25Z</time>
      </trkpt>
      <trkpt lat="45.28333" lon="4.45047">
        <ele>1103</ele>
        <time>2010-09-23T14:37:35Z</time>
      </trkpt>
      <trkpt lat="45.28338" lon="4.45035">
        <ele>1108</ele>
        <time>2010-09-23T14:37:45Z</time>
      </trkpt>
      <trkpt lat="45.28339" lon="4.45021">
        <ele>1106</ele>
        <time>2010-09-23T14:37:56Z</time>
      </trkpt>
      <trkpt lat="45.28346" lon="4.45012">
        <ele>1105</ele>
        <time>2010-09-23T14:38:04Z</time>
      </trkpt>
      <trkpt lat="45.28352" lon="4.45">
        <ele>1105</ele>
        <time>2010-09-23T14:38:15Z</time>
      </trkpt>
      <trkpt lat="45.28359" lon="4.44989">
        <ele>1097</ele>
        <time>2010-09-23T14:38:21Z</time>
      </trkpt>
      <trkpt lat="45.28364" lon="4.44978">
        <ele>1097</ele>
        <time>2010-09-23T14:38:35Z</time>
      </trkpt>
      <trkpt lat="45.28359" lon="4.44967">
        <ele>1096</ele>
        <time>2010-09-23T14:38:44Z</time>
      </trkpt>
      <trkpt lat="45.28359" lon="4.44954">
        <ele>1095</ele>
        <time>2010-09-23T14:38:58Z</time>
      </trkpt>
      <trkpt lat="45.28362" lon="4.44941">
        <ele>1094</ele>
        <time>2010-09-23T14:39:05Z</time>
      </trkpt>
      <trkpt lat="45.28366" lon="4.44928">
        <ele>1093</ele>
        <time>2010-09-23T14:39:20Z</time>
      </trkpt>
      <trkpt lat="45.28359" lon="4.44917">
        <ele>1092</ele>
        <time>2010-09-23T14:39:27Z</time>
      </trkpt>
      <trkpt lat="45.28357" lon="4.44901">
        <ele>1086</ele>
        <time>2010-09-23T14:39:43Z</time>
      </trkpt>
      <trkpt lat="45.28355" lon="4.44888">
        <ele>1085</ele>
        <time>2010-09-23T14:39:55Z</time>
      </trkpt>
      <trkpt lat="45.28353" lon="4.44874">
        <ele>1084</ele>
        <time>2010-09-23T14:40:06Z</time>
      </trkpt>
      <trkpt lat="45.28353" lon="4.44858">
        <ele>1083</ele>
        <time>2010-09-23T14:40:18Z</time>
      </trkpt>
      <trkpt lat="45.28353" lon="4.44845">
        <ele>1082</ele>
        <time>2010-09-23T14:40:29Z</time>
      </trkpt>
      <trkpt lat="45.28351" lon="4.44831">
        <ele>1077</ele>
        <time>2010-09-23T14:40:40Z</time>
      </trkpt>
      <trkpt lat="45.2835" lon="4.44816">
        <ele>1076</ele>
        <time>2010-09-23T14:40:51Z</time>
      </trkpt>
      <trkpt lat="45.28346" lon="4.44803">
        <ele>1075</ele>
        <time>2010-09-23T14:41:06Z</time>
      </trkpt>
      <trkpt lat="45.28346" lon="4.44788">
        <ele>1074</ele>
        <time>2010-09-23T14:41:17Z</time>
      </trkpt>
      <trkpt lat="45.28349" lon="4.44774">
        <ele>1072</ele>
        <time>2010-09-23T14:41:27Z</time>
      </trkpt>
      <trkpt lat="45.2835" lon="4.4476">
        <ele>1071</ele>
        <time>2010-09-23T14:41:34Z</time>
      </trkpt>
      <trkpt lat="45.28352" lon="4.44744">
        <ele>1067</ele>
        <time>2010-09-23T14:41:44Z</time>
      </trkpt>
      <trkpt lat="45.28352" lon="4.44731">
        <ele>1067</ele>
        <time>2010-09-23T14:41:56Z</time>
      </trkpt>
      <trkpt lat="45.28357" lon="4.44718">
        <ele>1067</ele>
        <time>2010-09-23T14:42:05Z</time>
      </trkpt>
      <trkpt lat="45.28362" lon="4.44707">
        <ele>1067</ele>
        <time>2010-09-23T14:42:15Z</time>
      </trkpt>
      <trkpt lat="45.28366" lon="4.44693">
        <ele>1067</ele>
        <time>2010-09-23T14:42:25Z</time>
      </trkpt>
      <trkpt lat="45.28367" lon="4.44678">
        <ele>1066</ele>
        <time>2010-09-23T14:42:33Z</time>
      </trkpt>
      <trkpt lat="45.28367" lon="4.44663">
        <ele>1065</ele>
        <time>2010-09-23T14:42:43Z</time>
      </trkpt>
      <trkpt lat="45.28368" lon="4.4465">
        <ele>1065</ele>
        <time>2010-09-23T14:42:49Z</time>
      </trkpt>
      <trkpt lat="45.28367" lon="4.44636">
        <ele>1065</ele>
        <time>2010-09-23T14:42:57Z</time>
      </trkpt>
      <trkpt lat="45.28367" lon="4.44623">
        <ele>1065</ele>
        <time>2010-09-23T14:43:05Z</time>
      </trkpt>
      <trkpt lat="45.28368" lon="4.4461">
        <ele>1065</ele>
        <time>2010-09-23T14:43:13Z</time>
      </trkpt>
      <trkpt lat="45.28371" lon="4.44595">
        <ele>1065</ele>
        <time>2010-09-23T14:43:22Z</time>
      </trkpt>
      <trkpt lat="45.28369" lon="4.44582">
        <ele>1066</ele>
        <time>2010-09-23T14:43:33Z</time>
      </trkpt>
      <trkpt lat="45.28372" lon="4.44569">
        <ele>1066</ele>
        <time>2010-09-23T14:43:45Z</time>
      </trkpt>
      <trkpt lat="45.28374" lon="4.44556">
        <ele>1066</ele>
        <time>2010-09-23T14:43:55Z</time>
      </trkpt>
      <trkpt lat="45.28374" lon="4.44541">
        <ele>1066</ele>
        <time>2010-09-23T14:44:05Z</time>
      </trkpt>
      <trkpt lat="45.28373" lon="4.44528">
        <ele>1066</ele>
        <time>2010-09-23T14:44:13Z</time>
      </trkpt>
      <trkpt lat="45.28371" lon="4.44514">
        <ele>1066</ele>
        <time>2010-09-23T14:44:22Z</time>
      </trkpt>
      <trkpt lat="45.28372" lon="4.44501">
        <ele>1067</ele>
        <time>2010-09-23T14:45:30Z</time>
      </trkpt>
      <trkpt lat="45.2838" lon="4.44492">
        <ele>1067</ele>
        <time>2010-09-23T14:45:41Z</time>
      </trkpt>
      <trkpt lat="45.28376" lon="4.4448">
        <ele>1067</ele>
        <time>2010-09-23T14:45:53Z</time>
      </trkpt>
    </trkseg>
  </trk>
</gpx>